[[{"header":{"parameterUnit":"m.s-1","parameterCategory":1,"la1":30.6,"la2":29.2853,"lo1":-89.7004,"lo2":-87.6739,"dy":0.0162,"dx":0.0183,"nx":112,"ny":82,"refTime":"2023-08-04T06:00:00:Z","depth":0,"parameterNumber":2,"parameterNumberName":"U-component_of_WINDS"},"data":[0.0,0.0,0.0,0.0,0.0,0.0,0.0,0.0,0.0,0.0,0.0,0.0,0.0,0.0,0.0,0.0,0.0,0.0,0.0,0.0,0.0,0.0,0.0,0.0,0.0,0.0,0.0,0.0,0.0,0.0,0.0,0.0,0.0,0.0,0.0,0.0,0.0,0.0,0.0,0.0,0.0,0.0,0.0,0.0,0.0,0.0,0.0,0.0,0.0,0.0,0.0,0.0,0.0,0.0,0.0,0.0,0.0,0.0,0.0,0.0,0.0,0.0,0.0,0.0,0.0,0.0,0.0,0.0,0.0,0.0,0.0,0.0,0.0,0.0,0.0,0.0,0.0,0.0,0.0,0.0,0.0,0.0,0.0,0.0,0.0,0.0,0.0,0.0,0.0,0.0,0.991,1.0956,1.2305,1.314,1.314,1.3554,1.3253,1.1951,0.0,0.0,0.0,0.0,0.0,0.0,0.0,0.0,0.0,0.0,0.0,0.0,0.0,0.0,0.0,0.0,0.0,0.0,0.0,0.0,0.0,0.0,0.0,0.0,0.0,0.0,0.0,0.0,0.0,0.0,0.0,0.0,0.0,0.0,0.0,0.0,0.0,0.0,0.0,0.0,0.0,0.0,0.0,0.0,0.0,0.0,0.0,0.0,0.0,0.0,0.0,0.0,0.0,0.0,0.0,0.0,0.0,0.0,0.0,0.0,0.0,0.0,0.0,0.0,0.0,0.0,0.0,0.0,0.0,0.0,0.0,0.0,0.0,0.0,0.0,0.0,0.0,0.0,0.0,0.0,0.0,0.0,0.0,0.0,0.0,0.0,0.0,0.0,0.0,0.0,0.0,0.0,0.0,0.0,0.0,0.0,0.0,0.0,0.0,0.0,0.0,0.0,0.0,0.0,1.0632,1.1303,1.2238,1.2896,1.2896,1.2665,1.2371,1.1897,0.0,0.0,0.0,0.0,0.0,0.0,0.0,0.0,0.0,0.0,0.0,0.0,0.0,0.0,0.0,0.0,0.0,0.0,0.0,0.0,0.0,0.0,0.0,0.0,0.0,0.0,0.0,0.0,0.0,0.0,0.0,0.0,0.0,0.0,0.0,0.0,0.0,0.0,0.0,0.0,0.0,0.0,0.0,0.0,0.0,0.0,0.0,0.0,0.0,0.0,0.0,0.0,0.0,0.0,0.0,0.0,0.0,0.0,0.0,0.0,0.0,0.0,0.0,0.0,0.0,0.0,0.0,0.0,0.0,0.0,0.0,0.0,0.0,0.0,0.0,0.0,0.0,0.0,0.0,0.0,0.0,0.0,0.0,0.0,0.0,0.0,0.0,0.0,0.0,0.0,0.0,0.0,0.0,0.0,0.0,0.0,0.0,0.0,0.0,0.0,0.0,0.0,0.0,1.0708,1.1022,1.1603,1.2311,1.2889,1.2979,1.2719,1.2351,1.1897,1.1844,0.0,0.0,0.0,0.0,0.0,0.0,0.0,0.0,0.0,0.0,0.0,0.0,0.0,0.0,0.0,0.0,0.0,0.0,0.0,0.0,0.0,0.0,0.0,0.0,0.0,0.0,0.0,0.0,0.0,0.0,0.0,0.0,0.0,0.0,0.0,0.0,0.0,0.0,0.0,0.0,0.0,0.0,0.0,0.0,0.0,0.0,0.0,0.0,0.0,0.0,0.0,0.0,0.0,0.0,0.0,0.0,0.0,0.0,0.0,0.0,0.0,0.0,0.0,0.0,0.0,0.0,0.0,0.0,0.0,0.0,0.0,0.0,0.0,0.0,0.0,0.0,0.0,0.0,0.0,0.0,0.0,0.0,0.0,0.0,0.0,0.0,0.0,0.0,0.0,0.0,0.0,0.0,0.0,0.0,0.0,0.0,0.0,0.0,0.0,0.0,0.0,0.0,1.0929,1.1142,1.1797,1.2405,1.2739,1.2973,1.2652,1.2245,1.179,1.1423,0.0,0.0,0.0,0.0,0.0,0.0,0.0,0.0,0.0,0.0,0.0,0.0,0.0,0.0,0.0,0.0,0.0,0.0,0.0,0.0,0.0,0.0,0.0,0.0,0.0,0.0,0.0,0.0,0.0,0.0,0.0,0.0,0.0,0.0,0.0,0.0,0.0,0.0,0.0,0.0,0.0,0.0,0.0,0.0,0.0,0.0,0.0,0.0,0.0,0.0,0.0,0.0,0.0,0.0,0.0,0.0,0.0,0.0,0.0,0.0,0.0,0.0,0.0,0.0,0.0,0.0,0.0,0.0,0.0,0.0,0.0,0.0,0.0,0.0,0.0,0.0,0.0,0.0,0.0,0.0,0.0,0.0,0.0,0.0,0.0,0.0,0.0,0.0,0.0,0.0,0.0,0.0,0.0,0.0,0.0,0.0,0.0,0.0,0.0,0.0,0.0,0.0,1.0755,1.0922,1.1777,1.2144,1.2345,1.2365,1.1844,1.1496,1.1456,1.0935,0.0,0.0,0.0,0.0,0.0,0.0,0.0,0.0,0.0,0.0,0.0,0.0,0.0,0.0,0.0,0.0,0.0,0.0,0.0,0.0,0.0,0.0,0.0,0.0,0.0,0.0,0.0,0.0,0.0,0.0,0.0,0.0,0.0,0.0,0.0,0.0,0.0,0.0,0.0,0.0,0.0,0.0,0.0,0.0,0.0,0.0,0.0,0.0,0.0,0.0,0.0,0.0,0.0,0.0,0.0,0.0,0.0,0.0,0.0,0.0,0.0,0.0,0.0,0.0,0.0,0.0,0.0,0.0,0.0,0.0,0.0,0.0,0.0,0.0,0.0,0.0,0.0,0.0,0.0,0.0,0.0,0.0,0.0,0.0,0.0,0.0,0.0,0.0,0.0,0.0,0.0,0.0,0.0,0.0,0.0,0.0,0.0,0.0,0.0,0.0,0.0,0.0,1.0628,1.0822,0.0,1.1857,1.2031,1.2031,1.1663,1.1349,1.1169,0.0,0.0,0.0,0.0,0.0,0.0,0.0,0.0,0.0,0.0,0.0,0.0,0.0,0.0,0.0,0.0,0.0,0.0,0.0,0.0,0.0,0.0,0.0,0.0,0.0,0.0,0.0,0.0,0.0,0.0,0.0,0.0,0.0,0.0,0.0,0.0,0.0,0.0,0.0,0.0,0.0,0.0,0.0,0.0,0.0,0.0,0.0,0.0,0.0,0.0,0.0,0.0,0.0,0.0,0.0,0.0,0.0,0.0,0.0,0.0,0.0,0.0,0.0,0.0,0.0,0.0,0.0,0.0,0.0,0.0,0.0,0.0,0.0,0.0,0.0,0.0,0.0,0.0,0.0,0.0,0.0,0.0,0.0,0.0,0.0,0.0,0.0,0.0,0.0,0.0,0.0,0.0,0.0,0.0,0.0,0.0,0.0,0.0,0.0,0.0,0.0,0.0,1.0381,1.0421,1.0608,0.0,1.1496,1.173,1.173,1.1283,1.1002,1.0995,0.0,0.0,0.0,0.0,0.0,0.0,0.0,0.0,0.0,0.0,0.0,0.0,0.0,0.0,0.0,0.0,0.0,0.0,0.0,0.0,0.0,0.0,0.0,0.0,0.0,0.0,0.0,0.0,0.0,0.0,0.0,0.0,0.0,0.0,0.0,0.0,0.0,0.0,0.0,0.0,0.0,0.0,0.0,0.0,0.0,0.0,0.0,0.0,0.0,0.0,0.0,0.0,0.0,0.0,0.0,0.0,0.0,0.0,0.0,0.0,0.0,0.0,0.0,0.0,0.0,0.0,0.0,0.0,0.0,0.0,0.0,0.0,0.0,0.0,0.0,0.0,0.0,0.0,0.0,0.0,0.0,0.0,0.0,0.0,0.0,0.0,0.0,0.0,0.0,0.0,0.0,0.0,0.0,0.0,0.0,0.0,0.0,0.0,0.0,0.0,0.0,0.0,1.0087,1.0114,1.0227,1.0591,1.1076,1.1416,1.1416,1.0621,1.0361,0.0,0.0,0.0,0.0,0.0,0.0,0.0,0.0,0.0,0.0,0.0,0.0,0.0,0.0,0.0,0.0,0.0,0.0,0.0,0.0,0.0,0.0,0.0,0.0,0.0,0.0,0.0,0.0,0.0,0.0,0.0,0.0,0.0,0.0,0.0,0.0,0.0,0.0,0.0,0.0,0.0,0.0,0.0,0.0,0.0,0.0,0.0,0.0,0.0,0.0,0.0,0.0,0.0,0.0,0.0,0.0,0.0,0.0,0.0,0.0,0.0,0.0,0.0,0.0,0.0,0.0,0.0,0.0,0.0,0.0,0.0,0.0,0.0,0.0,0.0,0.0,0.0,0.0,0.0,0.0,0.0,0.0,0.0,0.0,0.0,0.0,0.0,0.0,0.0,0.0,0.0,0.0,0.0,0.0,0.0,0.0,0.0,0.0,0.0,0.0,0.0,0.0,0.0,1.0388,1.0067,1.0007,1.0571,1.0895,1.1035,1.0835,1.0388,1.0187,1.0361,0.0,0.0,0.0,0.0,0.0,0.0,0.0,0.0,0.0,0.0,0.0,0.0,0.0,0.0,0.0,0.0,0.0,0.0,0.0,0.0,0.0,0.0,0.0,0.0,0.0,0.0,0.0,0.0,0.0,0.0,0.0,0.0,0.0,0.0,0.0,0.0,0.0,0.0,0.0,0.0,0.0,0.0,0.0,0.0,0.0,0.0,0.0,0.0,0.0,0.0,0.0,0.0,0.0,0.0,0.0,0.0,0.0,0.0,0.0,0.0,0.0,0.0,0.0,0.0,0.0,0.0,0.0,0.0,0.0,0.0,0.0,0.0,0.0,0.0,0.0,0.0,0.0,0.0,0.0,0.0,0.0,0.0,0.0,0.0,0.0,0.0,0.0,0.0,0.0,0.0,0.0,0.0,0.0,0.0,0.0,0.0,0.0,0.0,0.0,0.0,0.0,0.0,1.0361,0.9973,0.982,1.0174,1.0575,1.0655,1.0309,1.0047,0.994,0.994,0.0,0.0,0.0,0.0,0.0,0.0,0.0,0.0,0.0,0.0,0.0,0.0,0.0,0.0,0.0,0.0,0.0,0.0,0.0,0.0,0.0,0.0,0.0,0.0,0.0,0.0,0.0,0.0,0.0,0.0,0.0,0.0,0.0,0.0,0.0,0.0,0.0,0.0,0.0,0.0,0.0,0.0,0.0,0.0,0.0,0.0,0.0,0.0,0.0,0.0,0.0,0.0,0.0,0.0,0.0,0.0,0.0,0.0,0.0,0.0,0.0,0.0,0.0,0.0,0.0,0.0,0.0,0.0,0.0,0.0,0.0,0.0,0.0,0.0,0.0,0.0,0.0,0.0,0.0,0.0,0.0,0.0,0.0,0.0,0.0,0.0,0.0,0.0,0.0,0.0,0.0,0.0,0.0,0.0,0.0,0.0,0.0,0.0,0.0,0.0,0.0,0.0,1.016,0.988,0.9686,0.9686,1.0207,1.0383,0.9733,0.9764,0.9836,0.9726,0.0,0.0,0.0,0.0,0.0,0.0,0.0,0.0,0.0,0.0,0.0,0.0,0.0,0.0,0.0,0.0,0.0,0.0,0.0,0.0,0.0,0.0,0.0,0.0,0.0,0.0,0.0,0.0,0.0,0.0,0.0,0.0,0.0,0.0,0.0,0.0,0.0,0.0,0.0,0.0,0.0,0.0,0.0,0.0,0.0,0.0,0.0,0.0,0.0,0.0,0.0,0.0,0.0,0.0,0.0,0.0,0.0,0.0,0.0,0.0,1.016,0.0,0.0,0.0,0.0,0.0,0.0,0.0,0.0,0.0,0.0,0.0,0.0,0.0,0.0,0.0,0.0,0.0,0.0,0.0,0.0,0.0,0.0,0.0,0.0,0.0,0.0,0.0,0.0,0.0,0.0,0.0,0.0,0.0,0.0,0.0,0.0,0.0,0.0,0.0,0.0,0.0,1.0461,1.0007,0.9686,0.9686,1.0207,1.0383,0.9733,1.0455,1.0716,1.002,1.1007,0.0,0.0,0.0,0.0,0.0,0.0,0.0,0.0,0.0,0.0,0.0,0.0,0.0,0.0,0.0,0.0,0.0,0.0,0.0,0.0,0.0,0.0,0.0,0.0,0.0,0.0,0.0,0.0,0.0,0.0,0.0,0.0,0.0,0.0,0.0,0.0,0.0,0.0,0.0,0.0,0.0,0.0,0.0,0.0,0.0,0.0,0.0,0.0,0.0,0.0,0.0,0.0,0.0,0.0,0.0,0.0,0.0,0.0,0.0,0.0,1.0548,0.0,0.0,0.0,0.0,0.0,0.0,0.0,0.0,0.0,0.0,0.0,0.0,0.0,0.0,0.0,0.0,0.0,0.0,0.0,0.0,0.0,0.0,0.0,0.0,0.0,0.0,0.0,0.0,0.0,0.0,0.0,0.0,0.0,0.0,0.0,0.0,0.0,0.0,0.0,0.0,1.0735,1.0134,0.974,0.988,1.0294,1.0383,0.9733,1.0689,1.1093,1.0543,1.1676,0.0,0.0,0.0,0.0,0.0,0.0,0.0,0.0,0.0,0.0,0.0,0.0,0.0,0.0,0.0,0.0,0.0,0.0,0.0,0.0,0.0,0.0,0.0,0.0,0.0,0.0,0.0,0.0,0.0,0.0,0.0,0.0,0.0,0.0,0.0,0.0,0.0,0.0,0.0,0.0,0.0,0.0,0.0,0.0,0.0,0.0,0.0,0.0,0.0,0.0,0.0,0.0,0.0,1.2325,1.2432,1.2392,1.2685,1.2592,1.2151,1.1663,1.1202,1.0815,1.1196,0.0,0.0,0.0,0.0,0.0,0.0,0.0,0.0,0.0,0.0,0.0,0.0,0.0,0.0,0.0,0.0,0.0,0.0,0.0,0.0,0.0,0.0,0.0,0.0,1.2822,1.2708,0.0,0.0,0.0,0.0,0.0,0.0,0.0,0.0,0.0,0.0,0.0,0.0,1.0862,1.0241,0.9846,1.0094,1.0505,1.0581,1.0034,1.1123,1.1654,1.1268,1.2225,1.2764,0.0,0.0,0.0,0.0,0.0,0.0,0.0,0.0,0.0,0.0,0.0,0.0,0.0,0.0,0.0,0.0,0.0,0.0,0.0,0.0,0.0,0.0,0.0,0.0,0.0,0.0,0.0,0.0,0.0,0.0,0.0,0.0,0.885,0.9157,0.0,0.0,0.0,0.0,0.0,0.0,0.0,0.0,0.0,0.0,0.0,0.0,0.0,1.1975,1.2526,1.2766,1.2819,1.2708,1.2946,1.2946,1.2775,1.3013,1.324,1.3407,1.3327,0.0,1.1663,1.1229,0.0,0.0,0.0,0.0,0.0,0.0,0.0,0.0,0.0,0.0,0.0,0.0,0.0,0.0,0.0,0.0,0.0,0.0,0.0,0.0,0.0,0.0,1.2775,1.2808,1.2822,1.2876,0.0,1.2679,1.2271,1.1984,1.175,0.0,0.0,0.0,0.0,0.0,0.0,0.0,1.0769,1.0294,1.0074,1.0114,1.1041,1.15,1.113,1.2763,1.3502,1.274,1.3316,1.3523,1.3309,1.2336,0.0,0.0,0.0,0.0,0.0,0.0,0.0,0.0,0.0,0.0,0.0,0.0,0.0,0.0,0.0,0.0,0.0,0.0,0.0,0.0,0.0,0.0,0.0,0.0,0.0,0.0,0.0,0.0,0.0,0.8867,0.9285,0.919,0.9279,0.9232,0.0,0.0,0.0,0.0,0.0,0.0,0.0,0.0,0.0,1.1724,1.2311,1.2746,1.3006,1.3307,1.3554,1.3748,1.4055,1.4128,1.4085,1.4302,1.4422,1.4382,1.4382,1.3995,1.3313,1.2726,1.2538,1.2579,0.0,0.0,0.0,0.0,1.2171,1.2432,1.2472,1.2478,0.0,1.2739,0.0,0.0,0.0,0.0,0.0,0.0,0.0,0.0,0.0,0.0,1.354,1.3707,1.3868,1.3988,1.3955,1.348,1.2919,0.0,1.2258,1.2297,1.269,0.0,0.0,0.0,0.0,1.1073,1.084,1.0401,1.0356,1.0998,1.1505,1.1897,1.2237,1.3442,1.4034,1.3726,1.4344,1.4468,1.39,1.3591,1.3157,0.0,0.0,0.0,0.0,0.0,0.0,0.0,0.0,0.0,0.0,0.0,0.0,0.0,0.0,0.0,0.0,0.0,0.0,0.0,0.0,0.0,0.0,0.0,0.0,0.0,0.0,0.0,0.0,0.9245,0.9486,0.921,0.9499,0.9593,0.0,0.0,0.0,0.0,0.0,0.0,1.1303,1.2091,1.2565,1.2645,1.3233,1.3621,1.3768,1.4055,1.4422,1.4856,1.5084,1.5184,1.519,1.5404,1.5391,1.5184,1.5184,1.5057,1.4796,1.4062,1.3627,1.3407,1.3093,1.3026,1.3158,1.3006,1.3173,1.3454,1.3594,1.3559,1.3647,1.3654,1.35,1.3339,1.2959,0.0,0.0,0.0,0.0,1.3193,1.3641,1.4219,1.4702,1.4744,1.5116,1.5438,1.5198,1.475,1.4234,0.0,1.3182,1.3152,1.3419,0.0,0.0,0.0,0.0,1.1529,1.1335,1.1101,1.1301,1.2004,1.232,1.2687,1.3252,1.4025,1.451,1.451,1.505,1.5108,1.451,1.4553,1.3768,1.2143,0.0,0.0,0.0,0.0,0.0,0.0,0.0,0.0,0.0,0.0,0.0,0.0,0.0,0.0,0.0,0.0,0.0,0.0,0.0,0.0,0.0,0.0,0.0,0.0,0.0,0.0,0.0,0.0,0.0,0.9183,0.9499,0.0,0.0,0.0,0.0,1.0862,1.145,1.1917,1.2218,1.2826,1.3287,1.3567,1.4148,1.4723,1.5277,1.5578,1.5732,1.5765,1.5778,1.5785,1.5785,1.5798,1.5798,1.5785,1.5785,1.5778,1.5678,1.4536,1.4055,1.4015,1.3714,1.3768,1.3988,1.3701,1.3788,1.4008,1.3734,1.3559,1.3781,1.4609,1.4863,1.4796,1.4502,1.4215,0.0,0.0,1.3801,1.4028,1.4055,1.5099,1.6066,1.5477,1.6019,1.675,1.7049,1.684,1.6219,0.0,1.4268,1.4402,1.6245,0.0,1.6042,1.4728,1.5288,1.4919,1.2455,1.2869,1.3301,1.2981,1.3606,1.4085,1.4145,1.4874,1.5352,1.5352,1.5352,1.5352,1.5352,1.4588,1.3812,1.2948,1.2482,0.0,0.0,0.0,0.0,0.0,0.0,0.0,0.0,0.0,0.0,0.0,0.0,0.0,0.0,0.0,0.0,0.0,0.0,0.0,0.0,0.0,0.0,0.0,0.0,0.0,0.0,0.0,0.0,1.0279,1.0962,0.0,1.1369,1.1463,1.169,1.2163,1.2498,1.2946,1.3427,1.4015,1.4476,1.4763,1.5157,1.5464,1.5671,1.5778,1.5832,1.5832,1.5832,1.5832,1.5832,1.5832,1.5832,1.5832,1.5832,1.5832,1.5798,1.5378,1.5097,1.4903,1.4609,1.4556,1.4636,1.4529,1.4683,1.4917,1.481,1.477,1.4763,1.4696,1.4549,1.4382,1.4275,1.4168,1.4264,1.5077,1.543,1.5782,1.6975,1.77,1.8081,1.8016,1.8297,1.8603,1.8632,1.8482,1.8344,1.8591,1.7188,1.6144,1.6908,1.6442,1.5834,1.527,1.524,1.4908,1.368,1.3549,1.3739,1.418,1.4186,1.4392,1.4932,1.5235,1.541,1.541,1.541,1.5177,1.4628,1.4323,1.3597,1.2266,1.244,1.2058,0.0,0.0,0.0,0.0,0.0,0.0,0.0,0.0,0.0,0.0,0.0,0.0,0.0,0.0,0.0,0.0,0.0,0.0,0.0,0.0,0.0,0.0,0.0,0.0,0.0,0.0,1.0321,1.0829,1.1906,1.2605,1.2605,1.2699,1.2879,1.318,1.3574,1.4015,1.4502,1.499,1.5344,1.5538,1.5732,1.5832,1.5832,1.5832,1.5832,1.5832,1.5832,1.5832,1.5832,1.5832,1.5832,1.5832,1.5832,1.5832,1.5832,1.5832,1.5718,1.5524,1.5331,1.5257,1.5257,1.5257,1.5378,1.5538,1.5538,1.5538,1.5478,1.509,1.483,1.4676,1.4676,1.4676,1.4886,1.5846,1.6161,1.6522,1.8213,1.897,1.9289,1.9439,1.9852,2.0124,2.0124,1.9937,2.0201,2.1273,1.9585,1.8004,1.8266,1.7561,1.6838,1.6347,1.6211,1.5892,1.5169,1.4985,1.5024,1.5473,1.5223,1.5181,1.5585,1.5771,1.5604,1.501,1.5124,1.4777,1.3855,1.3908,1.3297,1.1929,1.2269,1.1995,1.1068,0.0,0.0,0.0,0.0,0.0,0.0,0.0,0.0,0.0,0.0,0.0,0.0,0.0,0.0,0.0,0.0,0.0,0.0,0.0,0.0,0.0,0.0,0.0,0.7366,0.9723,1.1198,1.0783,1.2195,1.328,1.328,1.354,1.3828,1.4122,1.4669,1.5117,1.5398,1.5678,1.5832,1.5832,1.5832,1.5832,1.5832,1.5832,1.5832,1.5832,1.5832,1.5832,1.5832,1.5832,1.5832,1.5832,1.5832,1.5832,1.5832,1.5832,1.5832,1.5838,1.5832,1.5832,1.5832,1.5832,1.5832,1.5832,1.5832,1.5832,1.5832,1.5832,1.5832,1.5832,1.5832,1.5832,1.5832,1.5825,1.5832,1.6204,1.7498,1.868,1.9497,1.9588,2.0486,2.1293,2.1382,2.1391,2.1658,2.2862,2.124,1.9869,2.0517,2.0244,1.9495,1.8164,1.836,0.0,1.6778,1.7091,1.7171,1.6689,1.6631,1.6447,1.6072,1.636,1.5913,1.4276,1.4583,1.4303,1.3025,1.3214,1.2956,1.2201,1.1964,1.1864,1.1884,0.0,0.0,0.0,0.0,0.0,0.0,0.0,0.0,0.0,0.0,0.0,0.0,0.0,0.0,0.0,0.0,0.0,0.0,0.0,0.0,0.0,0.0,0.9644,0.9569,1.0205,1.1257,1.2945,1.413,1.4796,1.4796,1.5057,1.5264,1.5344,1.5498,1.5625,1.5705,1.5785,1.5832,1.5832,1.5832,1.5832,1.5832,1.5832,1.5832,1.5832,1.5832,1.5832,1.5832,1.5832,1.5832,1.5832,1.5832,1.5832,1.5832,1.5832,1.5952,1.6126,1.5912,1.5832,1.5832,1.5832,1.5832,1.5832,1.5832,1.5832,1.5832,1.5832,1.5832,1.5832,1.5832,1.5832,1.6015,1.6943,1.7225,1.7677,1.9761,1.9943,1.9943,2.1676,2.1667,2.1569,2.2403,2.2589,2.2677,2.3047,2.2341,2.1678,2.1592,2.1162,2.0528,1.9468,1.949,0.0,1.7251,1.6875,1.6437,1.5575,1.518,1.4908,1.4797,1.4709,1.4345,1.3672,1.3549,1.3108,1.2143,1.2228,1.2067,1.162,1.16,1.1757,0.0,0.0,0.0,0.0,0.0,0.0,0.0,0.0,0.0,0.0,0.0,0.0,0.0,0.0,0.0,0.0,0.0,0.0,0.0,0.0,0.0,0.0,0.9946,1.113,1.1556,1.1922,1.259,1.3762,1.4917,1.5578,1.5578,1.5732,1.5832,1.5832,1.5945,1.5965,1.5838,1.5945,1.6012,1.6012,1.5892,1.5885,1.6012,1.5892,1.5832,1.5832,1.5952,1.6012,1.6019,1.6139,1.6132,1.6012,1.6012,1.6012,1.6012,1.6012,1.6192,0.0,0.0,0.0,0.0,0.0,1.5939,1.5832,1.5832,1.5832,1.5832,1.5832,1.5832,1.5832,1.5832,1.5832,1.592,1.6669,1.6943,1.7311,1.9306,1.9314,1.9231,2.1132,2.1033,2.0755,2.14,2.1587,2.1587,2.1587,2.1405,0.0,2.072,2.0523,2.0217,1.9167,1.8802,1.8181,1.7116,1.6503,1.5951,1.5314,1.4923,1.4576,1.4421,1.4432,0.0,0.0,0.0,1.2575,1.1675,1.1738,0.0,0.0,0.0,1.1735,1.1694,1.0707,0.0,0.0,0.9653,0.9563,0.0,0.0,0.0,0.0,0.0,0.0,0.0,0.0,0.0,0.0,0.0,0.0,0.0,0.0,0.0,0.0,1.0867,1.2123,1.3291,1.4199,1.4545,1.4017,1.5018,1.5845,1.5879,1.5845,1.5845,1.5879,1.6092,1.6119,1.5892,0.0,0.0,0.0,0.0,1.6039,1.6273,1.6039,1.5912,1.5885,1.6179,1.6326,1.6333,1.6587,1.6567,1.6326,1.6326,1.6326,1.6326,1.6326,1.6473,1.6653,1.6132,1.6226,1.6627,1.6366,1.6086,1.5832,1.5832,0.0,0.0,1.5832,1.5832,1.5832,1.5832,1.5832,1.5832,1.5832,1.5832,1.6109,1.7412,1.7591,1.7863,1.9222,1.9405,1.9314,1.9488,1.9497,1.9497,1.9497,1.9497,1.9298,1.8799,1.9102,1.9094,1.7971,1.7203,1.6743,1.6545,1.5823,1.5346,1.5157,0.0,0.0,1.4134,1.4497,1.4097,1.2674,1.2668,1.2308,1.143,1.164,1.184,1.2098,1.1983,1.1545,1.064,1.064,0.9664,0.7855,0.856,0.8946,0.0,0.0,0.0,0.0,0.0,0.0,0.0,0.0,0.0,0.0,0.0,0.0,0.0,0.0,0.0,1.0203,1.168,1.3067,1.3534,1.4993,1.5876,1.5796,1.5843,1.5925,1.6166,1.5972,1.5925,1.6166,1.6019,1.5999,1.6179,1.6246,1.6273,1.6273,1.6446,1.6453,1.6273,1.6446,1.642,1.6192,0.0,0.0,1.662,1.668,1.6673,1.662,1.662,1.662,1.662,1.662,1.6653,1.6693,1.658,1.6466,1.6346,1.6293,1.6086,1.5832,1.5832,1.5832,1.5832,1.5832,1.5832,1.5832,1.5832,1.5832,0.0,1.5832,1.5832,1.6109,1.7412,1.6943,1.6749,1.8948,1.8772,1.8319,1.9314,1.9497,1.9497,1.9497,1.9497,1.9198,1.8141,1.8266,1.8464,1.7844,1.7425,1.6798,1.572,1.4583,1.3525,1.2536,1.1575,1.1198,1.1809,1.1695,1.1754,1.2016,1.1833,1.1628,1.143,1.0916,1.0719,1.0773,1.017,0.975,0.9593,0.9593,0.8993,0.7859,0.8798,0.8798,0.0,0.0,0.0,0.0,0.0,0.0,0.0,0.0,0.0,0.0,0.0,0.9135,0.0,0.0,1.0699,1.0182,1.258,1.4427,1.4104,1.5503,1.6433,1.6293,1.6273,1.6326,1.6473,1.6353,1.6333,1.648,1.6486,1.6486,1.6486,1.6633,1.6714,1.6714,1.6707,1.6707,1.6714,1.6707,1.6633,1.6493,1.6787,1.6927,1.6934,1.7081,1.7068,1.6927,1.6927,1.6927,1.6941,1.7088,1.7141,1.7128,1.6987,1.666,1.6273,1.6273,1.6086,1.5832,1.5832,1.5832,1.5832,1.5832,1.5832,1.5832,1.5832,1.5832,1.5832,1.5832,1.5832,1.592,1.6574,1.6292,1.6103,1.739,1.721,1.6943,1.7483,1.7662,1.7468,1.6786,1.6685,1.631,1.5,1.4909,1.5246,1.6235,1.5633,1.479,1.3911,1.2661,1.1629,1.1035,1.0258,0.9938,1.0344,1.0633,1.0899,1.115,1.1131,1.1068,1.0936,1.0243,0.9865,0.9865,0.957,0.915,0.8686,0.8709,0.8211,0.727,0.8291,0.8112,0.0,0.0,0.0,0.0,0.0,0.0,0.0,0.0,0.7346,0.7552,0.7951,0.7959,0.7337,0.9216,1.0749,1.0138,1.2921,1.4875,1.4185,1.5208,1.5884,1.5662,1.6295,1.6627,1.6371,1.6533,1.6727,1.6787,1.6961,1.6981,1.68,1.7021,1.7148,1.7148,1.7034,1.7021,1.7148,1.7027,1.6907,1.6794,1.7094,1.7235,1.7241,1.7475,1.7455,1.7235,1.7235,1.7235,1.7248,1.7482,1.7582,1.7555,1.7261,1.672,1.6045,1.6195,1.6086,1.5832,1.5832,1.5832,1.5832,1.5832,1.5832,1.5832,1.5832,1.5832,1.5832,1.5832,1.5832,1.573,1.5534,1.5439,1.5343,1.5051,1.5051,1.5051,1.5051,1.5051,1.4758,1.3686,1.3488,1.3199,1.2042,1.1692,1.2156,1.406,1.3237,1.2357,1.2065,1.0883,0.9969,0.9931,0.9488,0.9275,0.9538,1.0203,1.0622,1.0642,1.0599,1.0466,1.0268,0.9478,0.9115,0.9115,0.8963,0.8573,0.7784,0.8093,0.7679,0.6698,0.7922,0.7849,0.559,0.5761,0.6023,0.6252,0.666,0.7235,0.0,0.0,0.9117,0.8752,0.9512,0.967,0.7905,0.9651,1.1113,1.0292,1.1687,1.2756,1.27,1.2982,1.32,1.3174,1.5293,1.6289,1.5287,1.6132,1.6814,1.7081,1.6887,1.6854,1.7088,1.7134,1.7148,1.7148,1.7635,1.7655,1.7154,1.7649,1.7629,1.7108,1.7395,1.7535,1.7535,1.7569,1.7562,1.7535,1.7535,1.7535,1.7535,1.7569,1.7582,1.7555,1.7261,1.6317,1.5087,1.596,1.6086,1.5832,1.5832,1.5832,1.5832,1.5832,1.5832,1.5832,1.5832,1.5832,1.5832,1.5832,1.5832,1.5534,1.4364,1.407,1.3782,1.2624,1.2334,1.2334,1.2334,1.2334,1.2334,1.2139,1.2139,1.2042,1.1945,1.1925,1.1829,1.1879,1.1554,1.1314,1.1197,1.0102,0.9207,0.9048,0.7928,0.7922,0.968,0.9802,1.0263,1.1277,1.0423,0.9782,0.9757,0.8819,0.835,0.835,0.748,0.6919,0.6836,0.7749,0.7679,0.6785,0.8651,0.8955,0.6118,0.6149,0.0,0.0,0.6908,0.7461,0.8144,0.8355,0.8563,0.8615,0.905,0.913,0.8431,0.9685,1.0514,0.0,1.1252,1.2421,1.1704,1.2428,1.2758,1.1787,1.3367,1.4446,1.4066,1.6014,1.6944,1.6212,1.686,1.7348,1.7655,1.7669,1.7749,1.7923,1.817,1.8183,1.7936,1.8183,1.8183,1.7936,1.805,1.8023,1.7856,1.8029,1.8016,1.7842,1.7662,1.7147,1.628,1.628,1.5849,1.5074,1.4716,1.4238,1.3784,1.4817,1.4497,1.3613,1.4643,1.4892,1.5111,1.598,1.6339,1.6339,1.6339,1.6339,1.6104,1.5234,1.4892,1.4558,1.3141,1.2721,1.2619,1.2042,1.1945,1.1945,1.1945,1.1945,1.1653,1.0974,1.0779,1.0583,0.9801,1.0288,1.0747,1.066,1.0473,1.058,1.1109,1.0095,0.9514,1.0126,0.8871,0.8573,1.0058,0.9932,1.0024,1.0509,0.9461,0.8814,0.8814,0.7839,0.7353,0.7353,0.6951,0.6834,0.6834,0.7336,0.7382,0.6956,0.78,0.7971,0.6162,0.0,0.0,0.6834,0.7265,0.7706,0.7994,0.8123,0.8272,0.8601,0.8669,0.8689,0.876,0.9422,0.9735,0.901,1.0458,1.1487,1.0655,1.1385,1.1621,1.042,1.1507,1.2264,1.2,1.4624,1.5846,1.4775,1.6199,1.7034,1.6811,1.7675,1.7818,1.7222,1.7645,1.7652,1.7229,1.7303,1.7303,1.7229,1.7229,1.724,1.7495,1.7734,1.7457,1.6696,1.6518,1.5849,1.477,1.477,1.4234,1.3357,1.3513,1.2986,1.2365,1.348,1.3109,1.2251,1.3805,1.4366,1.46,1.6227,1.6707,1.66,1.6192,1.6092,1.584,1.4219,1.3712,1.332,1.1875,1.1404,1.1263,1.0872,1.0779,1.0779,1.0779,1.0779,1.0583,0.9608,0.941,0.9217,0.8627,0.9312,1.0096,1.0489,1.0457,1.06,1.1392,1.066,1.0357,1.1145,1.0133,0.9928,1.0969,1.0559,1.0191,1.0125,0.9059,0.8234,0.7899,0.7238,0.682,0.682,0.6929,0.6987,0.6987,0.7092,0.7139,0.7139,0.7139,0.7139,0.0,0.0,0.6226,0.7178,0.7834,0.8347,0.8621,0.8906,0.9117,0.913,0.913,0.9089,0.8957,0.8927,0.8927,0.8937,0.8933,0.904,0.8937,0.8917,0.8821,0.8817,0.9934,1.0244,0.0,1.1348,1.3141,1.3036,1.4854,1.5246,1.3714,1.6735,1.7105,1.3917,1.5624,1.5641,1.3808,1.4134,1.4134,1.3803,1.3803,1.4713,1.6181,1.6044,1.5153,1.3593,1.3474,1.3372,1.3372,1.3372,1.3372,1.348,1.4764,1.3545,1.1137,1.249,1.2769,1.2587,1.4129,1.454,1.4743,1.6186,1.6707,1.6393,1.4957,1.4653,1.4349,1.2905,1.2334,1.1964,1.0554,1.0124,0.9706,0.8432,0.8137,0.8137,0.8137,0.8137,0.8137,0.8038,0.8038,0.8432,0.9706,0.9998,1.0386,1.1653,1.1843,1.1838,1.193,1.1733,1.1604,1.1472,1.1431,1.1786,1.2622,1.1711,1.0906,1.06,0.9474,0.8348,0.7214,0.7126,0.7126,0.7126,0.7132,0.7132,0.7132,0.7139,0.7139,0.7139,0.7139,0.7139,0.5882,0.0,0.3885,0.4418,0.6687,0.8798,0.8984,0.9093,0.9127,0.9028,0.8774,0.852,0.837,0.8343,0.8377,0.8479,0.8659,0.8788,0.8788,0.8828,0.8754,0.8455,0.8866,0.0,0.0,0.0,0.0,1.176,1.396,1.4937,1.3805,1.4939,1.5259,1.4366,1.4917,1.4923,1.4254,1.4447,1.4447,1.4254,1.4099,1.4456,1.5067,1.4664,1.4153,1.3698,1.3477,1.2859,1.1864,1.1864,1.1214,1.0566,1.1969,1.1281,0.9723,1.1225,1.1078,1.0369,1.2765,1.4177,1.5257,1.6801,1.6645,1.5688,1.5263,1.4417,1.3435,1.1815,1.1417,1.0993,0.9328,0.8932,0.8765,0.8161,0.8038,0.8038,0.8038,0.8038,0.8038,0.8038,0.8038,0.8432,0.9805,1.0681,1.1945,1.4178,1.3782,1.3199,1.3199,1.3087,1.3281,1.4032,1.3215,1.3079,1.4174,1.2998,1.1883,1.1014,0.9652,0.8364,0.7139,0.7139,0.7139,0.7139,0.7139,0.7139,0.7139,0.7139,0.7139,0.7139,0.7139,0.7139,0.597,0.4833,0.3415,0.2284,0.3835,0.6381,0.8713,0.9144,0.9121,0.892,0.8584,0.8265,0.8007,0.7916,0.7929,0.8082,0.8265,0.8445,0.8608,0.8669,0.8632,0.8448,0.8459,0.8408,0.0,0.0,0.0,1.0192,1.2488,1.3522,1.2328,1.3635,1.3853,1.2928,1.3407,1.3526,1.2933,1.2933,1.2933,1.2928,1.3268,1.3272,1.2919,1.3049,1.2744,1.2333,1.2023,1.1389,1.0347,1.0347,0.9809,0.9047,1.1105,1.1,0.9915,1.186,1.2077,1.1411,1.2671,1.3689,1.489,1.6983,1.6929,1.5956,1.499,1.4019,1.2916,1.0746,1.0134,0.9827,0.8682,0.835,0.8245,0.8147,0.8079,0.8038,0.8038,0.8038,0.8038,0.8038,0.8038,0.8531,1.0386,1.2139,1.3692,1.4949,1.4459,1.407,1.4561,1.4508,1.4597,1.4784,1.4056,1.354,1.372,1.2829,1.1741,1.0498,0.9429,0.8396,0.7221,0.7221,0.7248,0.7302,0.7305,0.7305,0.7305,0.7251,0.7221,0.7221,0.7166,0.7139,0.5518,0.5266,0.4329,0.0861,-0.0,0.1518,0.7587,0.9039,0.9062,0.8682,0.853,0.8279,0.0,0.0,0.7621,0.7767,0.7821,0.7994,0.8421,0.8387,0.8414,0.0,0.0,0.0,0.0,0.0,0.0,0.8622,0.0,1.1093,0.9507,1.2609,1.2933,0.994,1.1257,1.1378,0.9822,0.9822,0.9822,0.9822,1.1378,1.1257,0.9815,1.1205,1.0922,0.9384,0.9228,0.9083,0.895,0.8944,0.8937,0.9265,1.2186,1.2403,1.1538,1.4341,1.531,1.5097,1.3804,1.3372,1.3911,1.6499,1.7364,1.6823,1.4019,1.3161,1.2512,0.9699,0.8832,0.872,0.8713,0.8503,0.8289,0.8275,0.816,0.8048,0.8041,0.8045,0.8052,0.8052,0.8148,0.9031,1.1477,1.3992,1.5337,1.407,1.3878,1.4268,1.5439,1.5635,1.5146,1.3974,1.3776,1.3194,1.1632,1.1419,1.0654,0.9194,0.9017,0.8468,0.7468,0.7383,0.7451,0.7597,0.76,0.76,0.76,0.7455,0.7383,0.738,0.7231,0.7163,0.5298,0.3782,0.1203,0.0225,-0.0,0.0932,0.4526,0.707,0.8573,0.8167,0.7743,0.738,0.0,0.0,0.0,0.7458,0.795,0.0,0.8465,0.874,0.0,0.8726,0.0,0.894,0.8835,0.9244,0.0,0.0,1.0459,1.0784,0.9655,1.0434,1.066,0.9819,1.0179,1.0179,0.9822,0.9822,0.9822,0.9822,1.0179,1.0179,0.9819,1.0137,1.0039,0.9544,0.9391,0.9235,0.9089,0.8984,0.9588,1.0672,1.262,1.3048,1.294,1.477,1.477,1.3804,1.3372,1.4669,1.628,1.4883,1.4449,1.4019,1.2186,1.0891,0.9915,0.9154,0.891,0.8855,0.874,0.8655,0.8543,0.8323,0.8241,0.818,0.8065,0.813,0.8211,0.8211,0.9803,1.1387,1.1984,1.3419,1.4262,1.3974,1.3011,1.2528,1.2818,1.2915,1.2818,1.2431,1.2431,1.2211,1.1864,1.1552,1.0933,0.9669,0.9402,0.8682,0.7633,0.7543,0.756,0.76,0.76,0.76,0.76,0.756,0.7543,0.7539,0.7502,0.7482,0.2858,0.1765,-0.0,-0.0,-0.0,0.0348,0.1879,0.5208,0.789,0.76,0.7227,0.0,0.0,0.0,0.0,0.0,0.0,0.0,0.835,0.8659,0.8869,0.0,0.9052,0.0,0.9133,0.9208,0.9283,0.0,1.0037,1.0233,0.9602,0.9744,0.9822,0.9822,0.9822,0.9822,0.9822,0.9822,0.9822,0.9822,0.9822,0.9822,0.9822,0.9822,0.9744,0.9602,0.0,0.9296,0.9144,0.8998,0.9809,1.1214,1.2729,1.3696,1.4341,1.5091,1.4877,1.4019,1.2724,1.3804,1.5423,1.3804,1.3335,1.3068,1.1564,1.0508,0.9787,0.9064,0.894,0.892,0.8832,0.876,0.8669,0.8503,0.8411,0.834,0.8252,0.8303,0.8364,0.8364,0.9985,1.1374,1.1281,1.236,1.2927,1.2242,1.1551,1.0877,1.0288,1.1165,1.1658,1.1165,1.1072,1.0877,1.019,1.0009,0.9615,0.8956,0.8702,0.8273,0.7689,0.7692,0.7726,0.779,0.7794,0.7794,0.7794,0.7726,0.7692,0.7692,0.7628,0.76,-0.0,-0.0,-0.0,-0.0,-0.0,-0.0,-0.0,0.3368,0.6578,0.6943,0.0,0.6651,0.6125,0.6257,0.6508,0.6698,0.0,0.7611,0.8214,0.8455,0.8723,0.9133,0.9218,0.9293,0.9429,0.9439,0.9496,0.9629,0.9639,0.9639,0.9639,0.9754,0.9822,0.9822,0.9822,0.9822,0.9822,0.9822,0.9822,0.9822,0.9822,0.9822,0.9822,0.9822,0.9754,0.9629,0.9479,0.9337,0.9201,0.9255,1.0067,1.1612,1.3073,1.4358,1.5464,1.5429,1.531,1.477,1.2077,1.1973,1.2945,1.2724,1.2984,1.2899,1.1274,1.09,1.0667,0.9307,0.894,0.894,0.894,0.8842,0.8733,0.8716,0.8608,0.8506,0.8486,0.8499,0.852,0.8537,0.9545,1.0397,1.0259,1.118,1.1477,1.025,0.9817,0.9312,0.8137,0.9993,1.097,0.9903,0.9706,0.9312,0.8137,0.7919,0.7841,0.7841,0.7726,0.7712,0.7834,0.7841,0.7902,0.8038,0.8038,0.8038,0.8038,0.7906,0.7841,0.7838,0.7716,0.7658,-0.0,-0.0,-0.0,-0.0,-0.0,-0.0,-0.0,0.1803,0.0,0.0,0.0,0.6152,0.6047,0.6176,0.0,0.6824,0.0,0.0,0.0,0.0,0.9113,0.0,0.0,0.0,0.0,0.0,0.0,0.0,0.0,0.9785,0.9785,0.9805,0.9822,0.9822,0.9822,0.9822,0.9822,0.9822,0.9822,0.9822,0.9822,0.9822,0.9822,0.9822,0.9805,0.9778,0.9632,0.0,0.9624,1.0459,1.1863,1.3556,1.4603,1.5331,1.5819,1.5499,1.4663,1.3372,1.1647,1.1324,1.1324,1.0021,1.0572,1.1338,0.9747,0.9367,0.9455,0.8977,0.894,0.894,0.894,0.892,0.8866,0.874,0.8689,0.8635,0.8509,0.8581,0.871,0.8835,0.9709,1.0481,1.0607,1.045,1.038,1.0196,0.9103,0.8233,0.8038,0.8432,0.8627,0.8333,0.8333,0.8237,0.8041,0.8014,0.7997,0.7997,0.7977,0.7974,0.7997,0.7997,0.8014,0.8038,0.8038,0.8038,0.8038,0.8014,0.7997,0.7997,0.7974,0.7963,-0.0,-0.0,-0.0,-0.0,-0.0,0.0565,0.2737,0.0,0.0,0.0,0.6125,0.5888,0.5817,0.0,0.0,0.0,0.0,0.0,0.0,0.0,0.0,0.0,0.0,0.0,0.0,0.0,0.0,0.0,0.0,0.9822,0.9822,0.9822,0.9822,0.9822,0.9822,0.9822,0.9822,0.9822,0.9822,0.9822,0.9822,0.9822,0.9822,0.9822,0.9822,0.9815,0.9673,0.0,0.9591,1.0163,1.1179,1.2622,1.3199,1.3935,1.4592,1.3714,1.287,1.2022,1.0695,1.0227,1.0054,0.9366,0.9663,1.0155,0.9415,0.9218,0.9259,0.9188,0.9059,0.8957,0.9032,0.8994,0.892,0.8849,0.8828,0.8808,0.8733,0.8777,0.8852,0.8923,0.9251,0.9674,0.967,0.9395,0.9203,0.9278,0.8581,0.8069,0.815,0.8089,0.8038,0.8038,0.8038,0.8038,0.8038,0.8038,0.8038,0.8038,0.8038,0.8038,0.8038,0.8038,0.8038,0.8038,0.8038,0.8038,0.8038,0.8038,0.8038,0.8038,0.8038,0.8038,-0.0,-0.0,-0.0,-0.0,-0.0,0.1119,0.5346,0.4808,0.0,0.0,0.5867,0.5684,0.5603,0.0,0.0,0.0,0.0,0.0,0.0,0.0,0.0,0.0,0.0,0.0,0.0,0.0,0.0,0.0,0.0,0.0,0.9822,0.9822,0.9822,0.9822,0.9822,0.9822,0.9822,0.9822,0.9822,0.9822,0.9822,0.9822,0.9822,0.9822,0.9822,0.9815,0.9703,0.0,0.9642,0.9838,1.0517,1.1553,1.1811,1.2434,1.3024,1.1894,1.1159,1.0731,0.9781,0.9303,0.9225,0.9381,0.9408,0.9381,0.9381,0.9381,0.9381,0.9381,0.9211,0.9059,0.9171,0.9093,0.8977,0.8947,0.894,0.894,0.894,0.894,0.894,0.894,0.8913,0.8862,0.8774,0.8604,0.8492,0.8526,0.8279,0.8133,0.8255,0.8136,0.8038,0.8038,0.8038,0.8038,0.8038,0.8038,0.8038,0.8038,0.8038,0.8038,0.8038,0.8038,0.8038,0.8038,0.8038,0.8038,0.8038,0.8038,0.8038,0.8038,0.8038,0.8038,-0.0,-0.0,-0.0,-0.0,-0.0,0.1099,0.5345,0.0,0.0,0.5917,0.5701,0.544,0.5566,0.5498,0.0,0.0,0.0,0.0,0.0,0.0,0.0,0.0,0.0,0.0,0.0,0.0,0.0,0.0,0.0,0.0,0.9822,0.9822,0.9822,0.9822,0.9822,0.9822,0.9822,0.9822,0.9822,0.9822,0.9822,0.9822,0.9822,0.9822,0.9822,0.9822,0.9805,0.0,0.0,1.1051,1.1769,1.2205,1.2956,1.274,1.185,1.1456,1.0498,0.9398,0.9442,0.9371,0.9384,0.954,0.9496,0.9381,0.9381,0.9381,0.9381,0.9381,0.9361,0.9344,0.9357,0.9249,0.91,0.8967,0.894,0.894,0.894,0.894,0.894,0.894,0.8825,0.8771,0.8896,0.8676,0.853,0.8669,0.8438,0.8255,0.8269,0.8136,0.8038,0.8038,0.8038,0.8038,0.8038,0.8038,0.8038,0.8038,0.8038,0.8038,0.8038,0.8038,0.8038,0.8038,0.8038,0.8038,0.8038,0.8038,0.8038,0.8038,0.8038,0.8038,0.091,-0.0,-0.0,-0.0,-0.0,0.0748,0.3685,0.0,0.5832,0.5944,0.5677,0.541,0.5562,0.5464,0.545,0.0,0.0,0.0,0.0,0.0,0.0,0.0,0.0,0.0,0.0,0.0,0.0,0.0,0.0,0.0,0.9822,0.9822,0.9822,0.9822,0.9822,0.9822,0.9822,0.9822,0.9822,0.9822,0.9822,0.9822,0.9822,0.9822,0.9774,0.9696,0.9785,0.0,0.0,1.0217,1.0524,1.0586,1.0958,1.0807,1.029,1.0219,0.9856,0.9313,0.9466,0.9459,0.9418,0.9659,0.9639,0.9534,0.9622,0.9588,0.9537,0.9622,0.9517,0.9401,0.9496,0.9337,0.9117,0.8974,0.894,0.894,0.894,0.894,0.894,0.894,0.8889,0.8866,0.8927,0.876,0.8672,0.8825,0.852,0.8299,0.8387,0.8187,0.8038,0.8038,0.8038,0.8038,0.8038,0.8038,0.8038,0.8038,0.8038,0.8038,0.8038,0.8038,0.8038,0.8038,0.8038,0.8038,0.8038,0.8038,0.8038,0.8038,0.8038,0.8038,0.2774,0.1478,0.1304,0.1174,0.1002,0.1453,0.0,0.0,0.5829,0.5879,0.5613,0.5463,0.5501,0.5433,0.5463,0.0,0.0,0.583,0.0,0.0,0.0,0.0,0.0,0.0,0.0,0.0,0.0,0.0,0.0,0.0,0.9822,0.9822,0.9822,0.9822,0.9822,0.9822,0.9822,0.9778,0.9758,0.9758,0.9758,0.9734,0.9693,0.9781,0.9981,1.0313,0.995,0.0,0.0,0.9794,0.9479,0.9374,0.9334,0.9313,0.932,0.9364,0.9381,0.9408,0.9605,0.9574,0.949,0.9741,0.9727,0.9635,0.9778,0.9724,0.9639,0.9781,0.9642,0.9452,0.9469,0.9313,0.9117,0.8974,0.894,0.894,0.894,0.894,0.894,0.894,0.894,0.894,0.894,0.8849,0.8815,0.8923,0.8591,0.837,0.8469,0.8225,0.8038,0.8038,0.8038,0.8038,0.8038,0.8038,0.8038,0.8038,0.8038,0.8038,0.8038,0.8038,0.8038,0.8038,0.8038,0.8038,0.8038,0.8038,0.8038,0.8038,0.8038,0.8038,0.5808,0.492,0.4323,0.4068,0.3504,0.3633,0.0,0.0,0.5676,0.5617,0.5471,0.5428,0.5428,0.5428,0.5428,0.5428,0.561,0.0,0.0,0.0,0.0,0.0,0.0,0.0,0.0,0.0,0.0,0.0,0.0,0.0,0.9822,0.9822,0.9822,0.9822,0.9822,0.9822,0.9822,0.9683,0.9612,0.9612,0.9612,0.9534,0.9395,0.9686,1.0568,1.1934,0.0,0.0,0.0,1.0135,0.9384,0.9364,0.9215,0.9154,0.9174,0.9323,0.9381,0.9422,0.9717,0.9727,0.9632,0.9774,0.9727,0.9635,0.9778,0.9724,0.9639,0.9781,0.9717,0.9537,0.9235,0.9154,0.9117,0.8974,0.894,0.894,0.894,0.894,0.894,0.894,0.894,0.894,0.894,0.8937,0.8937,0.894,0.8676,0.8479,0.8482,0.8225,0.8038,0.8038,0.8038,0.8038,0.8038,0.8038,0.8038,0.8038,0.8038,0.8038,0.8038,0.8038,0.8038,0.8038,0.8038,0.8038,0.8038,0.8038,0.8038,0.8038,0.8038,0.8038,0.6184,0.6051,0.5739,0.5858,0.5663,0.5591,0.5726,0.5631,0.5483,0.555,0.5467,0.5428,0.5428,0.5428,0.543,0.563,0.5739,0.0,0.0,0.0,0.0,0.0,0.0,0.0,0.0,0.0,0.0,0.0,0.0,0.0,0.9822,0.9822,0.9822,0.9822,0.9727,0.9676,0.9676,0.953,0.9452,0.9452,0.9452,0.9483,0.9537,0.9527,0.9724,0.0,0.0,0.9736,1.0082,0.9471,0.9225,0.9211,0.9062,0.9066,0.9147,0.9096,0.914,0.9239,0.9334,0.9337,0.932,0.9469,0.949,0.9462,0.9507,0.9629,0.9744,0.969,0.9646,0.954,0.9232,0.9154,0.9117,0.8974,0.894,0.894,0.894,0.894,0.894,0.894,0.894,0.894,0.894,0.894,0.894,0.894,0.8679,0.8482,0.8482,0.8225,0.8038,0.8038,0.8038,0.8038,0.8038,0.8038,0.8038,0.8038,0.8038,0.8038,0.8038,0.8038,0.8038,0.8038,0.8038,0.8038,0.8038,0.8038,0.8038,0.8038,0.8038,0.8038,0.0,0.6337,0.6441,0.6562,0.6532,0.0,0.0,0.5503,0.544,0.5504,0.543,0.5428,0.5428,0.5428,0.544,0.5681,0.5766,0.0,0.0,0.0,0.0,0.0,0.0,0.0,0.0,0.0,0.0,0.0,0.0,0.0,1.0688,1.0095,0.9717,0.9656,0.9625,0.9581,0.9523,0.9371,0.9296,0.9296,0.9296,0.9317,0.9357,0.9374,0.9694,0.0,0.9519,0.9581,0.0,0.9314,0.9072,0.9062,0.8974,0.8994,0.9066,0.9032,0.9076,0.9161,0.9218,0.9201,0.9178,0.9334,0.9381,0.9381,0.9381,0.951,0.9625,0.9479,0.9439,0.9381,0.9137,0.9072,0.9049,0.896,0.894,0.894,0.894,0.894,0.894,0.894,0.894,0.894,0.894,0.894,0.892,0.8862,0.8689,0.8526,0.8418,0.8241,0.8102,0.8045,0.8038,0.8038,0.8038,0.8038,0.8038,0.8038,0.8038,0.8038,0.8038,0.8038,0.8038,0.8038,0.8038,0.8038,0.8038,0.8038,0.8038,0.8038,0.8038,0.8038,0.0,0.0,0.0,0.0,0.0,0.0,0.0,0.5518,0.0,0.5394,0.5404,0.5415,0.5425,0.5435,0.5433,0.5596,0.0,0.0,0.0,0.0,0.0,0.0,0.0,0.0,0.0,0.0,0.0,0.0,0.0,0.0,1.1804,1.0406,0.9523,0.9371,0.9503,0.951,0.9367,0.9215,0.9137,0.9137,0.9137,0.9072,0.8964,0.9228,1.0071,0.0,0.9811,1.0029,1.1239,0.9539,0.894,0.894,0.894,0.894,0.8954,0.9089,0.9137,0.9157,0.93,0.9256,0.9161,0.9303,0.9351,0.9351,0.9351,0.9364,0.9351,0.9198,0.9154,0.912,0.8977,0.894,0.894,0.894,0.894,0.894,0.894,0.894,0.894,0.894,0.894,0.894,0.894,0.894,0.8893,0.8747,0.871,0.8598,0.8323,0.8269,0.8201,0.8055,0.8038,0.8038,0.8038,0.8038,0.8038,0.8038,0.8038,0.8038,0.8038,0.8038,0.8038,0.8038,0.8038,0.8038,0.8038,0.8038,0.8038,0.8038,0.8038,0.8038,0.4694,0.0,0.4985,0.4955,0.4945,0.4996,0.0,0.0,0.0,0.0,0.0,0.0,0.0,0.0,0.0,0.0,0.0,0.0,0.0,0.0,0.0,0.0,0.0,0.0,0.0,0.0,0.0,0.0,0.0,1.1193,1.0124,0.9665,0.9364,0.9211,0.9242,0.9242,0.9208,0.9062,0.8988,0.8988,0.8988,0.9028,0.91,0.9062,0.9304,0.9705,0.9147,0.921,0.9532,0.9061,0.894,0.894,0.894,0.894,0.8944,0.8977,0.8988,0.8994,0.9032,0.9018,0.8994,0.9032,0.9042,0.9042,0.9042,0.9201,0.9351,0.9198,0.9154,0.912,0.8977,0.894,0.894,0.894,0.894,0.894,0.894,0.894,0.894,0.894,0.894,0.894,0.894,0.894,0.8927,0.8893,0.8686,0.8509,0.8442,0.8235,0.8079,0.8041,0.8038,0.8038,0.8038,0.8038,0.8038,0.8038,0.8038,0.8038,0.8038,0.8038,0.8038,0.8038,0.8038,0.8038,0.8038,0.8038,0.8038,0.8038,0.8038,0.8038,0.5445,0.5226,0.4948,0.4948,0.502,0.5106,0.0,0.0,0.0,0.0,0.0,0.0,0.0,0.0,0.0,0.0,0.0,0.0,0.0,0.0,0.0,0.0,0.0,0.0,0.0,0.0,0.0,0.0,0.0,1.1959,1.041,1.0292,0.988,0.9059,0.9716,0.9716,0.9055,0.8977,0.894,0.894,0.894,0.8981,0.9052,0.8974,0.8981,0.9052,0.8974,0.894,0.894,0.894,0.894,0.894,0.894,0.894,0.894,0.894,0.894,0.894,0.894,0.894,0.894,0.894,0.894,0.894,0.894,0.9096,0.9259,0.9174,0.9106,0.9052,0.9042,0.8988,0.894,0.894,0.894,0.894,0.894,0.894,0.894,0.894,0.894,0.894,0.894,0.894,0.8913,0.8845,0.8754,0.8618,0.8411,0.8303,0.8191,0.8055,0.8038,0.8038,0.8038,0.8038,0.8038,0.8038,0.8038,0.8038,0.8038,0.8038,0.8038,0.8038,0.8038,0.8333,0.892,0.8333,0.8333,0.892,0.8333,0.8038,0.6588,0.6301,0.594,0.5719,0.5651,0.5694,0.0,0.0,0.0,0.0,0.0,0.0,0.0,0.0,0.0,0.0,0.0,0.0,0.0,0.0,0.0,0.0,0.0,0.0,0.0,0.0,0.0,0.0,0.0,1.3409,1.1899,1.1663,1.0921,0.9233,1.0445,1.0335,0.8903,0.8927,0.894,0.894,0.894,0.894,0.894,0.894,0.894,0.894,0.0,0.0,0.8937,0.8913,0.8916,0.8933,0.8889,0.8899,0.8937,0.8913,0.892,0.894,0.894,0.894,0.894,0.894,0.894,0.894,0.894,0.9025,0.9123,0.9147,0.9083,0.9028,0.9127,0.9062,0.8964,0.8944,0.894,0.894,0.894,0.894,0.894,0.894,0.894,0.894,0.894,0.894,0.8896,0.8764,0.8835,0.8757,0.8353,0.8387,0.8343,0.8069,0.8038,0.8038,0.8038,0.8038,0.8038,0.8038,0.8038,0.8038,0.8038,0.8038,0.8038,0.8038,0.8038,0.8528,0.9706,0.8528,0.8627,0.9706,0.8531,0.8038,0.6588,0.7365,0.7857,0.6733,0.6421,0.6431,0.0,0.0,0.0,0.0,0.0,0.0,0.0,0.0,0.0,0.0,0.0,0.0,0.0,0.0,0.0,0.0,0.0,0.0,0.0,0.0,0.0,0.0,0.0,1.4542,1.3103,1.2989,1.2243,1.0663,1.0916,1.0385,0.8747,0.8872,0.894,0.894,0.894,0.894,0.894,0.894,0.894,0.894,0.0,0.894,0.8927,0.8798,0.8821,0.8913,0.8655,0.871,0.8923,0.8794,0.8828,0.894,0.894,0.894,0.894,0.894,0.894,0.894,0.894,0.8954,0.8998,0.912,0.9228,0.9286,0.9181,0.9137,0.9089,0.8967,0.894,0.894,0.894,0.894,0.894,0.894,0.894,0.894,0.894,0.894,0.893,0.8906,0.8815,0.8672,0.8476,0.8364,0.8235,0.8058,0.8038,0.8038,0.8038,0.8038,0.8038,0.8038,0.8038,0.8038,0.8038,0.8038,0.8038,0.8038,0.8038,0.8137,0.8333,0.8137,0.8137,0.8333,0.8137,0.8038,0.7777,0.8227,0.8614,0.8123,0.7965,0.7844,0.0,0.0,0.0,0.0,0.0,0.0,0.0,0.0,0.0,0.0,0.0,0.0,0.0,0.0,0.0,0.0,0.0,0.0,0.0,0.0,0.0,0.0,0.0,0.0,1.3093,1.3082,1.2346,1.0678,1.0759,1.0174,0.871,0.8699,0.8774,0.894,0.894,0.894,0.894,0.894,0.8893,0.8815,0.0,0.8767,0.8686,0.8615,0.8628,0.8686,0.8628,0.8693,0.8808,0.8737,0.8808,0.8916,0.875,0.8801,0.8923,0.8842,0.8872,0.894,0.894,0.8991,0.9069,0.9133,0.9147,0.9144,0.915,0.9096,0.9022,0.8954,0.894,0.894,0.894,0.894,0.894,0.894,0.894,0.894,0.894,0.894,0.894,0.894,0.8808,0.8655,0.8503,0.836,0.8211,0.8055,0.8038,0.8038,0.8038,0.8038,0.8038,0.8038,0.8038,0.8038,0.8038,0.8038,0.8038,0.8038,0.8038,0.8333,0.9118,0.8333,0.8333,0.9019,0.8333,0.8038,0.8804,0.8911,0.9031,0.9064,0.0,0.0,0.9101,0.0,0.0,0.0,0.0,0.0,0.0,0.0,0.0,0.0,0.0,0.0,0.0,0.0,0.0,0.0,0.0,0.0,0.0,0.0,0.0,0.0,0.0,0.0,1.3388,1.3372,1.2536,1.0488,1.0621,1.0076,0.8608,0.8523,0.8618,0.8882,0.8849,0.8832,0.8832,0.8832,0.8767,0.8659,0.8659,0.8591,0.8479,0.8445,0.8452,0.8486,0.8533,0.8574,0.8611,0.8645,0.873,0.8798,0.8564,0.8659,0.8866,0.875,0.8815,0.894,0.894,0.9015,0.9103,0.9103,0.9025,0.8974,0.9117,0.9069,0.8981,0.8947,0.894,0.894,0.894,0.894,0.894,0.894,0.894,0.894,0.894,0.894,0.894,0.894,0.8808,0.8655,0.8503,0.836,0.8211,0.8055,0.8038,0.8038,0.8038,0.8038,0.8038,0.8038,0.8038,0.8038,0.8038,0.8038,0.8038,0.8038,0.8038,0.8528,0.9509,0.8528,0.8531,0.9509,0.8432,0.8038,0.8804,0.9205,0.9492,0.8965,0.0,0.0,1.0524,0.0,0.0,0.0,0.0,0.0,0.0,0.0,0.0,0.0,0.0,0.0,0.0,0.0,0.0,0.0,0.0,0.0,0.0,0.0,0.0,0.0,0.0,0.0,1.4773,1.4671,1.3335,1.05,1.0553,0.9959,0.8303,0.8421,0.8564,0.8723,0.8581,0.8516,0.8516,0.8516,0.8509,0.8499,0.8499,0.8492,0.8472,0.834,0.8364,0.8455,0.8191,0.8177,0.8319,0.8452,0.8506,0.8513,0.8489,0.8587,0.8723,0.8713,0.8815,0.894,0.894,0.8947,0.8954,0.8954,0.8947,0.8974,0.9117,0.9147,0.9103,0.8971,0.894,0.894,0.894,0.894,0.894,0.894,0.894,0.894,0.894,0.894,0.894,0.894,0.8808,0.8655,0.8503,0.836,0.8211,0.8055,0.8038,0.8038,0.8038,0.8038,0.8038,0.8038,0.8038,0.8038,0.8038,0.8038,0.8038,0.8038,0.8038,0.8038,0.8137,0.8038,0.8038,0.8137,0.8038,0.8038,0.8804,0.9098,0.9352,0.9132,0.0,0.0,0.0,0.0,0.0,0.0,0.0,0.0,0.0,0.0,0.0,0.0,0.0,0.0,0.0,0.0,0.0,0.0,0.0,0.0,0.0,0.0,0.0,0.0,0.0,0.0,1.4512,1.2994,1.1491,1.0207,0.9373,0.8827,0.8272,0.8228,0.8282,0.8438,0.8469,0.8482,0.8482,0.8482,0.8435,0.835,0.835,0.8296,0.8201,0.815,0.8157,0.8204,0.8187,0.8272,0.8397,0.8364,0.8408,0.8455,0.8272,0.8364,0.8567,0.8567,0.8672,0.8815,0.891,0.894,0.894,0.894,0.894,0.895,0.9005,0.9018,0.9008,0.895,0.894,0.8913,0.8818,0.8872,0.891,0.8815,0.8872,0.894,0.894,0.894,0.894,0.894,0.8808,0.8655,0.8503,0.836,0.8211,0.8055,0.8038,0.8038,0.8038,0.8038,0.8038,0.8038,0.8038,0.8038,0.8038,0.8038,0.8038,0.8038,0.8038,0.8038,0.8038,0.8038,0.8038,0.8038,0.8038,0.8038,0.8804,0.8951,0.907,0.0,0.0,0.0,0.0,0.0,0.0,0.0,0.0,0.0,0.0,0.0,0.0,0.0,0.0,0.0,0.0,0.0,0.0,0.0,0.0,0.0,0.0,0.0,0.0,0.0,0.0,0.0,0.0,1.1274,1.0029,0.9414,0.8432,0.8092,0.8197,0.8092,0.8092,0.8201,0.8296,0.8343,0.8343,0.8343,0.8289,0.8197,0.8197,0.8136,0.8038,0.8038,0.8038,0.8052,0.8157,0.8258,0.833,0.8231,0.8258,0.8313,0.8109,0.8204,0.8414,0.8414,0.8516,0.8665,0.8821,0.8866,0.8876,0.8923,0.894,0.8927,0.8879,0.8903,0.8927,0.8876,0.8866,0.8825,0.8672,0.8757,0.8835,0.873,0.8832,0.894,0.894,0.894,0.8923,0.8872,0.8737,0.8584,0.8435,0.8289,0.8157,0.8052,0.8038,0.8038,0.8038,0.8038,0.8038,0.8038,0.8038,0.8038,0.8038,0.8038,0.8038,0.8038,0.8038,0.8038,0.8038,0.8038,0.8038,0.8038,0.8038,0.8038,0.8804,0.8811,0.0,0.0,0.0,0.0,0.0,0.0,0.0,0.0,0.0,0.0,0.0,0.0,0.0,0.0,0.0,0.0,0.0,0.0,0.0,0.0,0.0,0.0,0.0,0.0,0.0,0.0,0.0,0.0,0.0,0.9998,0.941,0.8038,0.8038,0.8038,0.8038,0.8038,0.8038,0.8038,0.8038,0.8038,0.8038,0.8038,0.8038,0.8038,0.8038,0.8038,0.8038,0.8038,0.8038,0.8038,0.8038,0.8038,0.8038,0.8038,0.8038,0.8038,0.8038,0.814,0.8269,0.8272,0.8367,0.8509,0.8662,0.871,0.874,0.8893,0.8933,0.8899,0.875,0.8821,0.8896,0.8743,0.871,0.8669,0.8516,0.8601,0.871,0.871,0.8832,0.8937,0.894,0.8937,0.8882,0.8733,0.8581,0.8431,0.8289,0.8136,0.8038,0.8038,0.8038,0.8038,0.8038,0.8038,0.8038,0.8038,0.8038,0.8038,0.8038,0.8038,0.8038,0.8038,0.8038,0.8038,0.8038,0.8038,0.8038,0.8038,0.8038,0.8038,0.8804,0.8958,0.0,0.0,0.0,0.0,0.0,0.0,0.0,0.0,0.0,0.0,0.0,0.0,0.0,0.0,0.0,0.0,0.0,0.0,0.0,0.0,0.0,0.0,0.0,0.0,0.0,0.0,0.0,0.0,0.0,0.9118,0.8432,0.8038,0.8038,0.8038,0.8038,0.8038,0.8038,0.8038,0.8038,0.8038,0.8038,0.8038,0.8038,0.8038,0.8038,0.8038,0.8038,0.8038,0.8038,0.8038,0.8038,0.8038,0.8038,0.8038,0.8038,0.8038,0.8038,0.8069,0.8126,0.8235,0.8299,0.836,0.8506,0.855,0.8581,0.8733,0.8699,0.8632,0.8696,0.8665,0.8608,0.856,0.8632,0.8669,0.8516,0.8516,0.8581,0.8689,0.8747,0.8811,0.892,0.8849,0.8764,0.8716,0.8581,0.8431,0.8289,0.8136,0.8038,0.8038,0.8038,0.8038,0.8038,0.8038,0.8038,0.8038,0.8038,0.8038,0.8038,0.8038,0.8038,0.8038,0.8038,0.8038,0.8038,0.8038,0.8038,0.8038,0.8038,0.8038,0.8804,0.0,0.0,0.0,0.0,0.0,0.0,0.0,0.0,0.0,0.0,0.0,0.0,0.0,0.0,0.0,0.0,0.0,0.0,0.0,0.0,0.0,0.0,0.0,0.0,0.0,0.0,0.0,0.0,0.0,0.9213,0.8371,0.7977,0.8038,0.8038,0.8038,0.8038,0.8038,0.8038,0.8038,0.8038,0.8038,0.8038,0.8038,0.8038,0.8038,0.8038,0.8038,0.8038,0.8038,0.8038,0.8038,0.8038,0.8038,0.8038,0.8038,0.8038,0.8038,0.8038,0.8038,0.8055,0.8147,0.8177,0.8208,0.8353,0.8397,0.8428,0.8577,0.8554,0.8489,0.8526,0.8509,0.8469,0.8411,0.8469,0.8492,0.834,0.8397,0.8509,0.8601,0.8669,0.874,0.8832,0.872,0.8601,0.8543,0.8404,0.8275,0.8191,0.8096,0.8038,0.8038,0.8038,0.8038,0.8038,0.8038,0.8038,0.8038,0.8038,0.8038,0.8038,0.8038,0.8038,0.8038,0.8038,0.8038,0.8038,0.8038,0.8038,0.8038,0.8038,0.8038,0.0,0.0,0.0,0.0,0.0,0.0,0.0,0.0,0.0,0.0,0.0,0.0,0.0,0.0,0.0,0.0,0.0,0.0,0.0,0.0,0.0,0.0,0.0,0.0,0.0,0.0,0.0,0.0,0.0,0.7851,0.7991,0.7868,0.7855,0.7994,0.7997,0.8007,0.8018,0.8007,0.8007,0.8018,0.8007,0.7997,0.8001,0.8028,0.8038,0.8038,0.8038,0.8038,0.8038,0.8038,0.8038,0.8038,0.8038,0.8038,0.8038,0.8038,0.8038,0.8038,0.8038,0.8038,0.8038,0.8038,0.8038,0.8065,0.8208,0.8248,0.8279,0.8421,0.8452,0.8414,0.8299,0.8353,0.8411,0.8282,0.8258,0.8231,0.8092,0.8262,0.8448,0.8476,0.8584,0.8676,0.8686,0.8564,0.8414,0.8272,0.813,0.8038,0.8038,0.8038,0.8038,0.8038,0.8038,0.8038,0.8038,0.8038,0.8038,0.8038,0.8038,0.8038,0.8038,0.8038,0.8038,0.8038,0.8038,0.8038,0.8038,0.8038,0.8038,0.8038,0.8038,0.8038,0.0,0.0,0.0,0.0,0.0,0.0,0.0,0.0,0.0,0.0,0.0,0.0,0.0,0.0,0.0,0.0,0.0,0.0,0.0,0.0,0.0,0.0,0.0,0.0,0.0,0.0,0.0,0.0,0.7851,0.7658,0.7692,0.7662,0.7658,0.7692,0.7695,0.7746,0.7858,0.775,0.775,0.7858,0.7746,0.7695,0.7702,0.7933,0.8038,0.8038,0.8038,0.8038,0.8038,0.8038,0.8038,0.8038,0.8038,0.8038,0.8038,0.8038,0.8038,0.8038,0.8038,0.8038,0.8038,0.8038,0.8038,0.8045,0.8079,0.8089,0.8119,0.8275,0.8228,0.8157,0.8248,0.8204,0.8126,0.8096,0.818,0.8262,0.8228,0.8177,0.8204,0.8435,0.8418,0.8401,0.8513,0.8411,0.8265,0.8113,0.8062,0.8038,0.8038,0.8038,0.8038,0.8038,0.8038,0.8038,0.8038,0.8038,0.8038,0.8038,0.8038,0.8038,0.8038,0.8038,0.8038,0.8038,0.8038,0.8038,0.8038,0.8038,0.8038,0.8038,0.8038,0.8038,0.0,0.0,0.0,0.0,0.0,0.0,0.0,0.0,0.0,0.0,0.0,0.0,0.0,0.0,0.0,0.0,0.0,0.0,0.0,0.0,0.0,0.0,0.0,0.0,0.0,0.0,0.0,0.7691,0.7465,0.7444,0.7594,0.7461,0.7448,0.7594,0.76,0.7634,0.7709,0.7638,0.7638,0.7709,0.7634,0.76,0.7604,0.7756,0.7828,0.7828,0.7828,0.7828,0.7828,0.7828,0.7828,0.7828,0.7828,0.7828,0.7838,0.7906,0.7929,0.794,0.8014,0.8038,0.8038,0.8038,0.8038,0.8038,0.8038,0.8038,0.8055,0.8136,0.8102,0.8058,0.814,0.8099,0.8038,0.8038,0.8102,0.816,0.816,0.8153,0.8194,0.835,0.8323,0.8292,0.8367,0.8258,0.8133,0.8052,0.8038,0.8038,0.8038,0.8038,0.8038,0.8038,0.8038,0.8038,0.8038,0.8038,0.8038,0.8038,0.8038,0.8038,0.8038,0.8038,0.8038,0.8038,0.8038,0.8038,0.8038,0.8038,0.8038,0.8038,0.8038,0.8038,0.0,0.0,0.0,0.0,0.0,0.0,0.0,0.0,0.0,0.0,0.0,0.0,0.0,0.0,0.0,0.0,0.0,0.0,0.0,0.0,0.0,0.0,0.0,0.0,0.0,0.0,0.7444,0.7444,0.7207,0.7177,0.7431,0.7204,0.718,0.7434,0.7444,0.7458,0.7482,0.7458,0.7468,0.7519,0.7495,0.7472,0.7444,0.7472,0.7526,0.76,0.76,0.76,0.76,0.76,0.76,0.76,0.76,0.7614,0.7651,0.7767,0.7828,0.7868,0.7994,0.8038,0.8038,0.8038,0.8038,0.8038,0.8038,0.8038,0.8038,0.8038,0.8038,0.8038,0.8038,0.8038,0.8038,0.8038,0.8038,0.8038,0.8038,0.814,0.8231,0.8231,0.8231,0.8231,0.8231,0.8126,0.8038,0.8038,0.8038,0.8038,0.8038,0.8038,0.8038,0.8038,0.8038,0.8038,0.8038,0.8038,0.8038,0.8038,0.8038,0.8038,0.8038,0.8038,0.8038,0.8038,0.8038,0.8038,0.8038,0.8038,0.8038,0.8038,0.8038,0.8038,0.0,0.0,0.0,0.0,0.0,0.0,0.0,0.0,0.0,0.0,0.0,0.0,0.0,0.0,0.0,0.0,0.0,0.0,0.0,0.0,0.0,0.0,0.0,0.0,0.0,0.0,0.682,0.682,0.6783,0.6776,0.6817,0.678,0.6776,0.6817,0.682,0.6885,0.7017,0.6888,0.6949,0.72,0.7078,0.6949,0.6827,0.6956,0.7231,0.76,0.76,0.76,0.76,0.76,0.76,0.76,0.76,0.7675,0.7784,0.7804,0.7896,0.8011,0.8031,0.8038,0.8038,0.8038,0.8038,0.8038,0.8038,0.8038,0.8038,0.8038,0.8038,0.8038,0.8038,0.8038,0.8038,0.8038,0.8038,0.8038,0.8038,0.8055,0.8069,0.8069,0.8069,0.8069,0.8069,0.8055,0.8038,0.8038,0.8038,0.8038,0.8038,0.8038,0.8038,0.8038,0.8038,0.8038,0.8038,0.8038,0.8038,0.8038,0.8038,0.8038,0.8038,0.8038,0.8038,0.8038,0.8038,0.8038,0.8038,0.8038,0.8038,0.8038,0.8038,0.8038,0.0,0.0,0.0,0.0,0.0,0.0,0.0,0.0,0.0,0.0,0.0,0.0,0.0,0.0,0.0,0.0,0.0,0.0,0.0,0.0,0.0,0.0,0.0,0.0,0.0,0.6702,0.6702,0.6702,0.662,0.661,0.6695,0.662,0.6614,0.6698,0.6702,0.6732,0.68,0.6732,0.6766,0.6892,0.6831,0.6766,0.6702,0.677,0.6956,0.7227,0.7309,0.7343,0.7343,0.7343,0.7343,0.7343,0.7343,0.738,0.7455,0.7631,0.7736,0.7818,0.798,0.8038,0.8038,0.8038,0.8038,0.8038,0.8038,0.8038,0.8038,0.8038,0.8038,0.8038,0.8038,0.8038,0.8038,0.8038,0.8038,0.8038,0.8038,0.8038,0.8038,0.8038,0.8038,0.8038,0.8038,0.8038,0.8038,0.8038,0.8038,0.8038,0.8038,0.8038,0.8038,0.8038,0.8038,0.8038,0.8038,0.8038,0.8038,0.8038,0.8038,0.8038,0.8038,0.8038,0.8038,0.8038,0.8038,0.8038,0.8038,0.8038,0.8038,0.8038,0.8038,0.8038,0.0,0.0,0.0,0.0,0.0,0.0,0.0,0.0,0.0,0.0,0.0,0.0,0.0,0.0,0.0,0.0,0.0,0.0,0.0,0.0,0.0,0.0,0.0,0.0,0.0,0.6471,0.6471,0.6471,0.6403,0.641,0.6529,0.6464,0.6478,0.6593,0.6593,0.6573,0.6536,0.6569,0.6586,0.659,0.6624,0.6603,0.6532,0.661,0.6685,0.677,0.699,0.7105,0.7139,0.7139,0.7139,0.7139,0.7139,0.7166,0.7227,0.7458,0.7567,0.7638,0.7892,0.798,0.7987,0.8028,0.8038,0.8038,0.8038,0.8038,0.8038,0.8038,0.8038,0.8038,0.8038,0.8038,0.8038,0.8038,0.8038,0.8038,0.8038,0.8038,0.8038,0.8038,0.8038,0.8038,0.8038,0.8038,0.8038,0.8038,0.8038,0.8038,0.8038,0.8038,0.8038,0.8038,0.8038,0.8038,0.8038,0.8038,0.8038,0.8038,0.8038,0.8038,0.8038,0.8038,0.8038,0.8038,0.8038,0.8038,0.8038,0.8038,0.8038,0.8038,0.8038,0.8038,0.0,0.0,0.0,0.0,0.0,0.0,0.0,0.0,0.0,0.0,0.0,0.0,0.0,0.0,0.0,0.0,0.0,0.0,0.0,0.0,0.0,0.0,0.0,0.0,0.5847,0.5847,0.5847,0.5847,0.5976,0.6061,0.6006,0.6213,0.6298,0.6315,0.6305,0.623,0.6006,0.6217,0.6285,0.6285,0.642,0.6339,0.6074,0.6356,0.6417,0.6318,0.6753,0.7017,0.7139,0.7139,0.7139,0.7139,0.7139,0.7227,0.736,0.7377,0.7475,0.7621,0.777,0.7824,0.7845,0.7991,0.8038,0.8038,0.8038,0.8038,0.8038,0.8038,0.8038,0.8038,0.8038,0.8038,0.8038,0.8038,0.8038,0.8038,0.8038,0.8038,0.8038,0.8038,0.8038,0.8038,0.8038,0.8038,0.8038,0.8038,0.8038,0.8038,0.8038,0.8038,0.8038,0.8038,0.8038,0.8038,0.8038,0.8038,0.8038,0.8038,0.8038,0.8038,0.8038,0.8038,0.8038,0.8038,0.8038,0.8038,0.8038,0.8038,0.8038,0.8038,0.8038,0.8038,0.0,0.0,0.0,0.0,0.0,0.0,0.0,0.0,0.0,0.0,0.0,0.0,0.0,0.0,0.0,0.0,0.0,0.0,0.0,0.0,0.0,0.0,0.0,0.0,0.58,0.58,0.58,0.58,0.5933,0.5971,0.5974,0.4907,0.4259,0.4261,0.4551,0.512,0.5888,0.5942,0.5966,0.5966,0.6017,0.6037,0.603,0.6037,0.6173,0.64,0.6471,0.6637,0.6865,0.6963,0.7004,0.7014,0.7105,0.7173,0.7234,0.7333,0.7407,0.7475,0.7624,0.7675,0.7699,0.7845,0.7892,0.7892,0.7892,0.7963,0.8018,0.7919,0.7963,0.8038,0.8038,0.8038,0.8038,0.8038,0.8038,0.8038,0.8038,0.8038,0.8038,0.8038,0.8038,0.8038,0.8038,0.8038,0.8038,0.8038,0.8038,0.8038,0.8038,0.8038,0.8038,0.8038,0.8038,0.8038,0.8038,0.8038,0.8038,0.8038,0.8038,0.8038,0.8038,0.8038,0.8038,0.8038,0.8038,0.8038,0.8038,0.8038,0.8038,0.8038,0.8038,0.8038,0.0,0.0,0.0,0.0,0.0,0.0,0.0,0.0,0.0,0.0,0.0,0.0,0.0,0.0,0.0,0.0,0.0,0.0,0.0,0.0,0.0,0.0,0.0,0.5576,0.5576,0.5627,0.5657,0.5657,0.5718,0.0,0.583,0.479,0.3785,0.2978,0.3887,0.4819,0.58,0.5759,0.5834,0.5882,0.5817,0.5844,0.5967,0.5964,0.5993,0.6106,0.6237,0.6427,0.6709,0.681,0.6881,0.6939,0.7034,0.7099,0.7153,0.7255,0.7292,0.7316,0.7468,0.7556,0.7624,0.7767,0.7845,0.7889,0.7889,0.7923,0.795,0.7902,0.7923,0.7974,0.8024,0.8038,0.8038,0.8038,0.8038,0.8038,0.8038,0.8038,0.8038,0.8038,0.8038,0.8038,0.8038,0.8038,0.8038,0.8038,0.8038,0.8038,0.8038,0.8038,0.8038,0.8038,0.8038,0.8038,0.8038,0.8038,0.8038,0.8038,0.8038,0.8038,0.8038,0.8038,0.8038,0.8038,0.8038,0.8038,0.8038,0.8038,0.8038,0.8038,0.8038,0.8038,0.0,0.0,0.0,0.0,0.0,0.0,0.0,0.0,0.0,0.0,0.0,0.0,0.0,0.0,0.0,0.0,0.0,0.0,0.0,0.0,0.0,0.0,0.0,0.5125,0.5125,0.527,0.5365,0.5299,0.5378,0.5401,0.5414,0.5847,0.511,0.2825,0.4469,0.5527,0.5786,0.5734,0.5814,0.5957,0.5827,0.5691,0.5706,0.6061,0.5957,0.5431,0.6067,0.642,0.6688,0.6692,0.6783,0.6922,0.6926,0.7014,0.7139,0.7139,0.7139,0.7163,0.7312,0.7465,0.7614,0.7756,0.7909,0.8031,0.8031,0.7929,0.7841,0.7991,0.7926,0.7845,0.7997,0.8038,0.8038,0.8038,0.8038,0.8038,0.8038,0.8038,0.8038,0.8038,0.8038,0.8038,0.8038,0.8038,0.8038,0.8038,0.8038,0.8038,0.8038,0.8038,0.8038,0.8038,0.8038,0.8038,0.8038,0.8038,0.8038,0.8038,0.8038,0.8038,0.8038,0.8038,0.8038,0.8038,0.8038,0.8038,0.8038,0.8038,0.8038,0.8038,0.8038,0.8038,0.8611,0.0,0.0,0.0,0.0,0.0,0.0,0.0,0.0,0.0,0.0,0.0,0.0,0.0,0.0,0.0,0.0,0.0,0.0,0.0,0.0,0.0,0.5023,0.5116,0.5116,0.5296,0.4876,0.0,0.4693,0.5387,0.5391,0.3059,0.2615,0.46,0.5129,0.5464,0.5484,0.5525,0.5531,0.5569,0.4188,0.3591,0.3565,0.4255,0.5138,0.6082,0.6044,0.6203,0.639,0.6491,0.6624,0.6773,0.6885,0.7014,0.7139,0.7139,0.7139,0.7146,0.719,0.7305,0.7458,0.7607,0.7756,0.7875,0.7875,0.7845,0.7821,0.7862,0.7845,0.7845,0.7997,0.8038,0.8038,0.8038,0.8038,0.8038,0.8038,0.8038,0.8038,0.8038,0.8038,0.8038,0.8038,0.8038,0.8038,0.8038,0.8038,0.8038,0.8038,0.8038,0.8038,0.8038,0.8038,0.8038,0.8038,0.8038,0.8038,0.8038,0.8038,0.8038,0.8038,0.8038,0.8038,0.8038,0.8038,0.8038,0.8038,0.8038,0.8038,0.8038,0.8038,0.8038,0.0,0.0,0.0,0.0,0.0,0.0,0.5924,0.5896,0.5743,0.0,0.0,0.0,0.0,0.0,0.0,0.0,0.0,0.0,0.0,0.0,0.0,0.0,0.4858,0.466,0.3988,0.4793,0.4962,0.3894,0.3393,0.3177,0.3177,0.2582,0.2536,0.3105,0.4619,0.541,0.5389,0.5401,0.5373,0.5373,0.2804,0.1557,0.1581,0.2846,0.438,0.6083,0.6033,0.6044,0.6084,0.6298,0.6471,0.662,0.6773,0.6922,0.7058,0.7119,0.7139,0.7139,0.7139,0.7241,0.7387,0.7475,0.7604,0.7733,0.7794,0.777,0.775,0.7872,0.7906,0.7926,0.8018,0.8038,0.8038,0.8038,0.8038,0.8038,0.8038,0.8038,0.8038,0.8038,0.8038,0.8038,0.8038,0.8038,0.8038,0.8038,0.8038,0.8038,0.8038,0.8038,0.8038,0.8038,0.8038,0.8038,0.8038,0.8038,0.8038,0.8038,0.8038,0.8038,0.8038,0.8038,0.8038,0.8038,0.8038,0.8038,0.8038,0.8038,0.8038,0.8038,0.8038,0.8038,0.0,0.0,0.0,0.0,0.0,0.0,0.5039,0.5039,0.5027,0.4627,0.0,0.0,0.0,0.0,0.0,0.0,0.0,0.0,0.0,0.0,0.0,0.0,0.4659,0.4152,0.2625,0.3854,0.4796,0.4796,0.1839,-0.0,-0.0,0.3036,0.3409,0.0369,0.3213,0.4904,0.5081,0.5311,0.5399,0.5338,0.1728,0.0202,0.0674,0.2071,0.3863,0.5791,0.5909,0.5928,0.5823,0.6115,0.6329,0.6488,0.6641,0.6793,0.6946,0.7088,0.7139,0.7139,0.7139,0.7241,0.737,0.737,0.7475,0.7624,0.775,0.7689,0.7634,0.7913,0.8014,0.8038,0.8038,0.8038,0.8038,0.8038,0.8038,0.8038,0.8038,0.8038,0.8038,0.8038,0.8038,0.8038,0.8038,0.8038,0.8038,0.8038,0.8038,0.8038,0.8038,0.8024,0.8014,0.8014,0.8014,0.8014,0.8014,0.8028,0.8038,0.8038,0.8038,0.8038,0.8038,0.8038,0.8038,0.8038,0.8038,0.8038,0.8038,0.8038,0.8038,0.8038,0.8137,0.8233,0.0,0.0,0.0,0.0,0.0,0.0,0.5349,0.5397,0.535,0.0,0.0,0.0,0.0,0.0,0.0,0.0,0.0,0.0,0.0,0.0,0.0,0.0,0.4528,0.4435,0.4091,0.2222,0.1029,0.1029,0.041,-0.0,-0.0,0.0679,0.1419,0.2151,0.1415,0.1723,0.3202,0.4646,0.5382,0.5338,0.1723,0.1544,0.4325,0.3178,0.3832,0.5721,0.5837,0.583,0.5817,0.6,0.623,0.6488,0.6641,0.6793,0.6946,0.7088,0.7139,0.7139,0.7139,0.7241,0.737,0.737,0.7475,0.7604,0.7634,0.7536,0.7455,0.7634,0.7855,0.8038,0.8038,0.8038,0.8038,0.8038,0.8038,0.8038,0.8038,0.8038,0.8038,0.8038,0.8038,0.8038,0.8038,0.8038,0.8038,0.8038,0.8038,0.8038,0.8038,0.7933,0.7855,0.7855,0.7855,0.7855,0.7855,0.797,0.8038,0.8038,0.8038,0.8038,0.8038,0.8038,0.8038,0.8038,0.8038,0.8038,0.8038,0.8038,0.8038,0.8038,0.9118,0.9608,0.0,0.0,0.0,0.4221,0.0,0.0,0.0,0.4887,0.4944,0.4854,0.4574,0.0,0.0,0.0,0.0,0.0,0.0,0.0,0.0,0.0,0.0,0.0,0.4511,0.3884,0.2413,0.0897,-0.0,-0.0,-0.0,-0.0,-0.0,-0.0,0.0412,0.1351,0.047,0.0415,0.1323,0.4047,0.5269,0.4895,0.1578,0.0932,0.2768,0.3657,0.4597,0.5579,0.564,0.5694,0.5708,0.5854,0.6047,0.6274,0.6498,0.6634,0.6719,0.6865,0.697,0.7034,0.7034,0.7132,0.7255,0.7255,0.7309,0.7383,0.7461,0.7485,0.7502,0.758,0.7706,0.7821,0.7821,0.7821,0.7821,0.7821,0.7821,0.7821,0.7821,0.7821,0.7841,0.7913,0.7868,0.7868,0.8014,0.8038,0.8014,0.7936,0.7926,0.7899,0.7828,0.7814,0.7811,0.7811,0.7879,0.7926,0.7926,0.7994,0.8038,0.8038,0.8038,0.8038,0.8038,0.8038,0.8038,0.8038,0.8038,0.8038,0.8038,0.8038,0.8038,0.8038,0.9414,0.9998,0.0,0.0,0.0,0.0,0.0,0.3009,0.0,0.0,0.0,0.4082,0.0,0.0,0.0,0.0,0.0,0.0,0.0,0.0,0.0,0.0,0.0,0.0,0.3644,0.2695,0.0224,-0.0,-0.0,-0.0,-0.0,-0.0,-0.0,-0.0,-0.0,-0.0,-0.0,-0.0,-0.0,0.3197,0.4677,0.4491,0.2061,0.098,0.1093,0.3692,0.509,0.5393,0.5501,0.5545,0.5555,0.5701,0.5833,0.5976,0.6305,0.6447,0.6491,0.6644,0.678,0.6885,0.6885,0.6959,0.7054,0.7054,0.7075,0.7129,0.7282,0.7434,0.7556,0.7556,0.7577,0.76,0.76,0.76,0.76,0.76,0.76,0.76,0.76,0.76,0.7634,0.7746,0.7678,0.7685,0.795,0.7974,0.7913,0.7787,0.777,0.7729,0.7614,0.7675,0.7726,0.7726,0.7838,0.7913,0.7913,0.7936,0.7967,0.7994,0.7994,0.8007,0.8038,0.8038,0.8038,0.8038,0.8038,0.8038,0.8038,0.8038,0.8038,0.8038,0.9414,0.9998,0.0,0.0,0.0,0.0,0.0424,0.0,0.0,0.0,0.2456,0.2454,0.0,0.0,0.0,0.0,0.0,0.0,0.0,0.0,0.0,0.0,0.0,0.048,0.0495,0.0392,0.0056,-0.0,-0.0,-0.0,-0.0,-0.0,-0.0,-0.0,-0.0,-0.0,-0.0,-0.0,-0.0,0.1684,0.3196,0.4526,0.4366,0.4415,0.4501,0.3478,0.3858,0.5432,0.5449,0.5456,0.5466,0.5552,0.5623,0.5684,0.6115,0.6363,0.6491,0.6644,0.6712,0.6725,0.6725,0.6736,0.6749,0.6749,0.6844,0.698,0.7122,0.7275,0.7397,0.7397,0.7495,0.76,0.76,0.76,0.76,0.76,0.76,0.76,0.76,0.76,0.7604,0.7621,0.7611,0.7651,0.7811,0.7733,0.7645,0.7628,0.7624,0.7617,0.76,0.7495,0.7421,0.7421,0.7438,0.7448,0.7448,0.757,0.7702,0.7828,0.7838,0.7896,0.8035,0.8038,0.8038,0.8038,0.8038,0.8038,0.8038,0.8038,0.8038,0.8038,0.9414,0.9998,0.0,0.0,0.0,0.0,0.0,0.0,0.066,0.0,0.095,0.0,0.0,0.0,0.0,0.0,0.0,0.0,0.3876,0.0,0.0,0.0,0.0,0.0,0.0,0.0,-0.0,-0.0,-0.0,-0.0,-0.0,-0.0,-0.0,-0.0,-0.0,-0.0,-0.0,-0.0,-0.0,0.1457,0.2995,0.4494,0.4836,0.4668,0.4074,0.4218,0.471,0.5372,0.5432,0.5428,0.5432,0.543,0.5508,0.561,0.58,0.6013,0.6234,0.639,0.6495,0.6569,0.6569,0.6627,0.6715,0.6803,0.6875,0.6956,0.7099,0.7187,0.7238,0.7238,0.7285,0.7333,0.7333,0.7333,0.7333,0.7333,0.7333,0.7333,0.7333,0.7333,0.736,0.7451,0.7394,0.738,0.7529,0.758,0.757,0.7482,0.7468,0.7434,0.7346,0.7356,0.737,0.737,0.7451,0.7502,0.7502,0.7563,0.7624,0.7685,0.7767,0.7879,0.8031,0.8038,0.8038,0.8038,0.8038,0.8038,0.8038,0.8038,0.8038,0.8038,0.9414,0.9998,-0.0,0.0,0.0,0.0,0.0,0.0,0.0,0.0,0.0,0.0,0.0,0.0,0.0,0.0,0.0,0.0,0.0,0.2713,0.0,0.0,0.0,0.0,0.0,0.0,0.0,0.0218,-0.0,-0.0,-0.0,-0.0,-0.0,-0.0,-0.0,-0.0,-0.0,-0.0,-0.0,0.1447,0.2954,0.4487,0.4807,0.4491,0.3703,0.481,0.5343,0.5315,0.5348,0.5428,0.5428,0.5428,0.5426,0.5532,0.5576,0.5745,0.5986,0.6139,0.6288,0.6413,0.6413,0.6488,0.6607,0.6756,0.6803,0.6831,0.6976,0.7048,0.7082,0.7082,0.7109,0.7139,0.7139,0.7139,0.7139,0.7139,0.7139,0.7139,0.7139,0.7139,0.7173,0.7285,0.7217,0.7177,0.7288,0.74,0.7434,0.7326,0.7309,0.7268,0.7153,0.7238,0.7309,0.7309,0.7407,0.7475,0.7475,0.7475,0.7492,0.7536,0.7709,0.7862,0.7974,0.8018,0.8038,0.8038,0.8038,0.8038,0.8038,0.8038,0.8038,0.8038,0.9019,0.941,0.0,0.0,0.0,-0.0,0.0,0.0,0.0,0.0,-0.0,0.0,0.0,0.0,0.0,0.0,0.0,0.0,0.0,0.0,0.0,0.0,0.0,0.0,0.0,0.0,0.0,0.0707,-0.0,-0.0,-0.0,-0.0,-0.0,-0.0,-0.0,-0.0,-0.0,-0.0,-0.0,0.1454,0.2965,0.4504,0.4501,0.4572,0.4646,0.4998,0.5085,0.5145,0.5294,0.5428,0.5428,0.5428,0.5432,0.5452,0.5532,0.5681,0.5827,0.5979,0.6135,0.6268,0.6268,0.6271,0.6298,0.6441,0.6485,0.6515,0.6668,0.6817,0.6936,0.6936,0.7034,0.7139,0.7139,0.7139,0.7139,0.7139,0.7139,0.7139,0.7139,0.7139,0.7143,0.7146,0.7143,0.7143,0.7146,0.7149,0.7153,0.7149,0.7146,0.7146,0.7139,0.7143,0.7146,0.7146,0.7153,0.7153,0.7153,0.7153,0.7217,0.737,0.7651,0.7814,0.7818,0.796,0.8038,0.8038,0.8038,0.8038,0.8038,0.8038,0.8038,0.8038,0.8038,0.8038,0.0,0.0,-0.0,-0.0,0.0,0.0,0.0,0.0,0.0,0.0,0.0,0.0,0.0,0.0,0.0,0.0,0.0,0.0,0.0,0.0,0.0,0.0,0.0,0.0,0.0,0.0,0.0,0.016,-0.0,-0.0,-0.0,-0.0,-0.0,-0.0,-0.0,-0.0,-0.0,0.1452,0.2961,0.4497,0.4579,0.4646,0.4701,0.4952,0.5091,0.5138,0.5294,0.5428,0.5428,0.5428,0.5428,0.5432,0.5416,0.5586,0.582,0.5973,0.6129,0.6338,0.6338,0.6338,0.6285,0.6427,0.6471,0.6502,0.6654,0.6807,0.6929,0.6929,0.7031,0.7139,0.7139,0.7139,0.7139,0.7139,0.7139,0.7139,0.7139,0.7139,0.7139,0.7139,0.7139,0.7139,0.7139,0.7139,0.7139,0.7139,0.7139,0.7139,0.7139,0.7139,0.7139,0.7139,0.7139,0.7139,0.7139,0.7139,0.7207,0.736,0.756,0.7712,0.7807,0.796,0.7991,0.7889,0.7987,0.7943,0.775,0.7841,0.7889,0.7885,0.779,0.7797,-0.0,-0.0,0.0,-0.0,-0.0,0.0,-0.0,0.0,-0.0,0.0,0.0,0.0,0.0,0.0,0.0,0.0,0.0,0.0,0.0,0.285,0.0,0.0,0.0,0.0,0.0,0.0,0.3171,0.1539,0.0536,-0.0,0.0,-0.0,-0.0,-0.0,-0.0,-0.0,-0.0,0.1452,0.2961,0.4497,0.4572,0.4609,0.4616,0.4863,0.5003,0.5064,0.5213,0.5311,0.5428,0.5428,0.5428,0.5428,0.5428,0.5511,0.5745,0.5895,0.6081,0.6338,0.6338,0.6338,0.6278,0.6366,0.6396,0.6417,0.6515,0.6647,0.6776,0.6831,0.6912,0.6997,0.7051,0.7065,0.7065,0.7065,0.7102,0.7139,0.7139,0.7139,0.7139,0.7139,0.7139,0.7139,0.7139,0.7139,0.7139,0.7139,0.7139,0.7139,0.7139,0.7139,0.7139,0.7139,0.7139,0.7139,0.7139,0.7139,0.7183,0.7282,0.7434,0.756,0.7651,0.7848,0.7913,0.7814,0.7909,0.7865,0.7675,0.7716,0.7736,0.7733,0.7641,0.7617]},{"header":{"parameterUnit":"m.s-1","parameterCategory":1,"la1":30.6,"la2":29.2853,"lo1":-89.7004,"lo2":-87.6739,"dy":0.0162,"dx":0.0183,"nx":112,"ny":82,"refTime":"2023-08-04T06:00:00:Z","depth":0,"parameterNumber":3,"parameterNumberName":"V-component_of_WINDS"},"data":[0.0,0.0,0.0,0.0,0.0,0.0,0.0,0.0,0.0,0.0,0.0,0.0,0.0,0.0,0.0,0.0,0.0,0.0,0.0,0.0,0.0,0.0,0.0,0.0,0.0,0.0,0.0,0.0,0.0,0.0,0.0,0.0,0.0,0.0,0.0,0.0,0.0,0.0,0.0,0.0,0.0,0.0,0.0,0.0,0.0,0.0,0.0,0.0,0.0,0.0,0.0,0.0,0.0,0.0,0.0,0.0,0.0,0.0,0.0,0.0,0.0,0.0,0.0,0.0,0.0,0.0,0.0,0.0,0.0,0.0,0.0,0.0,0.0,0.0,0.0,0.0,0.0,0.0,0.0,0.0,0.0,0.0,0.0,0.0,0.0,0.0,0.0,0.0,0.0,0.0,-2.9617,-3.0307,-3.3807,-3.6101,-3.6101,-3.7239,-3.6413,-3.2834,0.0,0.0,0.0,0.0,0.0,0.0,0.0,0.0,0.0,0.0,0.0,0.0,0.0,0.0,0.0,0.0,0.0,0.0,0.0,0.0,0.0,0.0,0.0,0.0,0.0,0.0,0.0,0.0,0.0,0.0,0.0,0.0,0.0,0.0,0.0,0.0,0.0,0.0,0.0,0.0,0.0,0.0,0.0,0.0,0.0,0.0,0.0,0.0,0.0,0.0,0.0,0.0,0.0,0.0,0.0,0.0,0.0,0.0,0.0,0.0,0.0,0.0,0.0,0.0,0.0,0.0,0.0,0.0,0.0,0.0,0.0,0.0,0.0,0.0,0.0,0.0,0.0,0.0,0.0,0.0,0.0,0.0,0.0,0.0,0.0,0.0,0.0,0.0,0.0,0.0,0.0,0.0,0.0,0.0,0.0,0.0,0.0,0.0,0.0,0.0,0.0,0.0,0.0,0.0,-2.9614,-3.1054,-3.3623,-3.5192,-3.5192,-3.4798,-3.399,-3.2687,0.0,0.0,0.0,0.0,0.0,0.0,0.0,0.0,0.0,0.0,0.0,0.0,0.0,0.0,0.0,0.0,0.0,0.0,0.0,0.0,0.0,0.0,0.0,0.0,0.0,0.0,0.0,0.0,0.0,0.0,0.0,0.0,0.0,0.0,0.0,0.0,0.0,0.0,0.0,0.0,0.0,0.0,0.0,0.0,0.0,0.0,0.0,0.0,0.0,0.0,0.0,0.0,0.0,0.0,0.0,0.0,0.0,0.0,0.0,0.0,0.0,0.0,0.0,0.0,0.0,0.0,0.0,0.0,0.0,0.0,0.0,0.0,0.0,0.0,0.0,0.0,0.0,0.0,0.0,0.0,0.0,0.0,0.0,0.0,0.0,0.0,0.0,0.0,0.0,0.0,0.0,0.0,0.0,0.0,0.0,0.0,0.0,0.0,0.0,0.0,0.0,0.0,0.0,-2.942,-3.0283,-3.188,-3.3825,-3.5174,-3.5661,-3.4945,-3.3935,-3.2687,-3.254,0.0,0.0,0.0,0.0,0.0,0.0,0.0,0.0,0.0,0.0,0.0,0.0,0.0,0.0,0.0,0.0,0.0,0.0,0.0,0.0,0.0,0.0,0.0,0.0,0.0,0.0,0.0,0.0,0.0,0.0,0.0,0.0,0.0,0.0,0.0,0.0,0.0,0.0,0.0,0.0,0.0,0.0,0.0,0.0,0.0,0.0,0.0,0.0,0.0,0.0,0.0,0.0,0.0,0.0,0.0,0.0,0.0,0.0,0.0,0.0,0.0,0.0,0.0,0.0,0.0,0.0,0.0,0.0,0.0,0.0,0.0,0.0,0.0,0.0,0.0,0.0,0.0,0.0,0.0,0.0,0.0,0.0,0.0,0.0,0.0,0.0,0.0,0.0,0.0,0.0,0.0,0.0,0.0,0.0,0.0,0.0,0.0,0.0,0.0,0.0,0.0,0.0,-3.0026,-3.0613,-3.2412,-3.3853,-3.5,-3.5642,-3.4761,-3.3642,-3.2394,-3.1384,0.0,0.0,0.0,0.0,0.0,0.0,0.0,0.0,0.0,0.0,0.0,0.0,0.0,0.0,0.0,0.0,0.0,0.0,0.0,0.0,0.0,0.0,0.0,0.0,0.0,0.0,0.0,0.0,0.0,0.0,0.0,0.0,0.0,0.0,0.0,0.0,0.0,0.0,0.0,0.0,0.0,0.0,0.0,0.0,0.0,0.0,0.0,0.0,0.0,0.0,0.0,0.0,0.0,0.0,0.0,0.0,0.0,0.0,0.0,0.0,0.0,0.0,0.0,0.0,0.0,0.0,0.0,0.0,0.0,0.0,0.0,0.0,0.0,0.0,0.0,0.0,0.0,0.0,0.0,0.0,0.0,0.0,0.0,0.0,0.0,0.0,0.0,0.0,0.0,0.0,0.0,0.0,0.0,0.0,0.0,0.0,0.0,0.0,0.0,0.0,0.0,0.0,-2.9549,-3.0008,-3.2357,-3.3366,-3.3917,-3.3972,-3.254,-3.1586,-3.1476,-3.0044,0.0,0.0,0.0,0.0,0.0,0.0,0.0,0.0,0.0,0.0,0.0,0.0,0.0,0.0,0.0,0.0,0.0,0.0,0.0,0.0,0.0,0.0,0.0,0.0,0.0,0.0,0.0,0.0,0.0,0.0,0.0,0.0,0.0,0.0,0.0,0.0,0.0,0.0,0.0,0.0,0.0,0.0,0.0,0.0,0.0,0.0,0.0,0.0,0.0,0.0,0.0,0.0,0.0,0.0,0.0,0.0,0.0,0.0,0.0,0.0,0.0,0.0,0.0,0.0,0.0,0.0,0.0,0.0,0.0,0.0,0.0,0.0,0.0,0.0,0.0,0.0,0.0,0.0,0.0,0.0,0.0,0.0,0.0,0.0,0.0,0.0,0.0,0.0,0.0,0.0,0.0,0.0,0.0,0.0,0.0,0.0,0.0,0.0,0.0,0.0,0.0,0.0,-2.92,-2.9732,0.0,-3.2577,-3.3054,-3.3054,-3.2045,-3.1182,-3.0687,0.0,0.0,0.0,0.0,0.0,0.0,0.0,0.0,0.0,0.0,0.0,0.0,0.0,0.0,0.0,0.0,0.0,0.0,0.0,0.0,0.0,0.0,0.0,0.0,0.0,0.0,0.0,0.0,0.0,0.0,0.0,0.0,0.0,0.0,0.0,0.0,0.0,0.0,0.0,0.0,0.0,0.0,0.0,0.0,0.0,0.0,0.0,0.0,0.0,0.0,0.0,0.0,0.0,0.0,0.0,0.0,0.0,0.0,0.0,0.0,0.0,0.0,0.0,0.0,0.0,0.0,0.0,0.0,0.0,0.0,0.0,0.0,0.0,0.0,0.0,0.0,0.0,0.0,0.0,0.0,0.0,0.0,0.0,0.0,0.0,0.0,0.0,0.0,0.0,0.0,0.0,0.0,0.0,0.0,0.0,0.0,0.0,0.0,0.0,0.0,0.0,0.0,-2.8521,-2.8631,-2.9145,0.0,-3.1586,-3.2228,-3.2228,-3.0999,-3.0228,-3.021,0.0,0.0,0.0,0.0,0.0,0.0,0.0,0.0,0.0,0.0,0.0,0.0,0.0,0.0,0.0,0.0,0.0,0.0,0.0,0.0,0.0,0.0,0.0,0.0,0.0,0.0,0.0,0.0,0.0,0.0,0.0,0.0,0.0,0.0,0.0,0.0,0.0,0.0,0.0,0.0,0.0,0.0,0.0,0.0,0.0,0.0,0.0,0.0,0.0,0.0,0.0,0.0,0.0,0.0,0.0,0.0,0.0,0.0,0.0,0.0,0.0,0.0,0.0,0.0,0.0,0.0,0.0,0.0,0.0,0.0,0.0,0.0,0.0,0.0,0.0,0.0,0.0,0.0,0.0,0.0,0.0,0.0,0.0,0.0,0.0,0.0,0.0,0.0,0.0,0.0,0.0,0.0,0.0,0.0,0.0,0.0,0.0,0.0,0.0,0.0,0.0,0.0,-2.7714,-2.7787,-2.8099,-2.8902,-3.043,-3.1366,-3.1366,-2.9182,-2.8466,0.0,0.0,0.0,0.0,0.0,0.0,0.0,0.0,0.0,0.0,0.0,0.0,0.0,0.0,0.0,0.0,0.0,0.0,0.0,0.0,0.0,0.0,0.0,0.0,0.0,0.0,0.0,0.0,0.0,0.0,0.0,0.0,0.0,0.0,0.0,0.0,0.0,0.0,0.0,0.0,0.0,0.0,0.0,0.0,0.0,0.0,0.0,0.0,0.0,0.0,0.0,0.0,0.0,0.0,0.0,0.0,0.0,0.0,0.0,0.0,0.0,0.0,0.0,0.0,0.0,0.0,0.0,0.0,0.0,0.0,0.0,0.0,0.0,0.0,0.0,0.0,0.0,0.0,0.0,0.0,0.0,0.0,0.0,0.0,0.0,0.0,0.0,0.0,0.0,0.0,0.0,0.0,0.0,0.0,0.0,0.0,0.0,0.0,0.0,0.0,0.0,0.0,0.0,-2.8539,-2.7658,-2.7493,-2.8847,-2.9934,-3.032,-2.9769,-2.8539,-2.7989,-2.8466,0.0,0.0,0.0,0.0,0.0,0.0,0.0,0.0,0.0,0.0,0.0,0.0,0.0,0.0,0.0,0.0,0.0,0.0,0.0,0.0,0.0,0.0,0.0,0.0,0.0,0.0,0.0,0.0,0.0,0.0,0.0,0.0,0.0,0.0,0.0,0.0,0.0,0.0,0.0,0.0,0.0,0.0,0.0,0.0,0.0,0.0,0.0,0.0,0.0,0.0,0.0,0.0,0.0,0.0,0.0,0.0,0.0,0.0,0.0,0.0,0.0,0.0,0.0,0.0,0.0,0.0,0.0,0.0,0.0,0.0,0.0,0.0,0.0,0.0,0.0,0.0,0.0,0.0,0.0,0.0,0.0,0.0,0.0,0.0,0.0,0.0,0.0,0.0,0.0,0.0,0.0,0.0,0.0,0.0,0.0,0.0,0.0,0.0,0.0,0.0,0.0,0.0,-2.8466,-2.7402,-2.6979,-2.7952,-2.9053,-2.9274,-2.8132,-2.7603,-2.731,-2.731,0.0,0.0,0.0,0.0,0.0,0.0,0.0,0.0,0.0,0.0,0.0,0.0,0.0,0.0,0.0,0.0,0.0,0.0,0.0,0.0,0.0,0.0,0.0,0.0,0.0,0.0,0.0,0.0,0.0,0.0,0.0,0.0,0.0,0.0,0.0,0.0,0.0,0.0,0.0,0.0,0.0,0.0,0.0,0.0,0.0,0.0,0.0,0.0,0.0,0.0,0.0,0.0,0.0,0.0,0.0,0.0,0.0,0.0,0.0,0.0,0.0,0.0,0.0,0.0,0.0,0.0,0.0,0.0,0.0,0.0,0.0,0.0,0.0,0.0,0.0,0.0,0.0,0.0,0.0,0.0,0.0,0.0,0.0,0.0,0.0,0.0,0.0,0.0,0.0,0.0,0.0,0.0,0.0,0.0,0.0,0.0,0.0,0.0,0.0,0.0,0.0,0.0,-2.7915,-2.7145,-2.6612,-2.6612,-2.8044,-2.8333,-2.6741,-2.6646,-2.6661,-2.6722,0.0,0.0,0.0,0.0,0.0,0.0,0.0,0.0,0.0,0.0,0.0,0.0,0.0,0.0,0.0,0.0,0.0,0.0,0.0,0.0,0.0,0.0,0.0,0.0,0.0,0.0,0.0,0.0,0.0,0.0,0.0,0.0,0.0,0.0,0.0,0.0,0.0,0.0,0.0,0.0,0.0,0.0,0.0,0.0,0.0,0.0,0.0,0.0,0.0,0.0,0.0,0.0,0.0,0.0,0.0,0.0,0.0,0.0,0.0,0.0,-2.7915,0.0,0.0,0.0,0.0,0.0,0.0,0.0,0.0,0.0,0.0,0.0,0.0,0.0,0.0,0.0,0.0,0.0,0.0,0.0,0.0,0.0,0.0,0.0,0.0,0.0,0.0,0.0,0.0,0.0,0.0,0.0,0.0,0.0,0.0,0.0,0.0,0.0,0.0,0.0,0.0,0.0,-2.8741,-2.7493,-2.6612,-2.6612,-2.8044,-2.8333,-2.6741,-2.6886,-2.7204,-2.753,-2.6411,0.0,0.0,0.0,0.0,0.0,0.0,0.0,0.0,0.0,0.0,0.0,0.0,0.0,0.0,0.0,0.0,0.0,0.0,0.0,0.0,0.0,0.0,0.0,0.0,0.0,0.0,0.0,0.0,0.0,0.0,0.0,0.0,0.0,0.0,0.0,0.0,0.0,0.0,0.0,0.0,0.0,0.0,0.0,0.0,0.0,0.0,0.0,0.0,0.0,0.0,0.0,0.0,0.0,0.0,0.0,0.0,0.0,0.0,0.0,0.0,-2.898,0.0,0.0,0.0,0.0,0.0,0.0,0.0,0.0,0.0,0.0,0.0,0.0,0.0,0.0,0.0,0.0,0.0,0.0,0.0,0.0,0.0,0.0,0.0,0.0,0.0,0.0,0.0,0.0,0.0,0.0,0.0,0.0,0.0,0.0,0.0,0.0,0.0,0.0,0.0,0.0,-2.9494,-2.7842,-2.6759,-2.7145,-2.8282,-2.8333,-2.6741,-2.6962,-2.7115,-2.6936,-2.6379,0.0,0.0,0.0,0.0,0.0,0.0,0.0,0.0,0.0,0.0,0.0,0.0,0.0,0.0,0.0,0.0,0.0,0.0,0.0,0.0,0.0,0.0,0.0,0.0,0.0,0.0,0.0,0.0,0.0,0.0,0.0,0.0,0.0,0.0,0.0,0.0,0.0,0.0,0.0,0.0,0.0,0.0,0.0,0.0,0.0,0.0,0.0,0.0,0.0,0.0,0.0,0.0,0.0,-3.3862,-3.4156,-3.4045,-3.4853,-3.4596,-3.3385,-3.2045,-3.0779,-2.9714,-3.076,0.0,0.0,0.0,0.0,0.0,0.0,0.0,0.0,0.0,0.0,0.0,0.0,0.0,0.0,0.0,0.0,0.0,0.0,0.0,0.0,0.0,0.0,0.0,0.0,-3.499,-3.4679,0.0,0.0,0.0,0.0,0.0,0.0,0.0,0.0,0.0,0.0,0.0,0.0,-2.9843,-2.8136,-2.7053,-2.7732,-2.8476,-2.8301,-2.6838,-2.7019,-2.6964,-2.6386,-2.6517,-2.676,0.0,0.0,0.0,0.0,0.0,0.0,0.0,0.0,0.0,0.0,0.0,0.0,0.0,0.0,0.0,0.0,0.0,0.0,0.0,0.0,0.0,0.0,0.0,0.0,0.0,0.0,0.0,0.0,0.0,0.0,0.0,0.0,-2.4651,-2.5329,0.0,0.0,0.0,0.0,0.0,0.0,0.0,0.0,0.0,0.0,0.0,0.0,0.0,-3.268,-3.4183,-3.5073,-3.522,-3.4679,-3.5569,-3.5569,-3.4862,-3.5752,-3.6376,-3.6835,-3.6615,0.0,-3.2045,-3.0852,0.0,0.0,0.0,0.0,0.0,0.0,0.0,0.0,0.0,0.0,0.0,0.0,0.0,0.0,0.0,0.0,0.0,0.0,0.0,0.0,0.0,0.0,-3.4862,-3.4954,-3.499,-3.5137,0.0,-3.4835,-3.3715,-3.2926,-3.2284,0.0,0.0,0.0,0.0,0.0,0.0,0.0,-2.919,-2.8282,-2.7677,-2.7787,-2.8209,-2.811,-2.7206,-2.7214,-2.7379,-2.7634,-2.6708,-2.6976,-2.8705,-2.8542,0.0,0.0,0.0,0.0,0.0,0.0,0.0,0.0,0.0,0.0,0.0,0.0,0.0,0.0,0.0,0.0,0.0,0.0,0.0,0.0,0.0,0.0,0.0,0.0,0.0,0.0,0.0,0.0,0.0,-2.5039,-2.5511,-2.5421,-2.5493,-2.5364,0.0,0.0,0.0,0.0,0.0,0.0,0.0,0.0,0.0,-3.221,-3.3825,-3.5018,-3.5734,-3.656,-3.7239,-3.7771,-3.8615,-3.8817,-3.8438,-3.9294,-3.9625,-3.9515,-3.9515,-3.845,-3.6578,-3.4963,-3.4449,-3.4559,0.0,0.0,0.0,0.0,-3.344,-3.4156,-3.4266,-3.4284,0.0,-3.5,0.0,0.0,0.0,0.0,0.0,0.0,0.0,0.0,0.0,0.0,-3.7202,-3.7661,-3.8102,-3.8432,-3.834,-3.7037,-3.5495,0.0,-3.3678,-3.3331,-3.3058,0.0,0.0,0.0,0.0,-2.8846,-2.958,-2.8576,-2.7885,-2.81,-2.8297,-2.8198,-2.7647,-2.7408,-2.7396,-2.753,-2.6837,-2.6926,-2.8032,-2.8335,-2.8539,0.0,0.0,0.0,0.0,0.0,0.0,0.0,0.0,0.0,0.0,0.0,0.0,0.0,0.0,0.0,0.0,0.0,0.0,0.0,0.0,0.0,0.0,0.0,0.0,0.0,0.0,0.0,0.0,-2.5401,-2.6062,-2.5476,-2.6098,-2.6355,0.0,0.0,0.0,0.0,0.0,0.0,-3.1054,-3.322,-3.4523,-3.4743,-3.6358,-3.7422,-3.7826,-3.8615,-3.9625,-4.0818,-4.1442,-4.1717,-4.1735,-4.2323,-4.2286,-4.1717,-4.1717,-4.1368,-4.0653,-3.8634,-3.7441,-3.6835,-3.5973,-3.5789,-3.5907,-3.5734,-3.6193,-3.6964,-3.7349,-3.7507,-3.7496,-3.7514,-3.7092,-3.6402,-3.5605,0.0,0.0,0.0,0.0,-3.6248,-3.7477,-3.8285,-3.9063,-4.0235,-4.0701,-4.0748,-4.0379,-3.9191,-3.757,0.0,-3.4794,-3.4262,-3.3422,0.0,0.0,0.0,0.0,-2.8898,-2.9917,-2.8919,-2.8148,-2.828,-2.8166,-2.8002,-2.7783,-2.7378,-2.7147,-2.7147,-2.6873,-2.6841,-2.7147,-2.7809,-2.8228,-2.8264,0.0,0.0,0.0,0.0,0.0,0.0,0.0,0.0,0.0,0.0,0.0,0.0,0.0,0.0,0.0,0.0,0.0,0.0,0.0,0.0,0.0,0.0,0.0,0.0,0.0,0.0,0.0,0.0,0.0,-2.5403,-2.6098,0.0,0.0,0.0,0.0,-2.9843,-3.1458,-3.2742,-3.3568,-3.5238,-3.6505,-3.7276,-3.8872,-4.0451,-4.1974,-4.28,-4.3222,-4.3314,-4.3351,-4.3369,-4.3369,-4.3406,-4.3406,-4.3369,-4.3369,-4.3351,-4.3075,-3.9937,-3.8615,-3.8505,-3.7679,-3.7826,-3.8432,-3.7643,-3.7881,-3.8487,-3.7734,-3.7507,-3.7863,-4.0139,-4.0836,-4.0653,-3.9845,-3.9056,0.0,0.0,-3.7918,-3.8542,-3.8615,-3.8828,-3.9515,-4.1672,-4.1194,-4.0438,-4.1159,-4.0654,-3.9157,0.0,-3.4235,-3.2925,-3.2056,0.0,-3.1655,-3.1405,-3.0832,-3.0252,-2.9701,-2.9247,-2.8687,-2.7996,-2.7589,-2.7348,-2.7317,-2.6971,-2.6725,-2.6725,-2.6725,-2.6725,-2.6725,-2.7149,-2.7552,-2.7926,-2.9053,0.0,0.0,0.0,0.0,0.0,0.0,0.0,0.0,0.0,0.0,0.0,0.0,0.0,0.0,0.0,0.0,0.0,0.0,0.0,0.0,0.0,0.0,0.0,0.0,0.0,0.0,0.0,0.0,-2.8433,-3.0118,0.0,-3.1237,-3.1494,-3.2118,-3.3193,-3.4339,-3.5569,-3.689,-3.8505,-3.9772,-4.0561,-4.1644,-4.2488,-4.3057,-4.3351,-4.3497,-4.3497,-4.3497,-4.3497,-4.3497,-4.3497,-4.3497,-4.3497,-4.3497,-4.3497,-4.3406,-4.2249,-4.1479,-4.0946,-4.0139,-3.9992,-4.0212,-3.9918,-4.0341,-4.0983,-4.0689,-4.0579,-4.0561,-4.0377,-3.9974,-3.9515,-3.9221,-3.8927,-3.8664,-3.8522,-3.8676,-3.9061,-3.975,-3.9988,-4.0374,-4.1683,-4.1582,-4.1296,-4.1604,-4.1029,-4.002,-3.8543,-3.6443,-3.4818,-3.4475,-3.3159,-3.2109,-3.2013,-3.1421,-3.0735,-3.0018,-2.939,-2.8805,-2.8285,-2.7691,-2.721,-2.6939,-2.6791,-2.6691,-2.6691,-2.6691,-2.6825,-2.7083,-2.7224,-2.7572,-2.821,-2.9665,-3.0033,0.0,0.0,0.0,0.0,0.0,0.0,0.0,0.0,0.0,0.0,0.0,0.0,0.0,0.0,0.0,0.0,0.0,0.0,0.0,0.0,0.0,0.0,0.0,0.0,0.0,0.0,-3.0405,-3.1449,-3.339,-3.4633,-3.4633,-3.489,-3.5385,-3.6211,-3.7294,-3.8505,-3.9845,-4.1185,-4.2158,-4.269,-4.3222,-4.3497,-4.3497,-4.3497,-4.3497,-4.3497,-4.3497,-4.3497,-4.3497,-4.3497,-4.3497,-4.3497,-4.3497,-4.3497,-4.3497,-4.3497,-4.3185,-4.2653,-4.2121,-4.1919,-4.1919,-4.1919,-4.2249,-4.269,-4.269,-4.269,-4.2525,-4.146,-4.0744,-4.0322,-4.0322,-4.0322,-4.0349,-4.0486,-4.0508,-4.0637,-4.1149,-4.115,-4.1131,-4.1687,-4.1621,-4.149,-4.149,-4.1104,-4.0517,-4.0008,-3.8026,-3.6309,-3.5849,-3.4279,-3.3047,-3.2966,-3.2161,-3.1359,-3.076,-2.9892,-2.9171,-2.8647,-2.8183,-2.7672,-2.7131,-2.7317,-2.7301,-2.694,-2.7145,-2.7358,-2.7487,-2.7744,-2.8193,-2.8799,-3.0559,-3.1045,-3.0204,0.0,0.0,0.0,0.0,0.0,0.0,0.0,0.0,0.0,0.0,0.0,0.0,0.0,0.0,0.0,0.0,0.0,0.0,0.0,0.0,0.0,0.0,0.0,-2.8739,-3.0376,-3.2293,-3.42,-3.5668,-3.6486,-3.6486,-3.7202,-3.7991,-3.8799,-4.0304,-4.1534,-4.2304,-4.3075,-4.3497,-4.3497,-4.3497,-4.3497,-4.3497,-4.3497,-4.3497,-4.3497,-4.3497,-4.3497,-4.3497,-4.3497,-4.3497,-4.3497,-4.3497,-4.3497,-4.3497,-4.3497,-4.3497,-4.3516,-4.3497,-4.3497,-4.3497,-4.3497,-4.3497,-4.3497,-4.3497,-4.3497,-4.3497,-4.3497,-4.3497,-4.3497,-4.3497,-4.3497,-4.3497,-4.3479,-4.3497,-4.3339,-4.277,-4.2203,-4.181,-4.1768,-4.1313,-4.0903,-4.0856,-4.0874,-4.0733,-4.0204,-3.8716,-3.7172,-3.5898,-3.5064,-3.4457,-3.4162,-3.3123,0.0,-3.1891,-3.0834,-2.9892,-2.92,-2.9098,-2.8776,-2.7978,-2.8623,-2.8561,-2.7425,-2.8014,-2.8223,-2.7933,-2.8663,-2.9272,-2.9638,-3.1579,-3.2596,-3.2651,0.0,0.0,0.0,0.0,0.0,0.0,0.0,0.0,0.0,0.0,0.0,0.0,0.0,0.0,0.0,0.0,0.0,0.0,0.0,0.0,0.0,0.0,-3.1792,-3.1794,-3.3908,-3.5975,-3.7331,-3.9357,-4.0653,-4.0653,-4.1368,-4.1937,-4.2158,-4.258,-4.2928,-4.3149,-4.3369,-4.3497,-4.3497,-4.3497,-4.3497,-4.3497,-4.3497,-4.3497,-4.3497,-4.3497,-4.3497,-4.3497,-4.3497,-4.3497,-4.3497,-4.3497,-4.3497,-4.3497,-4.3497,-4.3828,-4.4305,-4.3718,-4.3497,-4.3497,-4.3497,-4.3497,-4.3497,-4.3497,-4.3497,-4.3497,-4.3497,-4.3497,-4.3497,-4.3497,-4.3497,-4.341,-4.3014,-4.2902,-4.2675,-4.1664,-4.1578,-4.1578,-4.0767,-4.075,-4.078,-4.0417,-4.0336,-4.0286,-4.0121,-3.9287,-3.8316,-3.7398,-3.6654,-3.5735,-3.4585,-3.41,0.0,-3.2789,-3.1906,-3.1408,-3.1583,-3.1124,-3.0735,-3.0507,-3.0159,-2.9576,-2.8664,-2.8247,-2.811,-2.8264,-2.8461,-2.9313,-3.0874,-3.1444,-3.2302,0.0,0.0,0.0,0.0,0.0,0.0,0.0,0.0,0.0,0.0,0.0,0.0,0.0,0.0,0.0,0.0,0.0,0.0,0.0,0.0,0.0,0.0,-3.3577,-3.5032,-3.6373,-3.7527,-3.8748,-4.0251,-4.1834,-4.28,-4.28,-4.3222,-4.3497,-4.3497,-4.3809,-4.3864,-4.3516,-4.3809,-4.3993,-4.3993,-4.3663,-4.3644,-4.3993,-4.3663,-4.3497,-4.3497,-4.3828,-4.3993,-4.4011,-4.4342,-4.4323,-4.3993,-4.3993,-4.3993,-4.3993,-4.3993,-4.4488,0.0,0.0,0.0,0.0,0.0,-4.3791,-4.3497,-4.3497,-4.3497,-4.3497,-4.3497,-4.3497,-4.3497,-4.3497,-4.3497,-4.3444,-4.3142,-4.3014,-4.2846,-4.1877,-4.1895,-4.1955,-4.103,-4.1059,-4.1178,-4.0891,-4.0814,-4.0814,-4.0814,-4.0469,0.0,-3.9174,-3.7995,-3.685,-3.6239,-3.5549,-3.4926,-3.4329,-3.3281,-3.2704,-3.3029,-3.237,-3.1799,-3.1462,-3.1306,0.0,0.0,0.0,-2.9268,-2.9639,-2.9992,0.0,0.0,0.0,-3.2912,-3.3961,-3.3199,0.0,0.0,-3.3663,-3.3627,0.0,0.0,0.0,0.0,0.0,0.0,0.0,0.0,0.0,0.0,0.0,0.0,0.0,0.0,0.0,0.0,-3.6686,-3.8159,-4.121,-4.0948,-4.1075,-4.2823,-4.331,-4.3534,-4.3626,-4.3534,-4.3534,-4.3626,-4.4213,-4.4287,-4.3663,0.0,0.0,0.0,0.0,-4.4066,-4.4709,-4.4066,-4.3718,-4.3644,-4.4452,-4.4856,-4.4874,-4.5571,-4.5516,-4.4856,-4.4856,-4.4856,-4.4856,-4.4856,-4.5259,-4.5755,-4.4323,-4.458,-4.5681,-4.4966,-4.4195,-4.3497,-4.3497,0.0,0.0,-4.3497,-4.3497,-4.3497,-4.3497,-4.3497,-4.3497,-4.3497,-4.3497,-4.3375,-4.2826,-4.2732,-4.2598,-4.1937,-4.1853,-4.1895,-4.1793,-4.181,-4.181,-4.181,-4.181,-4.1623,-4.1014,-3.9164,-3.7882,-3.832,-3.7104,-3.6112,-3.6096,-3.4922,-3.4066,-3.4044,0.0,0.0,-3.1934,-3.2371,-3.2228,-3.1174,-3.0966,-3.1048,-3.1403,-3.2199,-3.2978,-3.3695,-3.3839,-3.4012,-3.4265,-3.4265,-3.4553,-3.5069,-3.4017,-3.3979,0.0,0.0,0.0,0.0,0.0,0.0,0.0,0.0,0.0,0.0,0.0,0.0,0.0,0.0,0.0,-3.7423,-3.8808,-4.0215,-4.2281,-4.3236,-4.3918,-4.4299,-4.3826,-4.3754,-4.4415,-4.3883,-4.3754,-4.4415,-4.4011,-4.3956,-4.4452,-4.4635,-4.4709,-4.4709,-4.5186,-4.5204,-4.4709,-4.5186,-4.5112,-4.4488,0.0,0.0,-4.5663,-4.5828,-4.581,-4.5663,-4.5663,-4.5663,-4.5663,-4.5663,-4.5755,-4.5865,-4.5553,-4.5241,-4.4911,-4.4764,-4.4195,-4.3497,-4.3497,-4.3497,-4.3497,-4.3497,-4.3497,-4.3497,-4.3497,-4.3497,0.0,-4.3497,-4.3497,-4.3375,-4.2826,-4.3014,-4.3069,-4.2062,-4.2162,-4.2382,-4.1895,-4.181,-4.181,-4.181,-4.181,-4.1884,-4.2225,-4.0548,-3.8929,-3.8486,-3.7583,-3.686,-3.659,-3.6554,-3.6417,-3.615,-3.6161,-3.5789,-3.4789,-3.4208,-3.3423,-3.2352,-3.1649,-3.1309,-3.1403,-3.239,-3.299,-3.3157,-3.4061,-3.4569,-3.4593,-3.4593,-3.4774,-3.5088,-3.4642,-3.4642,0.0,0.0,0.0,0.0,0.0,0.0,0.0,0.0,0.0,0.0,0.0,-3.4393,0.0,0.0,-3.7934,-4.1222,-4.18,-4.2501,-4.4395,-4.5023,-4.5149,-4.4764,-4.4709,-4.4856,-4.5259,-4.4929,-4.4874,-4.5278,-4.5296,-4.5296,-4.5296,-4.57,-4.592,-4.592,-4.5902,-4.5902,-4.592,-4.5902,-4.57,-4.5314,-4.6122,-4.6507,-4.6526,-4.6929,-4.6893,-4.6507,-4.6507,-4.6507,-4.6544,-4.6948,-4.7095,-4.7058,-4.6673,-4.5773,-4.4709,-4.4709,-4.4195,-4.3497,-4.3497,-4.3497,-4.3497,-4.3497,-4.3497,-4.3497,-4.3497,-4.3497,-4.3497,-4.3497,-4.3497,-4.3444,-4.3178,-4.3286,-4.3356,-4.2772,-4.2865,-4.3014,-4.2734,-4.2639,-4.2698,-4.2887,-4.2905,-4.3049,-4.3564,-4.2396,-4.1049,-3.9931,-3.9184,-3.8528,-3.7961,-3.784,-3.7741,-3.7553,-3.7307,-3.6767,-3.5781,-3.4778,-3.3794,-3.2847,-3.2791,-3.2606,-3.2218,-3.3243,-3.3845,-3.3845,-3.4802,-3.5379,-3.5496,-3.5932,-3.629,-3.6549,-3.6272,-3.5851,0.0,0.0,0.0,0.0,0.0,0.0,0.0,0.0,-3.3481,-3.5914,-3.7007,-3.8263,-4.0572,-4.0728,-4.1562,-4.4805,-4.4693,-4.4781,-4.6396,-4.6461,-4.6131,-4.5485,-4.5697,-4.5993,-4.623,-4.6048,-4.5957,-4.6122,-4.6599,-4.6654,-4.6159,-4.6764,-4.7113,-4.7113,-4.6801,-4.6764,-4.7113,-4.6783,-4.6452,-4.614,-4.6966,-4.7352,-4.737,-4.8012,-4.7957,-4.7352,-4.7352,-4.7352,-4.7388,-4.8031,-4.8306,-4.8233,-4.7425,-4.625,-4.4998,-4.4799,-4.4195,-4.3497,-4.3497,-4.3497,-4.3497,-4.3497,-4.3497,-4.3497,-4.3497,-4.3497,-4.3497,-4.3497,-4.3497,-4.3513,-4.3563,-4.3597,-4.3631,-4.3712,-4.3712,-4.3712,-4.3712,-4.3712,-4.3791,-4.4076,-4.4117,-4.4204,-4.4553,-4.402,-4.3104,-4.1718,-4.1043,-4.0419,-3.9773,-3.9242,-3.8899,-3.8748,-3.8054,-3.7201,-3.6226,-3.5293,-3.4475,-3.3753,-3.44,-3.4502,-3.3848,-3.4766,-3.5247,-3.5247,-3.595,-3.6407,-3.6623,-3.7276,-3.7742,-3.7988,-3.7672,-3.6929,-3.2115,-3.2263,-3.3307,-3.4576,-3.4261,-3.4783,0.0,0.0,-3.8345,-4.0311,-4.1201,-4.1886,-4.2652,-4.3533,-4.4573,-4.5951,-4.6443,-4.6788,-4.6986,-4.7617,-4.8003,-4.7909,-4.6721,-4.6321,-4.74,-4.6521,-4.6195,-4.6929,-4.6397,-4.6305,-4.6948,-4.7076,-4.7113,-4.7113,-4.8453,-4.8508,-4.7131,-4.8489,-4.8434,-4.7003,-4.7792,-4.8177,-4.8177,-4.8269,-4.8251,-4.8177,-4.8177,-4.8177,-4.8177,-4.8269,-4.8306,-4.8233,-4.7425,-4.6725,-4.609,-4.507,-4.4195,-4.3497,-4.3497,-4.3497,-4.3497,-4.3497,-4.3497,-4.3497,-4.3497,-4.3497,-4.3497,-4.3497,-4.3497,-4.3563,-4.3881,-4.3955,-4.4046,-4.4392,-4.4474,-4.4474,-4.4474,-4.4474,-4.4474,-4.4527,-4.4527,-4.4553,-4.458,-4.4504,-4.4146,-4.3201,-4.2379,-4.1857,-4.1788,-4.1282,-4.069,-3.9985,-3.9406,-3.851,-3.7098,-3.6904,-3.6697,-3.6317,-3.6652,-3.6828,-3.6734,-3.7091,-3.7279,-3.7279,-3.7603,-3.779,-3.7805,-3.7668,-3.7742,-3.7993,-3.7471,-3.7299,-3.4699,-3.4872,0.0,0.0,-3.7732,-3.9298,-4.2389,-4.2487,-4.2565,-4.4844,-4.5495,-4.5898,-4.6627,-4.6562,-4.6942,0.0,-4.8256,-4.8029,-4.8751,-4.8935,-4.889,-4.8631,-4.7795,-4.7623,-4.8652,-4.7861,-4.7519,-4.8103,-4.7611,-4.7664,-4.8508,-4.8545,-4.8765,-4.9242,-4.9921,-4.9958,-4.9279,-4.9958,-4.9958,-4.9279,-4.9591,-4.9517,-4.9058,-4.9536,-4.9499,-4.9022,-4.8526,-4.8421,-4.8657,-4.8657,-4.8779,-4.8922,-4.8133,-4.7685,-4.729,-4.5602,-4.4618,-4.4181,-4.4406,-4.4508,-4.4517,-4.4814,-4.4892,-4.4892,-4.4892,-4.4892,-4.4853,-4.4558,-4.4508,-4.4475,-4.4364,-4.4364,-4.4373,-4.4553,-4.458,-4.458,-4.458,-4.458,-4.4657,-4.4849,-4.4896,-4.4943,-4.514,-4.5011,-4.4763,-4.4402,-4.3624,-4.2834,-4.2195,-4.2047,-4.1622,-4.0612,-3.9605,-3.867,-3.7867,-3.7395,-3.7087,-3.6953,-3.7255,-3.7433,-3.7433,-3.7689,-3.7827,-3.7827,-3.8439,-3.8757,-3.8757,-3.9103,-3.9353,-3.945,-3.9212,-3.9178,-3.5861,0.0,0.0,-3.8757,-4.12,-4.3701,-4.5336,-4.6067,-4.6913,-4.8779,-4.9163,-4.9279,-4.9683,-4.9044,-4.8943,-5.0452,-4.9733,-4.9264,-5.013,-4.9809,-4.9353,-4.9022,-4.8397,-4.8291,-4.9041,-4.8589,-4.841,-4.8707,-4.8767,-4.9122,-4.988,-4.9912,-5.0317,-5.1102,-5.1246,-5.1265,-5.112,-5.1342,-5.1342,-5.112,-5.112,-5.0786,-5.0099,-5.043,-5.034,-4.9898,-4.901,-4.8779,-4.9075,-4.9075,-4.9234,-4.9418,-4.8727,-4.8466,-4.8245,-4.6626,-4.5716,-4.5327,-4.5511,-4.5562,-4.5611,-4.5825,-4.5902,-4.592,-4.6044,-4.608,-4.6002,-4.5792,-4.5559,-4.533,-4.5104,-4.4903,-4.4757,-4.4853,-4.4896,-4.4896,-4.4896,-4.4896,-4.4943,-4.5201,-4.5243,-4.5302,-4.5438,-4.5263,-4.5074,-4.4985,-4.441,-4.3734,-4.2888,-4.2754,-4.2325,-4.1235,-4.0268,-3.9453,-3.8893,-3.8399,-3.8033,-3.7788,-3.8098,-3.8325,-3.8395,-3.8585,-3.8681,-3.8681,-3.9296,-3.9623,-3.9623,-4.0219,-4.0489,-4.0489,-4.0489,-4.0489,0.0,0.0,-3.8761,-4.1235,-4.4432,-4.7336,-4.8894,-5.051,-5.1702,-5.1779,-5.1779,-5.1548,-5.0798,-5.0625,-5.0625,-5.0683,-5.0664,-5.0625,-5.0683,-4.9933,-4.9394,-4.9375,-4.8286,-4.7681,0.0,-4.8194,-4.8202,-4.823,-4.9356,-5.0258,-5.0738,-5.0749,-5.112,-5.1937,-5.2326,-5.2383,-5.1986,-5.2748,-5.2748,-5.1967,-5.1967,-5.1737,-5.1318,-5.0501,-5.0347,-5.073,-4.9852,-4.9475,-4.9475,-4.9475,-4.9475,-4.9445,-4.9057,-4.884,-4.8724,-4.8294,-4.7655,-4.6976,-4.6576,-4.647,-4.6406,-4.6026,-4.5902,-4.5973,-4.6378,-4.6475,-4.657,-4.693,-4.6437,-4.5847,-4.6172,-4.5668,-4.518,-4.5495,-4.5568,-4.5568,-4.5568,-4.5568,-4.5568,-4.5586,-4.5586,-4.5495,-4.518,-4.5096,-4.4988,-4.4657,-4.4587,-4.4568,-4.4523,-4.3787,-4.2932,-4.2077,-4.1927,-4.1443,-4.0337,-4.0509,-4.0349,-3.9561,-3.9846,-4.0137,-4.0396,-4.0412,-4.0412,-4.0412,-4.045,-4.045,-4.045,-4.0489,-4.0489,-4.0489,-4.0489,-4.0489,-3.7135,0.0,-4.2283,-4.4861,-4.7579,-4.9894,-5.0952,-5.1568,-5.176,-5.1202,-4.976,-4.8317,-4.7471,-4.7317,-4.7509,-4.8086,-4.9106,-4.9837,-4.9837,-5.0067,-4.9644,-4.7952,-4.7838,0.0,0.0,0.0,0.0,-4.8517,-4.9089,-5.0025,-5.1522,-5.21,-5.278,-5.3616,-5.379,-5.3809,-5.3666,-5.3918,-5.3918,-5.3666,-5.3081,-5.3025,-5.3424,-5.1995,-5.1468,-5.1571,-5.0741,-5.0175,-4.9898,-4.9898,-5.0068,-5.0249,-4.9853,-4.9853,-5.0021,-4.9605,-4.9458,-4.9312,-4.806,-4.7479,-4.7307,-4.7445,-4.7665,-4.7927,-4.8044,-4.8284,-4.8445,-4.8282,-4.8017,-4.7615,-4.6894,-4.6493,-4.6167,-4.5703,-4.5586,-4.5586,-4.5586,-4.5586,-4.5586,-4.5586,-4.5586,-4.5495,-4.5159,-4.4919,-4.458,-4.3962,-4.4046,-4.4204,-4.4204,-4.3483,-4.2771,-4.2242,-4.1911,-4.1483,-4.0874,-4.0607,-4.0439,-4.04,-4.0205,-4.0213,-4.0489,-4.0489,-4.0489,-4.0489,-4.0489,-4.0489,-4.0489,-4.0489,-4.0489,-4.0489,-4.0489,-4.0489,-3.9947,-4.2421,-4.4635,-4.7543,-5.0127,-5.1973,-5.2069,-5.253,-5.2396,-5.0587,-4.8682,-4.6874,-4.5413,-4.4893,-4.497,-4.5836,-4.6874,-4.7894,-4.8817,-4.9163,-4.8952,-4.7913,-4.7971,-4.7682,0.0,0.0,0.0,-4.8471,-4.9625,-5.091,-5.2357,-5.3202,-5.4054,-5.4905,-5.479,-5.476,-5.4924,-5.4924,-5.4924,-5.4905,-5.422,-5.4239,-5.4867,-5.3329,-5.2579,-5.2376,-5.1566,-5.0849,-5.0294,-5.0294,-5.0462,-5.0663,-5.0092,-5.0135,-5.0421,-4.9879,-4.9827,-4.9923,-4.8993,-4.8536,-4.8324,-4.8292,-4.8477,-4.8744,-4.9029,-4.9295,-4.9495,-4.9491,-4.9261,-4.8845,-4.801,-4.7355,-4.6759,-4.6201,-4.5817,-4.5586,-4.5586,-4.5586,-4.5586,-4.5586,-4.5586,-4.5476,-4.4988,-4.4527,-4.4095,-4.3726,-4.3849,-4.3955,-4.3836,-4.336,-4.3,-4.2936,-4.2625,-4.23,-4.1913,-4.1316,-4.0947,-4.0961,-4.0439,-4.0366,-4.095,-4.095,-4.1104,-4.1412,-4.1431,-4.1431,-4.1431,-4.1123,-4.095,-4.095,-4.0642,-4.0489,-4.2633,-4.4494,-4.6008,-4.9328,-5.1973,-5.3494,-5.2324,-5.3301,-5.3436,-4.9875,-4.8375,-4.6951,0.0,0.0,-4.322,-4.4047,-4.4355,-4.5336,-4.7759,-4.7567,-4.7721,0.0,0.0,0.0,0.0,0.0,0.0,-4.8279,0.0,-5.2752,-5.324,-5.4077,-5.4924,-5.5662,-5.5331,-5.5306,-5.5703,-5.5703,-5.5703,-5.5703,-5.5306,-5.5331,-5.5665,-5.4465,-5.3685,-5.3222,-5.2337,-5.151,-5.076,-5.0721,-5.0683,-5.0604,-4.98,-4.9746,-4.9974,-4.9202,-4.893,-4.8996,-4.9356,-4.9475,-4.9326,-4.8604,-4.8364,-4.8513,-4.9295,-4.9551,-4.9719,-5.0483,-5.0087,-4.9452,-4.9413,-4.8221,-4.7009,-4.6932,-4.6278,-4.5643,-4.5605,-4.5624,-4.5663,-4.5663,-4.5626,-4.54,-4.4783,-4.4042,-4.3612,-4.3955,-4.4016,-4.3912,-4.3597,-4.3548,-4.3679,-4.3986,-4.4028,-4.3839,-4.341,-4.2618,-4.1949,-4.1473,-4.0673,-4.0711,-4.1819,-4.1873,-4.2258,-4.3085,-4.3104,-4.3104,-4.3104,-4.2277,-4.1873,-4.1854,-4.1008,-4.0623,-4.5611,-4.8054,-5.0103,-5.162,-5.291,-5.3371,-5.1736,-5.1115,-4.9894,-4.6317,-4.3912,-4.1854,0.0,0.0,0.0,-4.2297,-4.5086,0.0,-4.8009,-4.9567,0.0,-4.949,0.0,-5.0702,-5.0106,-5.0489,0.0,0.0,-5.1408,-5.2418,-5.4066,-5.4956,-5.5489,-5.5684,-5.5599,-5.5599,-5.5703,-5.5703,-5.5703,-5.5703,-5.5599,-5.5599,-5.5684,-5.5369,-5.4831,-5.4126,-5.326,-5.2375,-5.1548,-5.0952,-5.0504,-5.0206,-4.9692,-4.9561,-4.9589,-4.9075,-4.9075,-4.9356,-4.9475,-4.9126,-4.8657,-4.9062,-4.9171,-4.9295,-4.98,-5.0159,-5.0421,-5.0624,-5.0529,-5.0221,-4.9567,-4.9086,-4.8452,-4.7201,-4.674,-4.6394,-4.574,-4.6105,-4.6567,-4.6567,-4.6118,-4.5672,-4.5519,-4.4587,-4.3893,-4.3986,-4.428,-4.4419,-4.4337,-4.4308,-4.4337,-4.4447,-4.4447,-4.4406,-4.4278,-4.3492,-4.3047,-4.3169,-4.2408,-4.2202,-4.2742,-4.2777,-4.2874,-4.3104,-4.3104,-4.3104,-4.3104,-4.2874,-4.2777,-4.2758,-4.2547,-4.2431,-4.847,-5.0535,-5.2187,-5.3047,-5.3574,-5.3202,-5.0629,-4.9551,-4.779,-4.3104,-4.0989,0.0,0.0,0.0,0.0,0.0,0.0,0.0,-4.7355,-4.9106,-5.0298,0.0,-5.1337,0.0,-5.1798,-5.2222,-5.2645,0.0,-5.2864,-5.3264,-5.4453,-5.5261,-5.5703,-5.5703,-5.5703,-5.5703,-5.5703,-5.5703,-5.5703,-5.5703,-5.5703,-5.5703,-5.5703,-5.5703,-5.5261,-5.4453,0.0,-5.2722,-5.1856,-5.1029,-5.0462,-5.0068,-4.9664,-4.9386,-4.9202,-4.8978,-4.9043,-4.9295,-4.9645,-4.9356,-4.8915,-4.9356,-4.9768,-5.0081,-5.0089,-5.052,-5.0943,-5.0759,-5.0702,-5.0587,-5.0087,-4.9683,-4.9163,-4.8221,-4.7702,-4.7298,-4.6797,-4.7086,-4.7432,-4.7432,-4.6978,-4.648,-4.6101,-4.5337,-4.4712,-4.4519,-4.4663,-4.4872,-4.5011,-4.4781,-4.4676,-4.4781,-4.4825,-4.4872,-4.5033,-4.4233,-4.3821,-4.402,-4.3254,-4.306,-4.3605,-4.3624,-4.3816,-4.4182,-4.4201,-4.4201,-4.4201,-4.3816,-4.3624,-4.3624,-4.3258,-4.3104,-5.1074,-5.2383,-5.3223,-5.3984,-5.4004,-5.293,-4.9473,-4.8164,-4.6076,-4.0404,0.0,-3.7719,-3.4737,-3.5488,-3.6911,-3.7988,0.0,-4.3162,-4.6586,-4.7952,-4.9471,-5.1798,-5.2279,-5.2702,-5.3472,-5.353,-5.3857,-5.4607,-5.4664,-5.4664,-5.4664,-5.5318,-5.5703,-5.5703,-5.5703,-5.5703,-5.5703,-5.5703,-5.5703,-5.5703,-5.5703,-5.5703,-5.5703,-5.5703,-5.5318,-5.4607,-5.376,-5.2953,-5.2183,-5.1182,-5.061,-5.0298,-4.9655,-4.9259,-4.9046,-4.8934,-4.893,-4.9075,-4.9827,-4.9872,-4.9608,-4.9645,-5.0204,-5.079,-5.0335,-5.0737,-5.1285,-5.0835,-5.0702,-5.0702,-5.0702,-5.0144,-4.9529,-4.9433,-4.8817,-4.824,-4.8125,-4.8202,-4.8317,-4.8413,-4.7986,-4.7388,-4.6759,-4.6125,-4.5609,-4.53,-4.5216,-4.5263,-4.5568,-4.5077,-4.483,-4.5137,-4.518,-4.5263,-4.5568,-4.4913,-4.447,-4.447,-4.3816,-4.3739,-4.4432,-4.447,-4.4816,-4.5586,-4.5586,-4.5586,-4.5586,-4.4836,-4.447,-4.4451,-4.3758,-4.3431,-5.3047,-5.4199,-5.4883,-5.5039,-5.3984,-5.2187,-4.9355,-4.5902,0.0,0.0,0.0,-3.4891,-3.4295,-3.5026,0.0,-3.87,0.0,0.0,0.0,0.0,-5.1683,0.0,0.0,0.0,0.0,0.0,0.0,0.0,0.0,-5.5491,-5.5491,-5.5607,-5.5703,-5.5703,-5.5703,-5.5703,-5.5703,-5.5703,-5.5703,-5.5703,-5.5703,-5.5703,-5.5703,-5.5703,-5.5607,-5.5453,-5.4626,0.0,-5.3893,-5.1986,-5.1383,-5.1488,-4.9696,-4.9374,-4.9793,-4.9157,-4.9108,-4.9475,-4.9949,-5.0043,-5.0043,-5.038,-5.0826,-5.1141,-5.0732,-5.1161,-5.1642,-5.0914,-5.0702,-5.0702,-5.0702,-5.0587,-5.0279,-4.9567,-4.9279,-4.8971,-4.8259,-4.8663,-4.9394,-5.0106,-4.8809,-4.777,-4.8342,-4.6656,-4.5411,-4.5993,-4.5763,-4.5531,-4.5586,-4.5495,-4.5438,-4.5513,-4.5513,-4.555,-4.5605,-4.5451,-4.5355,-4.5355,-4.524,-4.522,-4.5355,-4.5355,-4.5451,-4.5586,-4.5586,-4.5586,-4.5586,-4.5451,-4.5355,-4.5355,-4.522,-4.5163,-5.3633,-5.4961,-5.5976,-5.5976,-5.4316,-5.1774,-4.8203,0.0,0.0,0.0,-3.4737,-3.3391,-3.2987,0.0,0.0,0.0,0.0,0.0,0.0,0.0,0.0,0.0,0.0,0.0,0.0,0.0,0.0,0.0,0.0,-5.5703,-5.5703,-5.5703,-5.5703,-5.5703,-5.5703,-5.5703,-5.5703,-5.5703,-5.5703,-5.5703,-5.5703,-5.5703,-5.5703,-5.5703,-5.5703,-5.5665,-5.4857,0.0,-5.4395,-5.29,-5.2035,-5.1583,-5.1036,-5.0677,-5.0472,-5.0738,-5.0676,-5.0563,-5.1419,-5.1414,-5.113,-5.1797,-5.2139,-5.2245,-5.2066,-5.2279,-5.251,-5.2106,-5.1375,-5.0798,-5.1221,-5.101,-5.0587,-5.0183,-5.0067,-4.9952,-4.9529,-4.9779,-5.0202,-5.0606,-4.9912,-4.9194,-4.9175,-4.7776,-4.6799,-4.7182,-4.6301,-4.5759,-4.622,-4.5874,-4.5586,-4.5586,-4.5586,-4.5586,-4.5586,-4.5586,-4.5586,-4.5586,-4.5586,-4.5586,-4.5586,-4.5586,-4.5586,-4.5586,-4.5586,-4.5586,-4.5586,-4.5586,-4.5586,-4.5586,-4.5586,-4.5586,-5.3711,-5.5254,-5.6562,-5.6367,-5.4355,-5.1277,-4.6923,-4.3033,0.0,0.0,-3.3276,-3.2237,-3.1775,0.0,0.0,0.0,0.0,0.0,0.0,0.0,0.0,0.0,0.0,0.0,0.0,0.0,0.0,0.0,0.0,0.0,-5.5703,-5.5703,-5.5703,-5.5703,-5.5703,-5.5703,-5.5703,-5.5703,-5.5703,-5.5703,-5.5703,-5.5703,-5.5703,-5.5703,-5.5703,-5.5665,-5.503,0.0,-5.4684,-5.3736,-5.287,-5.2113,-5.2196,-5.179,-5.1282,-5.2037,-5.194,-5.1591,-5.2773,-5.276,-5.2318,-5.3203,-5.3356,-5.3203,-5.3203,-5.3203,-5.3203,-5.3203,-5.2241,-5.1375,-5.201,-5.1568,-5.0914,-5.0741,-5.0702,-5.0702,-5.0702,-5.0702,-5.0702,-5.0702,-5.0548,-5.026,-4.976,-4.8798,-4.8163,-4.8355,-4.6951,-4.6124,-4.6817,-4.6144,-4.5586,-4.5586,-4.5586,-4.5586,-4.5586,-4.5586,-4.5586,-4.5586,-4.5586,-4.5586,-4.5586,-4.5586,-4.5586,-4.5586,-4.5586,-4.5586,-4.5586,-4.5586,-4.5586,-4.5586,-4.5586,-4.5586,-5.3594,-5.5176,-5.6406,-5.5625,-5.3457,-5.0379,-4.6019,0.0,0.0,-3.4892,-3.2333,-3.0852,-3.1564,-3.1179,0.0,0.0,0.0,0.0,0.0,0.0,0.0,0.0,0.0,0.0,0.0,0.0,0.0,0.0,0.0,0.0,-5.5703,-5.5703,-5.5703,-5.5703,-5.5703,-5.5703,-5.5703,-5.5703,-5.5703,-5.5703,-5.5703,-5.5703,-5.5703,-5.5703,-5.5703,-5.5703,-5.5607,0.0,0.0,-5.4317,-5.4206,-5.449,-5.1964,-5.1575,-5.2367,-5.1675,-5.1599,-5.197,-5.2874,-5.3145,-5.3222,-5.4107,-5.3857,-5.3203,-5.3203,-5.3203,-5.3203,-5.3203,-5.3087,-5.2991,-5.3068,-5.2452,-5.1606,-5.0856,-5.0702,-5.0702,-5.0702,-5.0702,-5.0702,-5.0702,-5.0048,-4.974,-5.0452,-4.9202,-4.8375,-4.9163,-4.7855,-4.6817,-4.6894,-4.6144,-4.5586,-4.5586,-4.5586,-4.5586,-4.5586,-4.5586,-4.5586,-4.5586,-4.5586,-4.5586,-4.5586,-4.5586,-4.5586,-4.5586,-4.5586,-4.5586,-4.5586,-4.5586,-4.5586,-4.5586,-4.5586,-4.5586,-5.2121,-5.4414,-5.5723,-5.539,-5.2578,-4.8998,-4.5554,0.0,-3.6312,-3.4591,-3.2199,-3.0679,-3.1545,-3.0987,-3.091,0.0,0.0,0.0,0.0,0.0,0.0,0.0,0.0,0.0,0.0,0.0,0.0,0.0,0.0,0.0,-5.5703,-5.5703,-5.5703,-5.5703,-5.5703,-5.5703,-5.5703,-5.5703,-5.5703,-5.5703,-5.5703,-5.5703,-5.5703,-5.5703,-5.5434,-5.4991,-5.5491,0.0,0.0,-5.446,-5.4143,-5.3832,-5.2681,-5.2533,-5.2935,-5.2571,-5.254,-5.2818,-5.3683,-5.3645,-5.3414,-5.478,-5.4664,-5.4068,-5.4568,-5.4376,-5.4087,-5.4568,-5.3972,-5.3318,-5.3857,-5.2953,-5.1702,-5.0894,-5.0702,-5.0702,-5.0702,-5.0702,-5.0702,-5.0702,-5.0414,-5.0279,-5.0625,-4.9683,-4.9183,-5.0048,-4.8317,-4.7067,-4.7567,-4.6432,-4.5586,-4.5586,-4.5586,-4.5586,-4.5586,-4.5586,-4.5586,-4.5586,-4.5586,-4.5586,-4.5586,-4.5586,-4.5586,-4.5586,-4.5586,-4.5586,-4.5586,-4.5586,-4.5586,-4.5586,-4.5586,-4.5586,-4.8847,-5.2108,-5.432,-5.3796,-5.1025,-4.7556,0.0,0.0,-3.5303,-3.3769,-3.1833,-3.059,-3.1198,-3.0814,-3.059,0.0,0.0,-3.3064,0.0,0.0,0.0,0.0,0.0,0.0,0.0,0.0,0.0,0.0,0.0,0.0,-5.5703,-5.5703,-5.5703,-5.5703,-5.5703,-5.5703,-5.5703,-5.5453,-5.5338,-5.5338,-5.5338,-5.5203,-5.4972,-5.5472,-5.5198,-5.4322,-5.5025,0.0,0.0,-5.4161,-5.376,-5.3164,-5.2933,-5.2818,-5.2856,-5.3106,-5.3203,-5.3356,-5.4472,-5.4299,-5.3818,-5.5241,-5.5164,-5.4645,-5.5453,-5.5145,-5.4664,-5.5472,-5.4684,-5.3606,-5.3703,-5.2818,-5.1702,-5.0894,-5.0702,-5.0702,-5.0702,-5.0702,-5.0702,-5.0702,-5.0702,-5.0702,-5.0702,-5.0183,-4.999,-5.0606,-4.8721,-4.7471,-4.8029,-4.6644,-4.5586,-4.5586,-4.5586,-4.5586,-4.5586,-4.5586,-4.5586,-4.5586,-4.5586,-4.5586,-4.5586,-4.5586,-4.5586,-4.5586,-4.5586,-4.5586,-4.5586,-4.5586,-4.5586,-4.5586,-4.5586,-4.5586,-4.3382,-4.7814,-5.2028,-5.0285,-4.8585,-4.6166,0.0,0.0,-3.4853,-3.2269,-3.1025,-3.0398,-3.0398,-3.0398,-3.0398,-3.0398,-3.1814,0.0,0.0,0.0,0.0,0.0,0.0,0.0,0.0,0.0,0.0,0.0,0.0,0.0,-5.5703,-5.5703,-5.5703,-5.5703,-5.5703,-5.5703,-5.5703,-5.4914,-5.4511,-5.4511,-5.4511,-5.4068,-5.328,-5.4934,-5.501,-5.383,0.0,0.0,0.0,-5.3382,-5.3222,-5.3106,-5.226,-5.1914,-5.2029,-5.2876,-5.3203,-5.3433,-5.5107,-5.5164,-5.4626,-5.5434,-5.5164,-5.4645,-5.5453,-5.5145,-5.4664,-5.5472,-5.5107,-5.4087,-5.2375,-5.1914,-5.1702,-5.0894,-5.0702,-5.0702,-5.0702,-5.0702,-5.0702,-5.0702,-5.0702,-5.0702,-5.0702,-5.0683,-5.0683,-5.0702,-4.9202,-4.8086,-4.8105,-4.6644,-4.5586,-4.5586,-4.5586,-4.5586,-4.5586,-4.5586,-4.5586,-4.5586,-4.5586,-4.5586,-4.5586,-4.5586,-4.5586,-4.5586,-4.5586,-4.5586,-4.5586,-4.5586,-4.5586,-4.5586,-4.5586,-4.5586,-3.9044,-4.1731,-4.3589,-4.3041,-4.1609,-3.9785,-3.7752,-3.5058,-3.2767,-3.1884,-3.1006,-3.0398,-3.0398,-3.0398,-3.0794,-3.1929,-3.2545,0.0,0.0,0.0,0.0,0.0,0.0,0.0,0.0,0.0,0.0,0.0,0.0,0.0,-5.5703,-5.5703,-5.5703,-5.5703,-5.5164,-5.4876,-5.4876,-5.4049,-5.3606,-5.3606,-5.3606,-5.378,-5.4087,-5.403,-5.3776,0.0,0.0,-5.3178,-5.2478,-5.2373,-5.2318,-5.2241,-5.1395,-5.1414,-5.1875,-5.1587,-5.1837,-5.2395,-5.2933,-5.2953,-5.2856,-5.3703,-5.3818,-5.3664,-5.3914,-5.4607,-5.5261,-5.4953,-5.4703,-5.4107,-5.2356,-5.1914,-5.1702,-5.0894,-5.0702,-5.0702,-5.0702,-5.0702,-5.0702,-5.0702,-5.0702,-5.0702,-5.0702,-5.0702,-5.0702,-5.0702,-4.9221,-4.8105,-4.8105,-4.6644,-4.5586,-4.5586,-4.5586,-4.5586,-4.5586,-4.5586,-4.5586,-4.5586,-4.5586,-4.5586,-4.5586,-4.5586,-4.5586,-4.5586,-4.5586,-4.5586,-4.5586,-4.5586,-4.5586,-4.5586,-4.5586,-4.5586,0.0,-3.6881,-3.8488,-3.819,-3.7046,0.0,0.0,-3.2883,-3.1249,-3.1218,-3.0794,-3.0398,-3.0398,-3.0398,-3.0852,-3.2218,-3.2699,0.0,0.0,0.0,0.0,0.0,0.0,0.0,0.0,0.0,0.0,0.0,0.0,0.0,-5.4986,-5.5138,-5.5107,-5.4761,-5.4587,-5.4337,-5.401,-5.3145,-5.2722,-5.2722,-5.2722,-5.2837,-5.3068,-5.3164,-5.2948,0.0,-5.2642,-5.2333,0.0,-5.1508,-5.1452,-5.1395,-5.0894,-5.101,-5.1414,-5.1221,-5.1471,-5.1952,-5.2279,-5.2183,-5.2049,-5.2933,-5.3203,-5.3203,-5.3203,-5.3933,-5.4587,-5.376,-5.353,-5.3203,-5.1818,-5.1452,-5.1318,-5.0818,-5.0702,-5.0702,-5.0702,-5.0702,-5.0702,-5.0702,-5.0702,-5.0702,-5.0702,-5.0702,-5.0587,-5.026,-4.9279,-4.8355,-4.774,-4.674,-4.5951,-4.5624,-4.5586,-4.5586,-4.5586,-4.5586,-4.5586,-4.5586,-4.5586,-4.5586,-4.5586,-4.5586,-4.5586,-4.5586,-4.5586,-4.5586,-4.5586,-4.5586,-4.5586,-4.5586,-4.5586,-4.5586,0.0,0.0,0.0,0.0,0.0,0.0,0.0,-3.1295,0.0,-3.0206,-3.0263,-3.0321,-3.0379,-3.0436,-3.0814,-3.1737,0.0,0.0,0.0,0.0,0.0,0.0,0.0,0.0,0.0,0.0,0.0,0.0,0.0,0.0,-5.3798,-5.4166,-5.401,-5.3145,-5.3895,-5.3933,-5.3126,-5.226,-5.1818,-5.1818,-5.1818,-5.1452,-5.0837,-5.2337,-5.242,0.0,-5.1674,-5.1593,-5.1223,-5.0851,-5.0702,-5.0702,-5.0702,-5.0702,-5.0779,-5.1548,-5.1818,-5.1933,-5.2741,-5.2491,-5.1952,-5.276,-5.3029,-5.3029,-5.3029,-5.3106,-5.3029,-5.2164,-5.1914,-5.1722,-5.0914,-5.0702,-5.0702,-5.0702,-5.0702,-5.0702,-5.0702,-5.0702,-5.0702,-5.0702,-5.0702,-5.0702,-5.0702,-5.0702,-5.0433,-4.9606,-4.9394,-4.8759,-4.7201,-4.6894,-4.6509,-4.5682,-4.5586,-4.5586,-4.5586,-4.5586,-4.5586,-4.5586,-4.5586,-4.5586,-4.5586,-4.5586,-4.5586,-4.5586,-4.5586,-4.5586,-4.5586,-4.5586,-4.5586,-4.5586,-4.5586,-4.5586,-2.6283,0.0,-2.7918,-2.7745,-2.8044,-2.8332,0.0,0.0,0.0,0.0,0.0,0.0,0.0,0.0,0.0,0.0,0.0,0.0,0.0,0.0,0.0,0.0,0.0,0.0,0.0,0.0,0.0,0.0,0.0,-5.323,-5.3325,-5.3449,-5.3106,-5.2241,-5.2414,-5.2414,-5.2222,-5.1395,-5.0971,-5.0971,-5.0971,-5.1202,-5.1606,-5.1395,-5.1451,-5.1734,-5.1221,-5.0932,-5.0813,-5.074,-5.0702,-5.0702,-5.0702,-5.0702,-5.0721,-5.0914,-5.0971,-5.101,-5.1221,-5.1144,-5.101,-5.1221,-5.1279,-5.1279,-5.1279,-5.2183,-5.3029,-5.2164,-5.1914,-5.1722,-5.0914,-5.0702,-5.0702,-5.0702,-5.0702,-5.0702,-5.0702,-5.0702,-5.0702,-5.0702,-5.0702,-5.0702,-5.0702,-5.0702,-5.0625,-5.0433,-4.926,-4.8259,-4.7875,-4.6701,-4.5817,-4.5605,-4.5586,-4.5586,-4.5586,-4.5586,-4.5586,-4.5586,-4.5586,-4.5586,-4.5586,-4.5586,-4.5586,-4.5586,-4.5586,-4.5586,-4.5586,-4.5586,-4.5586,-4.5586,-4.5586,-4.5586,-2.508,-2.5126,-2.5163,-2.5163,-2.5527,-2.5967,0.0,0.0,0.0,0.0,0.0,0.0,0.0,0.0,0.0,0.0,0.0,0.0,0.0,0.0,0.0,0.0,0.0,0.0,0.0,0.0,0.0,0.0,0.0,-5.2322,-5.2334,-5.2337,-5.2039,-5.1375,-5.1176,-5.1176,-5.1356,-5.0914,-5.0702,-5.0702,-5.0702,-5.0933,-5.1337,-5.0894,-5.0933,-5.1337,-5.0894,-5.0702,-5.0702,-5.0702,-5.0702,-5.0702,-5.0702,-5.0702,-5.0702,-5.0702,-5.0702,-5.0702,-5.0702,-5.0702,-5.0702,-5.0702,-5.0702,-5.0702,-5.0702,-5.1587,-5.251,-5.2029,-5.1645,-5.1337,-5.1279,-5.0971,-5.0702,-5.0702,-5.0702,-5.0702,-5.0702,-5.0702,-5.0702,-5.0702,-5.0702,-5.0702,-5.0702,-5.0702,-5.0548,-5.0164,-4.9644,-4.8875,-4.7702,-4.7086,-4.6451,-4.5682,-4.5586,-4.5586,-4.5586,-4.5586,-4.5586,-4.5586,-4.5586,-4.5586,-4.5586,-4.5586,-4.5586,-4.5586,-4.5586,-4.5513,-4.5362,-4.5513,-4.5513,-4.5362,-4.5513,-4.5586,-2.4804,-2.504,-2.5228,-2.5019,-2.4974,-2.5165,0.0,0.0,0.0,0.0,0.0,0.0,0.0,0.0,0.0,0.0,0.0,0.0,0.0,0.0,0.0,0.0,0.0,0.0,0.0,0.0,0.0,0.0,0.0,-5.1385,-5.1033,-5.1028,-5.0832,-5.0431,-5.0214,-5.0237,-5.0491,-5.0625,-5.0702,-5.0702,-5.0702,-5.0702,-5.0702,-5.0702,-5.0702,-5.0702,0.0,0.0,-5.0683,-5.0548,-5.0567,-5.0664,-5.0414,-5.0471,-5.0683,-5.0548,-5.0587,-5.0702,-5.0702,-5.0702,-5.0702,-5.0702,-5.0702,-5.0702,-5.0702,-5.1183,-5.1741,-5.1875,-5.151,-5.1202,-5.176,-5.1395,-5.0837,-5.0721,-5.0702,-5.0702,-5.0702,-5.0702,-5.0702,-5.0702,-5.0702,-5.0702,-5.0702,-5.0702,-5.0452,-4.9702,-5.0106,-4.9663,-4.7375,-4.7567,-4.7317,-4.5759,-4.5586,-4.5586,-4.5586,-4.5586,-4.5586,-4.5586,-4.5586,-4.5586,-4.5586,-4.5586,-4.5586,-4.5586,-4.5586,-4.5457,-4.518,-4.5457,-4.5438,-4.518,-4.5476,-4.5586,-2.4804,-2.5684,-2.6313,-2.5129,-2.4828,-2.4865,0.0,0.0,0.0,0.0,0.0,0.0,0.0,0.0,0.0,0.0,0.0,0.0,0.0,0.0,0.0,0.0,0.0,0.0,0.0,0.0,0.0,0.0,0.0,-4.949,-4.9769,-4.9778,-4.9565,-4.911,-4.9754,-4.9927,-4.9606,-5.0317,-5.0702,-5.0702,-5.0702,-5.0702,-5.0702,-5.0702,-5.0702,-5.0702,0.0,-5.0702,-5.0625,-4.9894,-5.0029,-5.0548,-4.9086,-4.9394,-5.0606,-4.9875,-5.0067,-5.0702,-5.0702,-5.0702,-5.0702,-5.0702,-5.0702,-5.0702,-5.0702,-5.0779,-5.1029,-5.1722,-5.2337,-5.2664,-5.2068,-5.1818,-5.1548,-5.0856,-5.0702,-5.0702,-5.0702,-5.0702,-5.0702,-5.0702,-5.0702,-5.0702,-5.0702,-5.0702,-5.0644,-5.051,-4.999,-4.9183,-4.8067,-4.7432,-4.6701,-4.5701,-4.5586,-4.5586,-4.5586,-4.5586,-4.5586,-4.5586,-4.5586,-4.5586,-4.5586,-4.5586,-4.5586,-4.5586,-4.5586,-4.5568,-4.5513,-4.5568,-4.5568,-4.5513,-4.5568,-4.5586,-2.4478,-2.4948,-2.5375,-2.5187,-2.5851,-2.648,0.0,0.0,0.0,0.0,0.0,0.0,0.0,0.0,0.0,0.0,0.0,0.0,0.0,0.0,0.0,0.0,0.0,0.0,0.0,0.0,0.0,0.0,0.0,0.0,-4.8862,-4.8824,-4.8613,-4.8166,-4.8529,-4.8914,-4.9394,-4.9336,-4.976,-5.0702,-5.0702,-5.0702,-5.0702,-5.0702,-5.0433,-4.999,0.0,-4.9721,-4.926,-4.8856,-4.8933,-4.926,-4.8933,-4.9298,-4.9952,-4.9548,-4.9952,-5.0567,-4.9625,-4.9913,-5.0606,-5.0144,-5.0317,-5.0702,-5.0702,-5.0991,-5.1433,-5.1798,-5.1875,-5.1856,-5.1895,-5.1587,-5.1164,-5.0779,-5.0702,-5.0702,-5.0702,-5.0702,-5.0702,-5.0702,-5.0702,-5.0702,-5.0702,-5.0702,-5.0702,-5.0702,-4.9952,-4.9086,-4.8221,-4.7413,-4.6567,-4.5682,-4.5586,-4.5586,-4.5586,-4.5586,-4.5586,-4.5586,-4.5586,-4.5586,-4.5586,-4.5586,-4.5586,-4.5586,-4.5586,-4.5513,-4.5322,-4.5513,-4.5513,-4.5342,-4.5513,-4.5586,-2.419,-2.4483,-2.4814,-2.5072,0.0,0.0,-2.7601,0.0,0.0,0.0,0.0,0.0,0.0,0.0,0.0,0.0,0.0,0.0,0.0,0.0,0.0,0.0,0.0,0.0,0.0,0.0,0.0,0.0,0.0,0.0,-4.787,-4.7814,-4.7616,-4.7308,-4.7419,-4.7917,-4.8817,-4.8336,-4.8875,-5.0375,-5.0183,-5.0087,-5.0087,-5.0087,-4.9721,-4.9106,-4.9106,-4.8721,-4.8086,-4.7894,-4.7932,-4.8125,-4.8394,-4.8625,-4.8836,-4.9029,-4.951,-4.9894,-4.8567,-4.9106,-5.0279,-4.9625,-4.999,-5.0702,-5.0702,-5.1125,-5.1625,-5.1625,-5.1183,-5.0894,-5.1702,-5.1433,-5.0933,-5.0741,-5.0702,-5.0702,-5.0702,-5.0702,-5.0702,-5.0702,-5.0702,-5.0702,-5.0702,-5.0702,-5.0702,-5.0702,-4.9952,-4.9086,-4.8221,-4.7413,-4.6567,-4.5682,-4.5586,-4.5586,-4.5586,-4.5586,-4.5586,-4.5586,-4.5586,-4.5586,-4.5586,-4.5586,-4.5586,-4.5586,-4.5586,-4.5457,-4.5222,-4.5457,-4.5476,-4.5222,-4.5495,-4.5586,-2.419,-2.5291,-2.608,-2.463,0.0,0.0,-2.9113,0.0,0.0,0.0,0.0,0.0,0.0,0.0,0.0,0.0,0.0,0.0,0.0,0.0,0.0,0.0,0.0,0.0,0.0,0.0,0.0,0.0,0.0,0.0,-4.6499,-4.6531,-4.6505,-4.6405,-4.7114,-4.7363,-4.7086,-4.7759,-4.8567,-4.9471,-4.8663,-4.8298,-4.8298,-4.8298,-4.8259,-4.8202,-4.8202,-4.8163,-4.8048,-4.7298,-4.7432,-4.7952,-4.6451,-4.6374,-4.7182,-4.7932,-4.824,-4.8279,-4.8144,-4.8702,-4.9471,-4.9413,-4.999,-5.0702,-5.0702,-5.0741,-5.0779,-5.0779,-5.0741,-5.0894,-5.1702,-5.1875,-5.1625,-5.0875,-5.0702,-5.0702,-5.0702,-5.0702,-5.0702,-5.0702,-5.0702,-5.0702,-5.0702,-5.0702,-5.0702,-5.0702,-4.9952,-4.9086,-4.8221,-4.7413,-4.6567,-4.5682,-4.5586,-4.5586,-4.5586,-4.5586,-4.5586,-4.5586,-4.5586,-4.5586,-4.5586,-4.5586,-4.5586,-4.5586,-4.5586,-4.5586,-4.5568,-4.5586,-4.5586,-4.5568,-4.5586,-4.5586,-2.419,-2.4997,-2.5695,-2.5089,0.0,0.0,0.0,0.0,0.0,0.0,0.0,0.0,0.0,0.0,0.0,0.0,0.0,0.0,0.0,0.0,0.0,0.0,0.0,0.0,0.0,0.0,0.0,0.0,0.0,0.0,-4.568,-4.6074,-4.6089,-4.557,-4.6068,-4.6494,-4.6913,-4.6663,-4.6971,-4.7855,-4.8029,-4.8105,-4.8105,-4.8105,-4.7836,-4.7355,-4.7355,-4.7048,-4.6509,-4.622,-4.6259,-4.6528,-4.6432,-4.6913,-4.7625,-4.7432,-4.7682,-4.7952,-4.6913,-4.7432,-4.8586,-4.8586,-4.9183,-4.999,-5.0529,-5.0702,-5.0702,-5.0702,-5.0702,-5.076,-5.1068,-5.1144,-5.1087,-5.076,-5.0702,-5.0548,-5.001,-5.0317,-5.0529,-4.999,-5.0317,-5.0702,-5.0702,-5.0702,-5.0702,-5.0702,-4.9952,-4.9086,-4.8221,-4.7413,-4.6567,-4.5682,-4.5586,-4.5586,-4.5586,-4.5586,-4.5586,-4.5586,-4.5586,-4.5586,-4.5586,-4.5586,-4.5586,-4.5586,-4.5586,-4.5586,-4.5586,-4.5586,-4.5586,-4.5586,-4.5586,-4.5586,-2.419,-2.4593,-2.509,0.0,0.0,0.0,0.0,0.0,0.0,0.0,0.0,0.0,0.0,0.0,0.0,0.0,0.0,0.0,0.0,0.0,0.0,0.0,0.0,0.0,0.0,0.0,0.0,0.0,0.0,0.0,0.0,-4.564,-4.5709,-4.5262,-4.5495,-4.5893,-4.649,-4.5893,-4.5893,-4.6509,-4.7048,-4.7317,-4.7317,-4.7317,-4.7009,-4.649,-4.649,-4.6144,-4.5586,-4.5586,-4.5586,-4.5663,-4.6259,-4.6836,-4.724,-4.6682,-4.6836,-4.7144,-4.599,-4.6528,-4.7721,-4.7721,-4.8298,-4.9144,-5.0029,-5.0279,-5.0337,-5.0606,-5.0702,-5.0625,-5.0356,-5.0491,-5.0625,-5.0337,-5.0279,-5.0048,-4.9183,-4.9663,-5.0106,-4.951,-5.0087,-5.0702,-5.0702,-5.0702,-5.0606,-5.0317,-4.9548,-4.8682,-4.7836,-4.7009,-4.6259,-4.5663,-4.5586,-4.5586,-4.5586,-4.5586,-4.5586,-4.5586,-4.5586,-4.5586,-4.5586,-4.5586,-4.5586,-4.5586,-4.5586,-4.5586,-4.5586,-4.5586,-4.5586,-4.5586,-4.5586,-4.5586,-2.419,-2.4208,0.0,0.0,0.0,0.0,0.0,0.0,0.0,0.0,0.0,0.0,0.0,0.0,0.0,0.0,0.0,0.0,0.0,0.0,0.0,0.0,0.0,0.0,0.0,0.0,0.0,0.0,0.0,0.0,0.0,-4.5096,-4.5243,-4.5586,-4.5586,-4.5586,-4.5586,-4.5586,-4.5586,-4.5586,-4.5586,-4.5586,-4.5586,-4.5586,-4.5586,-4.5586,-4.5586,-4.5586,-4.5586,-4.5586,-4.5586,-4.5586,-4.5586,-4.5586,-4.5586,-4.5586,-4.5586,-4.5586,-4.5586,-4.6163,-4.6894,-4.6913,-4.7451,-4.8259,-4.9125,-4.9394,-4.9567,-5.0433,-5.0664,-5.0471,-4.9625,-5.0029,-5.0452,-4.9586,-4.9394,-4.9163,-4.8298,-4.8779,-4.9394,-4.9394,-5.0087,-5.0683,-5.0702,-5.0683,-5.0375,-4.9529,-4.8663,-4.7817,-4.7009,-4.6144,-4.5586,-4.5586,-4.5586,-4.5586,-4.5586,-4.5586,-4.5586,-4.5586,-4.5586,-4.5586,-4.5586,-4.5586,-4.5586,-4.5586,-4.5586,-4.5586,-4.5586,-4.5586,-4.5586,-4.5586,-4.5586,-4.5586,-2.419,-2.4612,0.0,0.0,0.0,0.0,0.0,0.0,0.0,0.0,0.0,0.0,0.0,0.0,0.0,0.0,0.0,0.0,0.0,0.0,0.0,0.0,0.0,0.0,0.0,0.0,0.0,0.0,0.0,0.0,0.0,-4.5322,-4.5495,-4.5586,-4.5586,-4.5586,-4.5586,-4.5586,-4.5586,-4.5586,-4.5586,-4.5586,-4.5586,-4.5586,-4.5586,-4.5586,-4.5586,-4.5586,-4.5586,-4.5586,-4.5586,-4.5586,-4.5586,-4.5586,-4.5586,-4.5586,-4.5586,-4.5586,-4.5586,-4.5759,-4.6086,-4.6701,-4.7067,-4.7413,-4.824,-4.849,-4.8663,-4.9529,-4.9336,-4.8952,-4.9317,-4.9144,-4.8817,-4.8548,-4.8952,-4.9163,-4.8298,-4.8298,-4.8663,-4.9279,-4.9606,-4.9971,-5.0587,-5.0183,-4.9702,-4.9433,-4.8663,-4.7817,-4.7009,-4.6144,-4.5586,-4.5586,-4.5586,-4.5586,-4.5586,-4.5586,-4.5586,-4.5586,-4.5586,-4.5586,-4.5586,-4.5586,-4.5586,-4.5586,-4.5586,-4.5586,-4.5586,-4.5586,-4.5586,-4.5586,-4.5586,-4.5586,-2.419,0.0,0.0,0.0,0.0,0.0,0.0,0.0,0.0,0.0,0.0,0.0,0.0,0.0,0.0,0.0,0.0,0.0,0.0,0.0,0.0,0.0,0.0,0.0,0.0,0.0,0.0,0.0,0.0,0.0,-4.5283,-4.5168,-4.524,-4.5586,-4.5586,-4.5586,-4.5586,-4.5586,-4.5586,-4.5586,-4.5586,-4.5586,-4.5586,-4.5586,-4.5586,-4.5586,-4.5586,-4.5586,-4.5586,-4.5586,-4.5586,-4.5586,-4.5586,-4.5586,-4.5586,-4.5586,-4.5586,-4.5586,-4.5586,-4.5586,-4.5682,-4.6201,-4.6374,-4.6547,-4.7375,-4.7625,-4.7798,-4.8644,-4.8509,-4.8144,-4.8355,-4.8259,-4.8029,-4.7702,-4.8029,-4.8163,-4.7298,-4.7625,-4.8259,-4.8779,-4.9163,-4.9567,-5.0087,-4.9452,-4.8779,-4.8452,-4.7663,-4.6932,-4.6451,-4.5913,-4.5586,-4.5586,-4.5586,-4.5586,-4.5586,-4.5586,-4.5586,-4.5586,-4.5586,-4.5586,-4.5586,-4.5586,-4.5586,-4.5586,-4.5586,-4.5586,-4.5586,-4.5586,-4.5586,-4.5586,-4.5586,-4.5586,0.0,0.0,0.0,0.0,0.0,0.0,0.0,0.0,0.0,0.0,0.0,0.0,0.0,0.0,0.0,0.0,0.0,0.0,0.0,0.0,0.0,0.0,0.0,0.0,0.0,0.0,0.0,0.0,0.0,-4.4528,-4.5316,-4.4624,-4.4547,-4.5336,-4.5355,-4.5413,-4.547,-4.5413,-4.5413,-4.547,-4.5413,-4.5355,-4.5374,-4.5528,-4.5586,-4.5586,-4.5586,-4.5586,-4.5586,-4.5586,-4.5586,-4.5586,-4.5586,-4.5586,-4.5586,-4.5586,-4.5586,-4.5586,-4.5586,-4.5586,-4.5586,-4.5586,-4.5586,-4.574,-4.6547,-4.6778,-4.6951,-4.7759,-4.7932,-4.7721,-4.7067,-4.7375,-4.7702,-4.6971,-4.6836,-4.6682,-4.5893,-4.6855,-4.7913,-4.8067,-4.8682,-4.9202,-4.926,-4.8567,-4.7721,-4.6913,-4.6105,-4.5586,-4.5586,-4.5586,-4.5586,-4.5586,-4.5586,-4.5586,-4.5586,-4.5586,-4.5586,-4.5586,-4.5586,-4.5586,-4.5586,-4.5586,-4.5586,-4.5586,-4.5586,-4.5586,-4.5586,-4.5586,-4.5586,-4.5586,-4.5586,-4.5586,0.0,0.0,0.0,0.0,0.0,0.0,0.0,0.0,0.0,0.0,0.0,0.0,0.0,0.0,0.0,0.0,0.0,0.0,0.0,0.0,0.0,0.0,0.0,0.0,0.0,0.0,0.0,0.0,-4.3417,-4.3431,-4.3624,-4.3451,-4.3431,-4.3624,-4.3643,-4.3932,-4.4566,-4.3951,-4.3951,-4.4566,-4.3932,-4.3643,-4.3682,-4.4989,-4.5586,-4.5586,-4.5586,-4.5586,-4.5586,-4.5586,-4.5586,-4.5586,-4.5586,-4.5586,-4.5586,-4.5586,-4.5586,-4.5586,-4.5586,-4.5586,-4.5586,-4.5586,-4.5586,-4.5624,-4.5817,-4.5874,-4.6047,-4.6932,-4.6663,-4.6259,-4.6778,-4.6528,-4.6086,-4.5913,-4.6394,-4.6855,-4.6663,-4.6374,-4.6528,-4.7836,-4.774,-4.7644,-4.8279,-4.7702,-4.6874,-4.6009,-4.572,-4.5586,-4.5586,-4.5586,-4.5586,-4.5586,-4.5586,-4.5586,-4.5586,-4.5586,-4.5586,-4.5586,-4.5586,-4.5586,-4.5586,-4.5586,-4.5586,-4.5586,-4.5586,-4.5586,-4.5586,-4.5586,-4.5586,-4.5586,-4.5586,-4.5586,0.0,0.0,0.0,0.0,0.0,0.0,0.0,0.0,0.0,0.0,0.0,0.0,0.0,0.0,0.0,0.0,0.0,0.0,0.0,0.0,0.0,0.0,0.0,0.0,0.0,0.0,0.0,-4.3069,-4.2335,-4.222,-4.3066,-4.2316,-4.2239,-4.3066,-4.3104,-4.3297,-4.372,-4.3316,-4.3316,-4.372,-4.3297,-4.3104,-4.3124,-4.3989,-4.4393,-4.4393,-4.4393,-4.4393,-4.4393,-4.4393,-4.4393,-4.4393,-4.4393,-4.4393,-4.4451,-4.4836,-4.497,-4.5028,-4.5451,-4.5586,-4.5586,-4.5586,-4.5586,-4.5586,-4.5586,-4.5586,-4.5682,-4.6144,-4.5951,-4.5701,-4.6163,-4.5932,-4.5586,-4.5586,-4.5951,-4.6278,-4.6278,-4.624,-4.6471,-4.7355,-4.7201,-4.7028,-4.7451,-4.6836,-4.6124,-4.5663,-4.5586,-4.5586,-4.5586,-4.5586,-4.5586,-4.5586,-4.5586,-4.5586,-4.5586,-4.5586,-4.5586,-4.5586,-4.5586,-4.5586,-4.5586,-4.5586,-4.5586,-4.5586,-4.5586,-4.5586,-4.5586,-4.5586,-4.5586,-4.5586,-4.5586,-4.5586,0.0,0.0,0.0,0.0,0.0,0.0,0.0,0.0,0.0,0.0,0.0,0.0,0.0,0.0,0.0,0.0,0.0,0.0,0.0,0.0,0.0,0.0,0.0,0.0,0.0,0.0,-4.222,-4.222,-4.0873,-4.07,-4.2143,-4.0854,-4.0719,-4.2162,-4.222,-4.2297,-4.2431,-4.2297,-4.2354,-4.2643,-4.2508,-4.2374,-4.222,-4.2374,-4.2681,-4.3104,-4.3104,-4.3104,-4.3104,-4.3104,-4.3104,-4.3104,-4.3104,-4.3181,-4.3393,-4.4047,-4.4393,-4.4624,-4.5336,-4.5586,-4.5586,-4.5586,-4.5586,-4.5586,-4.5586,-4.5586,-4.5586,-4.5586,-4.5586,-4.5586,-4.5586,-4.5586,-4.5586,-4.5586,-4.5586,-4.5586,-4.5586,-4.6163,-4.6682,-4.6682,-4.6682,-4.6682,-4.6682,-4.6086,-4.5586,-4.5586,-4.5586,-4.5586,-4.5586,-4.5586,-4.5586,-4.5586,-4.5586,-4.5586,-4.5586,-4.5586,-4.5586,-4.5586,-4.5586,-4.5586,-4.5586,-4.5586,-4.5586,-4.5586,-4.5586,-4.5586,-4.5586,-4.5586,-4.5586,-4.5586,-4.5586,-4.5586,0.0,0.0,0.0,0.0,0.0,0.0,0.0,0.0,0.0,0.0,0.0,0.0,0.0,0.0,0.0,0.0,0.0,0.0,0.0,0.0,0.0,0.0,0.0,0.0,0.0,0.0,-3.8681,-3.8681,-3.8469,-3.843,-3.8661,-3.845,-3.843,-3.8661,-3.8681,-3.9046,-3.9796,-3.9065,-3.9411,-4.0835,-4.0142,-3.9411,-3.8719,-3.945,-4.1008,-4.3104,-4.3104,-4.3104,-4.3104,-4.3104,-4.3104,-4.3104,-4.3104,-4.3528,-4.4143,-4.4259,-4.4778,-4.5432,-4.5547,-4.5586,-4.5586,-4.5586,-4.5586,-4.5586,-4.5586,-4.5586,-4.5586,-4.5586,-4.5586,-4.5586,-4.5586,-4.5586,-4.5586,-4.5586,-4.5586,-4.5586,-4.5586,-4.5682,-4.5759,-4.5759,-4.5759,-4.5759,-4.5759,-4.5682,-4.5586,-4.5586,-4.5586,-4.5586,-4.5586,-4.5586,-4.5586,-4.5586,-4.5586,-4.5586,-4.5586,-4.5586,-4.5586,-4.5586,-4.5586,-4.5586,-4.5586,-4.5586,-4.5586,-4.5586,-4.5586,-4.5586,-4.5586,-4.5586,-4.5586,-4.5586,-4.5586,-4.5586,0.0,0.0,0.0,0.0,0.0,0.0,0.0,0.0,0.0,0.0,0.0,0.0,0.0,0.0,0.0,0.0,0.0,0.0,0.0,0.0,0.0,0.0,0.0,0.0,0.0,-3.8007,-3.8007,-3.8007,-3.7546,-3.7488,-3.7969,-3.7546,-3.7507,-3.7988,-3.8007,-3.818,-3.8565,-3.818,-3.8373,-3.9084,-3.8738,-3.8373,-3.8007,-3.8392,-3.945,-4.0989,-4.145,-4.1643,-4.1643,-4.1643,-4.1643,-4.1643,-4.1643,-4.1854,-4.2277,-4.3278,-4.3874,-4.4335,-4.5259,-4.5586,-4.5586,-4.5586,-4.5586,-4.5586,-4.5586,-4.5586,-4.5586,-4.5586,-4.5586,-4.5586,-4.5586,-4.5586,-4.5586,-4.5586,-4.5586,-4.5586,-4.5586,-4.5586,-4.5586,-4.5586,-4.5586,-4.5586,-4.5586,-4.5586,-4.5586,-4.5586,-4.5586,-4.5586,-4.5586,-4.5586,-4.5586,-4.5586,-4.5586,-4.5586,-4.5586,-4.5586,-4.5586,-4.5586,-4.5586,-4.5586,-4.5586,-4.5586,-4.5586,-4.5586,-4.5586,-4.5586,-4.5586,-4.5586,-4.5586,-4.5586,-4.5586,-4.5586,0.0,0.0,0.0,0.0,0.0,0.0,0.0,0.0,0.0,0.0,0.0,0.0,0.0,0.0,0.0,0.0,0.0,0.0,0.0,0.0,0.0,0.0,0.0,0.0,0.0,-3.6699,-3.6699,-3.6699,-3.6315,-3.6353,-3.7026,-3.6661,-3.6738,-3.7392,-3.7392,-3.7276,-3.7065,-3.7257,-3.7353,-3.7373,-3.7565,-3.745,-3.7046,-3.7488,-3.7911,-3.8392,-3.9642,-4.0296,-4.0489,-4.0489,-4.0489,-4.0489,-4.0489,-4.0642,-4.0989,-4.2297,-4.2912,-4.3316,-4.4759,-4.5259,-4.5297,-4.5528,-4.5586,-4.5586,-4.5586,-4.5586,-4.5586,-4.5586,-4.5586,-4.5586,-4.5586,-4.5586,-4.5586,-4.5586,-4.5586,-4.5586,-4.5586,-4.5586,-4.5586,-4.5586,-4.5586,-4.5586,-4.5586,-4.5586,-4.5586,-4.5586,-4.5586,-4.5586,-4.5586,-4.5586,-4.5586,-4.5586,-4.5586,-4.5586,-4.5586,-4.5586,-4.5586,-4.5586,-4.5586,-4.5586,-4.5586,-4.5586,-4.5586,-4.5586,-4.5586,-4.5586,-4.5586,-4.5586,-4.5586,-4.5586,-4.5586,-4.5586,0.0,0.0,0.0,0.0,0.0,0.0,0.0,0.0,0.0,0.0,0.0,0.0,0.0,0.0,0.0,0.0,0.0,0.0,0.0,0.0,0.0,0.0,0.0,0.0,-3.316,-3.316,-3.316,-3.316,-3.3891,-3.4372,-3.4501,-3.5238,-3.5718,-3.5815,-3.5757,-3.5334,-3.4501,-3.5257,-3.5641,-3.5641,-3.6411,-3.5949,-3.4449,-3.6045,-3.6392,-3.5834,-3.8296,-3.9796,-4.0489,-4.0489,-4.0489,-4.0489,-4.0489,-4.0989,-4.1739,-4.1835,-4.2393,-4.322,-4.4066,-4.4374,-4.4489,-4.5316,-4.5586,-4.5586,-4.5586,-4.5586,-4.5586,-4.5586,-4.5586,-4.5586,-4.5586,-4.5586,-4.5586,-4.5586,-4.5586,-4.5586,-4.5586,-4.5586,-4.5586,-4.5586,-4.5586,-4.5586,-4.5586,-4.5586,-4.5586,-4.5586,-4.5586,-4.5586,-4.5586,-4.5586,-4.5586,-4.5586,-4.5586,-4.5586,-4.5586,-4.5586,-4.5586,-4.5586,-4.5586,-4.5586,-4.5586,-4.5586,-4.5586,-4.5586,-4.5586,-4.5586,-4.5586,-4.5586,-4.5586,-4.5586,-4.5586,-4.5586,0.0,0.0,0.0,0.0,0.0,0.0,0.0,0.0,0.0,0.0,0.0,0.0,0.0,0.0,0.0,0.0,0.0,0.0,0.0,0.0,0.0,0.0,0.0,0.0,-3.2891,-3.2891,-3.2891,-3.2891,-3.3224,-3.3436,-3.3455,-3.3845,-3.4071,-3.409,-3.3994,-3.3754,-3.3391,-3.3699,-3.3833,-3.3833,-3.4122,-3.4237,-3.4199,-3.4237,-3.5007,-3.6295,-3.6699,-3.7642,-3.8931,-3.9488,-3.9719,-3.9777,-4.0296,-4.0681,-4.1027,-4.1585,-4.2008,-4.2393,-4.3239,-4.3528,-4.3662,-4.4489,-4.4759,-4.4759,-4.4759,-4.5163,-4.547,-4.4913,-4.5163,-4.5586,-4.5586,-4.5586,-4.5586,-4.5586,-4.5586,-4.5586,-4.5586,-4.5586,-4.5586,-4.5586,-4.5586,-4.5586,-4.5586,-4.5586,-4.5586,-4.5586,-4.5586,-4.5586,-4.5586,-4.5586,-4.5586,-4.5586,-4.5586,-4.5586,-4.5586,-4.5586,-4.5586,-4.5586,-4.5586,-4.5586,-4.5586,-4.5586,-4.5586,-4.5586,-4.5586,-4.5586,-4.5586,-4.5586,-4.5586,-4.5586,-4.5586,-4.5586,0.0,0.0,0.0,0.0,0.0,0.0,0.0,0.0,0.0,0.0,0.0,0.0,0.0,0.0,0.0,0.0,0.0,0.0,0.0,0.0,0.0,0.0,0.0,-3.1621,-3.1621,-3.191,-3.2083,-3.2083,-3.2429,0.0,-3.2648,-3.3033,-3.3222,-3.3206,-3.2837,-3.2733,-3.2891,-3.266,-3.2667,-3.2936,-3.2987,-3.3141,-3.3417,-3.3397,-3.3987,-3.5078,-3.5372,-3.6449,-3.8046,-3.8623,-3.9027,-3.9354,-3.9892,-4.0258,-4.0566,-4.1143,-4.1354,-4.1489,-4.2354,-4.2854,-4.3239,-4.4047,-4.4489,-4.4739,-4.4739,-4.4932,-4.5086,-4.4816,-4.4932,-4.522,-4.5509,-4.5586,-4.5586,-4.5586,-4.5586,-4.5586,-4.5586,-4.5586,-4.5586,-4.5586,-4.5586,-4.5586,-4.5586,-4.5586,-4.5586,-4.5586,-4.5586,-4.5586,-4.5586,-4.5586,-4.5586,-4.5586,-4.5586,-4.5586,-4.5586,-4.5586,-4.5586,-4.5586,-4.5586,-4.5586,-4.5586,-4.5586,-4.5586,-4.5586,-4.5586,-4.5586,-4.5586,-4.5586,-4.5586,-4.5586,-4.5586,-4.5586,0.0,0.0,0.0,0.0,0.0,0.0,0.0,0.0,0.0,0.0,0.0,0.0,0.0,0.0,0.0,0.0,0.0,0.0,0.0,0.0,0.0,0.0,0.0,-2.9063,-2.9063,-2.989,-3.0429,-3.0441,-3.1299,-3.185,-3.1927,-3.2744,-3.3203,-3.3122,-3.231,-3.2165,-3.2814,-3.2109,-3.2154,-3.2942,-3.3045,-3.2692,-3.1955,-3.3519,-3.3359,-3.2023,-3.441,-3.6411,-3.793,-3.795,-3.8469,-3.9258,-3.9277,-3.9777,-4.0489,-4.0489,-4.0489,-4.0623,-4.147,-4.2335,-4.3181,-4.3989,-4.4855,-4.5547,-4.5547,-4.497,-4.447,-4.5316,-4.4951,-4.4489,-4.5355,-4.5586,-4.5586,-4.5586,-4.5586,-4.5586,-4.5586,-4.5586,-4.5586,-4.5586,-4.5586,-4.5586,-4.5586,-4.5586,-4.5586,-4.5586,-4.5586,-4.5586,-4.5586,-4.5586,-4.5586,-4.5586,-4.5586,-4.5586,-4.5586,-4.5586,-4.5586,-4.5586,-4.5586,-4.5586,-4.5586,-4.5586,-4.5586,-4.5586,-4.5586,-4.5586,-4.5586,-4.5586,-4.5586,-4.5586,-4.5586,-4.5586,-1.9341,0.0,0.0,0.0,0.0,0.0,0.0,0.0,0.0,0.0,0.0,0.0,0.0,0.0,0.0,0.0,0.0,0.0,0.0,0.0,0.0,0.0,-2.8129,-2.8291,-2.8291,-2.8576,-2.875,0.0,-2.9631,-3.0167,-3.0186,-3.1061,-3.1473,-3.1245,-3.1064,-3.0987,-3.1102,-3.0936,-3.0975,-3.1186,-3.1283,-3.1515,-3.1911,-3.2319,-3.2902,-3.3634,-3.4276,-3.518,-3.6238,-3.6815,-3.7565,-3.8411,-3.9046,-3.9777,-4.0489,-4.0489,-4.0489,-4.0527,-4.0777,-4.1431,-4.2297,-4.3143,-4.3989,-4.4662,-4.4662,-4.4489,-4.4355,-4.4586,-4.4489,-4.4489,-4.5355,-4.5586,-4.5586,-4.5586,-4.5586,-4.5586,-4.5586,-4.5586,-4.5586,-4.5586,-4.5586,-4.5586,-4.5586,-4.5586,-4.5586,-4.5586,-4.5586,-4.5586,-4.5586,-4.5586,-4.5586,-4.5586,-4.5586,-4.5586,-4.5586,-4.5586,-4.5586,-4.5586,-4.5586,-4.5586,-4.5586,-4.5586,-4.5586,-4.5586,-4.5586,-4.5586,-4.5586,-4.5586,-4.5586,-4.5586,-4.5586,-4.5586,0.0,0.0,0.0,0.0,0.0,0.0,-2.1544,-2.3006,-2.4391,0.0,0.0,0.0,0.0,0.0,0.0,0.0,0.0,0.0,0.0,0.0,0.0,0.0,-2.7206,-2.7479,-2.7505,-2.7892,-2.814,-2.815,-2.8667,-2.9006,-2.9006,-2.9516,-2.9736,-2.9544,-2.9583,-2.9548,-2.9433,-2.9867,-3.009,-3.009,-3.0516,-3.0996,-3.1484,-3.1728,-3.2184,-3.282,-3.3782,-3.4276,-3.4507,-3.5718,-3.6699,-3.7546,-3.8411,-3.9258,-4.0027,-4.0373,-4.0489,-4.0489,-4.0489,-4.1066,-4.1893,-4.2393,-4.3124,-4.3855,-4.4201,-4.4066,-4.3951,-4.4643,-4.4836,-4.4951,-4.547,-4.5586,-4.5586,-4.5586,-4.5586,-4.5586,-4.5586,-4.5586,-4.5586,-4.5586,-4.5586,-4.5586,-4.5586,-4.5586,-4.5586,-4.5586,-4.5586,-4.5586,-4.5586,-4.5586,-4.5586,-4.5586,-4.5586,-4.5586,-4.5586,-4.5586,-4.5586,-4.5586,-4.5586,-4.5586,-4.5586,-4.5586,-4.5586,-4.5586,-4.5586,-4.5586,-4.5586,-4.5586,-4.5586,-4.5586,-4.5586,-4.5586,0.0,0.0,0.0,0.0,0.0,0.0,-2.2269,-2.3209,-2.417,-2.4965,0.0,0.0,0.0,0.0,0.0,0.0,0.0,0.0,0.0,0.0,0.0,0.0,-2.6091,-2.6592,-2.6648,-2.7426,-2.7911,-2.7911,-2.8065,-2.8184,-2.8281,-2.8295,-2.8272,-2.8181,-2.8196,-2.817,-2.8099,-2.901,-2.949,-2.9521,-3.0439,-3.0878,-3.0891,-3.1592,-3.1463,-3.0868,-3.309,-3.3622,-3.3026,-3.468,-3.5892,-3.6796,-3.7661,-3.8527,-3.9392,-4.02,-4.0489,-4.0489,-4.0489,-4.1066,-4.1797,-4.1797,-4.2393,-4.3239,-4.3951,-4.3605,-4.3297,-4.4874,-4.5451,-4.5586,-4.5586,-4.5586,-4.5586,-4.5586,-4.5586,-4.5586,-4.5586,-4.5586,-4.5586,-4.5586,-4.5586,-4.5586,-4.5586,-4.5586,-4.5586,-4.5586,-4.5586,-4.5586,-4.5586,-4.5509,-4.5451,-4.5451,-4.5451,-4.5451,-4.5451,-4.5528,-4.5586,-4.5586,-4.5586,-4.5586,-4.5586,-4.5586,-4.5586,-4.5586,-4.5586,-4.5586,-4.5586,-4.5586,-4.5586,-4.5586,-4.5568,-4.5531,0.0,0.0,0.0,0.0,0.0,0.0,-2.1654,-2.3149,-2.4641,0.0,0.0,0.0,0.0,0.0,0.0,0.0,0.0,0.0,0.0,0.0,0.0,0.0,-2.5678,-2.5813,-2.583,-2.6058,-2.6191,-2.6191,-2.6852,-2.7539,-2.8184,-2.8273,-2.8246,-2.8121,-2.8168,-2.817,-2.8099,-2.8926,-2.9394,-2.9521,-3.0342,-3.0742,-3.0772,-3.1559,-3.1781,-3.1635,-3.2686,-3.3064,-3.2987,-3.4026,-3.5334,-3.6796,-3.7661,-3.8527,-3.9392,-4.02,-4.0489,-4.0489,-4.0489,-4.1066,-4.1797,-4.1797,-4.2393,-4.3124,-4.3297,-4.2739,-4.2277,-4.3297,-4.4547,-4.5586,-4.5586,-4.5586,-4.5586,-4.5586,-4.5586,-4.5586,-4.5586,-4.5586,-4.5586,-4.5586,-4.5586,-4.5586,-4.5586,-4.5586,-4.5586,-4.5586,-4.5586,-4.5586,-4.5586,-4.4989,-4.4547,-4.4547,-4.4547,-4.4547,-4.4547,-4.5201,-4.5586,-4.5586,-4.5586,-4.5586,-4.5586,-4.5586,-4.5586,-4.5586,-4.5586,-4.5586,-4.5586,-4.5586,-4.5586,-4.5586,-4.5322,-4.5201,0.0,0.0,0.0,-2.1464,0.0,0.0,0.0,-2.402,-2.5143,-2.4683,-2.4677,0.0,0.0,0.0,0.0,0.0,0.0,0.0,0.0,0.0,0.0,0.0,-2.5582,-2.5605,-2.5648,-2.5687,-2.5703,-2.5703,-2.6094,-2.6523,-2.6934,-2.6992,-2.6969,-2.69,-2.6949,-2.7145,-2.7546,-2.8345,-2.8779,-2.8865,-3.0115,-3.0494,-3.0127,-3.0898,-3.1226,-3.1244,-3.1987,-3.2295,-3.2372,-3.3199,-3.4295,-3.5584,-3.6853,-3.7623,-3.8104,-3.8931,-3.9527,-3.9892,-3.9892,-4.045,-4.1143,-4.1143,-4.145,-4.1873,-4.2316,-4.245,-4.2547,-4.2989,-4.3701,-4.4355,-4.4355,-4.4355,-4.4355,-4.4355,-4.4355,-4.4355,-4.4355,-4.4355,-4.447,-4.4874,-4.4624,-4.4624,-4.5451,-4.5586,-4.5451,-4.5009,-4.4951,-4.4797,-4.4393,-4.4316,-4.4297,-4.4297,-4.4682,-4.4951,-4.4951,-4.5336,-4.5586,-4.5586,-4.5586,-4.5586,-4.5586,-4.5586,-4.5586,-4.5586,-4.5586,-4.5586,-4.5586,-4.5586,-4.5586,-4.5586,-4.5262,-4.5096,0.0,0.0,0.0,0.0,0.0,-2.4503,0.0,0.0,0.0,-2.5416,0.0,0.0,0.0,0.0,0.0,0.0,0.0,0.0,0.0,0.0,0.0,0.0,-2.5522,-2.564,-2.5683,-2.5703,-2.5703,-2.5703,-2.5703,-2.5703,-2.5703,-2.5703,-2.5703,-2.5703,-2.5703,-2.6035,-2.6738,-2.753,-2.7951,-2.7962,-2.9479,-2.9925,-2.9452,-3.0067,-3.0417,-3.0583,-3.1198,-3.1448,-3.1506,-3.2333,-3.3083,-3.3891,-3.5757,-3.6565,-3.6815,-3.768,-3.845,-3.9046,-3.9046,-3.9469,-4.0008,-4.0008,-4.0123,-4.0431,-4.1296,-4.2162,-4.2854,-4.2854,-4.297,-4.3104,-4.3104,-4.3104,-4.3104,-4.3104,-4.3104,-4.3104,-4.3104,-4.3104,-4.3297,-4.3932,-4.3547,-4.3585,-4.5086,-4.522,-4.4874,-4.4162,-4.4066,-4.3835,-4.3181,-4.3528,-4.3816,-4.3816,-4.4451,-4.4874,-4.4874,-4.5009,-4.5182,-4.5336,-4.5336,-4.5413,-4.5586,-4.5586,-4.5586,-4.5586,-4.5586,-4.5586,-4.5586,-4.5586,-4.5586,-4.5586,-4.5262,-4.5096,0.0,0.0,0.0,0.0,-2.4274,0.0,0.0,0.0,-2.5507,-2.5488,0.0,0.0,0.0,0.0,0.0,0.0,0.0,0.0,0.0,0.0,0.0,-2.4448,-2.5229,-2.5681,-2.5703,-2.5703,-2.5703,-2.5703,-2.5703,-2.5703,-2.5703,-2.5703,-2.5703,-2.5703,-2.5703,-2.5742,-2.5859,-2.6587,-2.6999,-2.7046,-2.7962,-2.8686,-2.9245,-2.9385,-2.981,-3.0417,-3.0513,-3.0552,-3.0609,-3.1487,-3.1891,-3.2237,-3.468,-3.6084,-3.6815,-3.768,-3.8065,-3.8142,-3.8142,-3.82,-3.8277,-3.8277,-3.8815,-3.9585,-4.0392,-4.1258,-4.195,-4.195,-4.2508,-4.3104,-4.3104,-4.3104,-4.3104,-4.3104,-4.3104,-4.3104,-4.3104,-4.3104,-4.3124,-4.322,-4.3162,-4.3393,-4.4297,-4.3855,-4.3355,-4.3258,-4.3239,-4.3201,-4.3104,-4.2508,-4.2085,-4.2085,-4.2181,-4.2239,-4.2239,-4.2931,-4.3682,-4.4393,-4.4451,-4.4778,-4.5566,-4.5586,-4.5586,-4.5586,-4.5586,-4.5586,-4.5586,-4.5586,-4.5586,-4.5586,-4.5262,-4.5096,0.0,0.0,0.0,0.0,0.0,0.0,-2.5206,0.0,-2.5607,0.0,0.0,0.0,0.0,0.0,0.0,0.0,-2.2857,0.0,0.0,0.0,0.0,0.0,0.0,0.0,-2.5644,-2.5703,-2.5703,-2.5703,-2.5703,-2.5703,-2.5703,-2.5703,-2.5703,-2.5703,-2.5703,-2.5937,-2.6445,-2.6679,-2.6806,-2.6853,-2.8142,-2.8665,-2.8539,-2.9544,-3.0162,-3.0467,-3.0417,-3.0398,-3.0417,-3.0794,-3.1237,-3.1814,-3.2891,-3.4103,-3.5353,-3.6238,-3.6834,-3.7257,-3.7257,-3.7584,-3.8084,-3.8584,-3.8988,-3.945,-4.0258,-4.0758,-4.1046,-4.1046,-4.1316,-4.1585,-4.1585,-4.1585,-4.1585,-4.1585,-4.1585,-4.1585,-4.1585,-4.1585,-4.1739,-4.2258,-4.1931,-4.1854,-4.2701,-4.2989,-4.2931,-4.2431,-4.2354,-4.2162,-4.1662,-4.172,-4.1797,-4.1797,-4.2258,-4.2547,-4.2547,-4.2893,-4.3239,-4.3585,-4.4047,-4.4682,-4.5547,-4.5586,-4.5586,-4.5586,-4.5586,-4.5586,-4.5586,-4.5586,-4.5586,-4.5586,-4.5262,-4.5096,-2.375,0.0,0.0,0.0,0.0,0.0,0.0,0.0,0.0,0.0,0.0,0.0,0.0,0.0,0.0,0.0,0.0,-2.2926,0.0,0.0,0.0,0.0,0.0,0.0,0.0,-2.4979,-2.5098,-2.5332,-2.5332,-2.5449,-2.5684,-2.5703,-2.5703,-2.5703,-2.5703,-2.5996,-2.6641,-2.6503,-2.6437,-2.6458,-2.7612,-2.7962,-2.7663,-2.9137,-2.9917,-3.014,-3.0333,-3.0398,-3.0398,-3.0398,-3.0775,-3.1371,-3.1621,-3.2583,-3.3949,-3.4814,-3.5661,-3.6372,-3.6372,-3.6796,-3.7469,-3.8315,-3.8584,-3.8738,-3.9565,-3.9969,-4.0162,-4.0162,-4.0315,-4.0489,-4.0489,-4.0489,-4.0489,-4.0489,-4.0489,-4.0489,-4.0489,-4.0489,-4.0681,-4.1316,-4.0931,-4.07,-4.1335,-4.197,-4.2162,-4.1546,-4.145,-4.1219,-4.0566,-4.1046,-4.145,-4.145,-4.2008,-4.2393,-4.2393,-4.2393,-4.2489,-4.2739,-4.372,-4.4586,-4.522,-4.547,-4.5586,-4.5586,-4.5586,-4.5586,-4.5586,-4.5586,-4.5586,-4.5586,-4.5342,-4.5243,0.0,0.0,0.0,-2.5703,0.0,0.0,0.0,0.0,-2.5703,0.0,0.0,0.0,0.0,0.0,0.0,0.0,0.0,0.0,0.0,0.0,0.0,0.0,0.0,0.0,0.0,-2.3153,-2.3535,-2.4375,-2.4434,-2.4805,-2.5644,-2.5703,-2.5703,-2.5703,-2.5703,-2.5703,-2.5742,-2.5603,-2.5531,-2.5543,-2.5524,-2.5928,-2.6688,-2.7638,-2.8475,-2.9179,-3.0025,-3.0398,-3.0398,-3.0398,-3.0417,-3.0533,-3.1371,-3.2218,-3.3045,-3.391,-3.4795,-3.5545,-3.5545,-3.5565,-3.5718,-3.6526,-3.6776,-3.6949,-3.7815,-3.8661,-3.9335,-3.9335,-3.9892,-4.0489,-4.0489,-4.0489,-4.0489,-4.0489,-4.0489,-4.0489,-4.0489,-4.0489,-4.0508,-4.0527,-4.0508,-4.0508,-4.0527,-4.0546,-4.0566,-4.0546,-4.0527,-4.0527,-4.0489,-4.0508,-4.0527,-4.0527,-4.0566,-4.0566,-4.0566,-4.0566,-4.0931,-4.1797,-4.3393,-4.4316,-4.4335,-4.5143,-4.5586,-4.5586,-4.5586,-4.5586,-4.5586,-4.5586,-4.5586,-4.5586,-4.5586,-4.5586,0.0,0.0,-2.5703,-2.5703,0.0,0.0,0.0,0.0,0.0,0.0,0.0,0.0,0.0,0.0,0.0,0.0,0.0,0.0,0.0,0.0,0.0,0.0,0.0,0.0,0.0,0.0,0.0,-2.4374,-2.4883,-2.5332,-2.5684,-2.5703,-2.5703,-2.5703,-2.5703,-2.5703,-2.5703,-2.5564,-2.5493,-2.5505,-2.5967,-2.6351,-2.6659,-2.8082,-2.8871,-2.914,-3.0025,-3.0398,-3.0398,-3.0398,-3.0398,-3.0417,-3.0717,-3.1679,-3.3006,-3.3872,-3.4757,-3.5493,-3.5493,-3.5493,-3.5641,-3.6449,-3.6699,-3.6873,-3.7738,-3.8604,-3.9296,-3.9296,-3.9873,-4.0489,-4.0489,-4.0489,-4.0489,-4.0489,-4.0489,-4.0489,-4.0489,-4.0489,-4.0489,-4.0489,-4.0489,-4.0489,-4.0489,-4.0489,-4.0489,-4.0489,-4.0489,-4.0489,-4.0489,-4.0489,-4.0489,-4.0489,-4.0489,-4.0489,-4.0489,-4.0489,-4.0873,-4.1739,-4.2874,-4.3739,-4.4278,-4.5143,-4.5316,-4.4739,-4.5297,-4.5047,-4.3951,-4.447,-4.4739,-4.472,-4.4182,-4.422,-2.4863,-2.5273,0.0,-2.5703,-2.5703,0.0,-2.5703,0.0,-2.5703,0.0,0.0,0.0,0.0,0.0,0.0,0.0,0.0,0.0,0.0,-2.094,0.0,0.0,0.0,0.0,0.0,0.0,-2.3301,-2.4287,-2.4584,-2.5,0.0,-2.5703,-2.5703,-2.5703,-2.5703,-2.5703,-2.5703,-2.5564,-2.5493,-2.5505,-2.5928,-2.614,-2.6178,-2.7582,-2.8371,-2.8717,-2.9563,-3.0121,-3.0398,-3.0398,-3.0398,-3.0398,-3.0398,-3.1256,-3.2583,-3.343,-3.4487,-3.5493,-3.5493,-3.5493,-3.5603,-3.6103,-3.6276,-3.6392,-3.6949,-3.77,-3.843,-3.8738,-3.92,-3.9681,-3.9988,-4.0065,-4.0065,-4.0065,-4.0277,-4.0489,-4.0489,-4.0489,-4.0489,-4.0489,-4.0489,-4.0489,-4.0489,-4.0489,-4.0489,-4.0489,-4.0489,-4.0489,-4.0489,-4.0489,-4.0489,-4.0489,-4.0489,-4.0489,-4.0489,-4.0489,-4.0739,-4.1296,-4.2162,-4.2874,-4.3393,-4.4509,-4.4874,-4.4316,-4.4855,-4.4605,-4.3528,-4.3758,-4.3874,-4.3855,-4.3335,-4.3201]}]]